     2              OBSERVATION DATA    GPS                 RINEX VERSION / TYPE
teqc 1998Jul1 Simon McClusky 99/06/22                       PGM / RUN BY / DATE
                                                            COMMENT
L2: 1 -> 1; 150 -> 5; 250 -> 9                              COMMENT
L2: 1 -> 1; 150 -> 5; 250 -> 9                              COMMENT
L2: 1 -> 1; 150 -> 5; 250 -> 9                              COMMENT
L2: 1 -> 1; 150 -> 5; 250 -> 9                              COMMENT
L2: 1 -> 1; 150 -> 5; 250 -> 9                              COMMENT
Original Marker Name: 7288                                  COMMENT
Campaign Name: China Lake May 1999                          COMMENT
4-Character Station Name: 7288                              COMMENT
6-Character Antenna Code: ASHGD3                            COMMENT
Vertical Measurement Point: TGP                             COMMENT
Vertical Offset to Rinex Ref. Point: 0.0640                 COMMENT
Radial Measurement Point: OOH                               COMMENT
Radial Offset to Rinex Ref. Point: 0.1737                   COMMENT
Antenna Height from Field Measurement: 1.4210 m             COMMENT
Additional Antenna Identification Info.:                    COMMENT
The Whopper (700718AB)                                      COMMENT
Original XYZ: -2356357.4700 -4646419.2100 3668175.4600      COMMENT
New XYZ position is based on association with SCEC monument COMMENT
E1F4C1A8+0101. Position of that monument is believed to be  COMMENT
valid to within 1 m horizontally; vertical accuracy         COMMENT
should be no worse than 3-times this value.                 COMMENT
                                                            COMMENT
Revised Rinex header created by UCSD GPS archive for        COMMENT
GSAC on 01-Aug-2000 (2000:214) 02:50:45 GMT                 COMMENT
For assistance contact dagnew@ucsd.edu                      COMMENT
or anderson@python.ucsd.edu                                 COMMENT
                                                            COMMENT
MOJ 1984 / 7288                                             MARKER NAME
C_W US NATIONAL IMAGERY MAPPING AGENCY                      OBSERVER / AGENCY
501 ASHTECH Z-XII3 4J30                                     REC # / TYPE / VERS
108 ASHTECH GEODETIC III                                    ANT # / TYPE
 -2356494.0221 -4646607.5937  3668426.5184                  APPROX POSITION XYZ
        1.3463        0.0000        0.0000                  ANTENNA: DELTA H/E/N
     1     1     0                                          WAVELENGTH FACT L1/2
     5    L1    L2    C1    P2    P1                        # / TYPES OF OBSERV
    30                                                      INTERVAL
  1999     5     7    14    39   30.000000                  TIME OF FIRST OBS
  1999     5     7    22     9   60.000000                  TIME OF LAST OBS
                                                            END OF HEADER
 99  5  7 14 39 30.0000000  0  7G26G 2G19G27G15G 7G13
    -50184.96559    -30457.41957  19066452.920    19066462.373    19066455.485
    -29152.49359    -17953.70657  17599351.553
  17599359.540                    17599352.916    20548928.975
     17621.99259     11007.13357  17088848.732
  17088857.404                    17088850.750    20021958.843
    -64801.57059    -40503.30557  17112254.199    17112263.630    17112256.526
     57801.45359     36295.59156  19552742.960    19552752.614    19552745.885
 99  5  7 14 40 30.0010000  0  7G26G 2G19G27G15G 7G13
   -139397.01049    -99973.35847  22946779.858    22946787.929    22946780.952
    -72333.38849    -51601.17547  21488437.483    21488444.474    21488437.839
    218633.13749    159218.90145  24473418.996    24473429.798    24473422.000
     51656.30849     37527.29447  20992628.625    20992635.879    20992629.318
    -59501.05459    -43421.42256  23911937.819    23911946.367    23911938.220
   -184030.19249   -133408.70747  20986869.444    20986877.100    20986870.136
    198767.25749    146138.89146  23476871.479    23476879.396    23476872.734
 99  5  7 14 41  0.0010000  0  7G26G 2G19G27G15G 7G13
   -183349.25049   -134221.88547  22938416.206    22938424.163    22938417.162
    -93878.07449    -68389.25147  21484337.814    21484344.694    21484338.046
    290220.36549    215001.03245  24487042.128    24487053.055    24487043.584
     69263.63249     51247.26447  20995979.306    20995986.445    20995979.859
    -78038.14949    -57865.93146  23908410.494    23908418.703    23908410.756
   -243092.54049   -179431.30747  20975630.423    20975637.922    20975630.949
    269384.90749    201165.53046  23490309.836    23490317.563    23490310.909
 99  5  7 14 41 30.0010000  0  7G26G 2G19G27G15G 7G13
   -226915.88149   -168169.93647  22930125.946    22930133.779    22930126.777
   -115436.50049    -85188.03147  21480235.527    21480242.286    21480235.656
    361868.82259    270830.88555  24500676.681    24500687.280    24500678.072
     87184.77549     65211.76247  20999389.670    20999396.737    20999390.119
    -96148.58449    -71977.96446  23904964.346    23904972.242    23904964.464
   -301843.07449   -225210.92347  20964450.716    20964458.078    20964451.084
    340015.15149    256201.98946  23503750.483    23503758.075    23503751.463
 99  5  7 14 42  0.0010000  0  7G26G 2G19G27G15G 7G13
   -270116.42149   -201832.71647  22921905.279    22921913.050    22921906.024
   -137024.91249   -102010.18047  21476127.493    21476134.184    21476127.538
    433556.44849    326691.26345  24514318.498    24514328.936    24514319.607
    105384.34249     79393.20747  21002853.052    21002860.009    21002853.404
   -113847.66049    -85769.45746  23901596.437    23901604.277    23901596.428
   -360294.57349   -270757.54047  20953327.874    20953335.165    20953328.156
    410624.16049    311221.93846  23517187.076    23517194.519    23517187.930
 99  5  7 14 42 30.0010000  0  7G26G 2G19G27G15G 7G13
   -312924.82249   -235189.93447  22913759.163    22913766.930    22913759.847
   -158606.30349   -118826.85747  21472020.793    21472027.423    21472020.759
    505293.26049    382589.96645  24527969.865    24527980.079    24527970.682
    123883.71849     93808.27447  21006373.489    21006380.346    21006373.747
   -131116.96549    -99226.07646  23898310.192    23898318.172    23898310.172
   -418435.03649   -316061.77847  20942264.157    20942271.433    20942264.375
    481229.48749    366238.96646  23530622.903    23530630.318    23530623.714
 99  5  7 14 43  0.0010000  0  7G26G 2G19G27G15G 7G13
   -355333.85449   -268235.98547  22905689.073    22905696.784    22905689.702
   -180167.46649   -135627.77747  21467917.901    21467924.502    21467917.826
    577069.07549    438519.06445  24541628.566    24541638.645    24541629.198
    142709.37649    108477.59047  21009956.044    21009962.778    21009956.202
   -147948.43549   -112341.59845  23895107.434    23895115.194    23895107.216
   -476251.99049   -361113.90247  20931261.995    20931269.260    20931262.182
    551832.36849    421254.12446  23544058.413    23544065.668    23544059.068
 99  5  7 14 43 30.0010000  0  7G26G 2G19G27G15G 7G13
   -397292.18849   -300930.77547  22897704.790    22897712.391    22897705.354
   -201661.09749   -152376.06247  21463827.884    21463834.430    21463827.756
    648912.18748    494500.63345  24555299.980    24555310.052    24555300.466
    161918.75449    123445.88447  21013611.548    21013618.255    21013611.659
   -164299.12749   -125082.35045  23891995.962    23892003.857    23891995.789
   -533697.39849   -405876.57747  20920330.532    20920337.804    20920330.669
    622465.05149    476292.48846  23557499.503    23557506.667    23557500.078
 99  5  7 14 44  0.0010000  0  7G26G 2G19G27G15G 7G13
   -438828.20049   -333296.50947  22889800.792    22889808.391    22889801.329
   -223122.19549   -169098.98947  21459744.071    21459750.544    21459743.886
    720775.75159    550498.10855  24568975.163    24568985.216    24568975.788
    181486.17949    138693.19847  21017335.116    21017341.838    21017335.239
   -180205.22759   -137476.91855  23888969.166    23888976.871    23888968.967
   -590803.26549   -450374.63447  20909463.645    20909470.963    20909463.782
    693086.88259    531322.14256  23570938.604    23570945.643    23570939.180
 99  5  7 14 44 30.0010000  0  7G26G 2G19G27G15G 7G13
   -479892.69549   -365294.82446  22881986.509    22881994.093    22881987.041
   -244500.54949   -185757.43047  21455676.014    21455682.407    21455675.783
    792701.34649    606543.89045  24582662.272    24582672.366    24582662.713
    201467.21949    154262.80548  21021137.426    21021144.138    21021137.530
   -195617.66249   -149486.63746  23886036.248    23886044.069    23886036.160
   -647527.75549   -494575.52447  20898669.350    20898676.663    20898669.449
    763739.28949    586375.85846  23584383.340    23584390.466    23584384.096
 99  5  7 14 45  0.0010000  0  7G26G 2G19G27G15G 7G13
   -520489.66049   -396928.87046  22874261.111    22874268.774    22874261.666
   -265803.39749   -202357.08947  21451622.233    21451628.619    21451621.998
    864703.75349    662649.59145  24596364.091    24596373.995    24596364.476
    221855.71649    170149.92048  21025017.324    21025024.000    21025017.378
   -210525.33649   -161102.99145  23883199.773    23883207.286    23883199.371
   -703866.01249   -538475.43347  20887948.462    20887955.871    20887948.598
    834436.07549    641464.21145  23597836.247    23597843.682    23597836.920
 99  5  7 14 45 30.0010000  0  7G26G 2G19G27G15G 7G13
   -560632.87249   -428209.29647  22866622.165    22866629.866    22866622.697
   -287050.90049   -218913.58947  21447578.975    21447585.380    21447578.742
    936780.67149    718813.27245  24610080.202    24610089.912    24610080.397
    242616.36249    186327.04247  21028968.027    21028974.682    21028968.054
   -224942.18149   -172336.93946  23880456.512    23880463.970    23880456.009
   -759835.34749   -582087.90447  20877297.797    20877305.214    20877297.936
    905165.64349    696578.07646  23611295.653    23611303.193    23611296.331
 99  5  7 14 46  0.0010000  0  7G26G 2G19G27G15G 7G13
   -600329.48349   -459141.73247  22859068.177    22859075.950    22859068.707
   -308228.14149   -235415.33647  21443549.052    21443555.477    21443548.832
   1008936.59549    775038.55445  24623811.223    24623820.853    24623811.344
    263745.24649    202791.07747  21032988.757    21032995.426    21032988.786
   -238863.89949   -183185.05046  23877807.422    23877814.674    23877806.884
   -815436.85649   -625413.73947  20866717.220    20866724.591    20866717.320
    975946.87449    751732.20046  23624764.921    23624772.445    23624765.618
 99  5  7 14 46 30.0010000  0  7G26G 2G19G27G15G 7G13
   -639556.66349   -489708.38447  22851603.523    22851611.329    22851604.042
   -329308.31549   -251841.44647  21439537.659    21439544.078    21439537.434
   1081205.49149    831351.85645  24637563.655    24637573.327    24637563.726
    285265.69749    219560.21547  21037084.024    21037090.679    21037084.036
   -252261.80349   -193625.00446  23875258.028    23875265.319    23875257.398
   -870643.22749   -668431.67547  20856211.881    20856219.182    20856211.933
   1046832.92349    806968.01146  23638254.219    23638261.660    23638254.894
 99  5  7 14 47  0.0010000  0  7G26G 2G19G27G15G 7G13
   -678286.25349   -519887.30147  22844233.627    22844241.365    22844234.105
   -350266.40549   -268172.42547  21435549.517    21435555.919    21435549.274
   1153625.79749    887783.14045  24651344.838    24651354.572    24651344.872
    307216.02749    236664.33647  21041261.101    21041267.764    21041261.099
   -265102.71949   -203630.93246  23872814.386    23872821.808    23872813.860
   -925421.63749   -711116.13347  20845788.021    20845795.226    20845787.996
   1117865.32949    862317.84946  23651771.359    23651778.843    23651771.955
 99  5  7 14 47 30.0010000  0  7G26G 2G19G27G15G 7G13
   -716457.48649   -549631.13947  22836970.047    22836977.637    22836970.440
   -371042.21849   -284361.37647  21431596.060    21431602.449    21431595.803
   1226255.62449    944377.67745  24665165.948    24665175.709    24665165.942
    329668.17649    254159.49147  21045533.656    21045540.352    21045533.649
   -277332.92449   -213160.97446  23870487.053    23870494.515    23870486.563
   -979704.00349   -753414.06547  20835458.471    20835465.648    20835458.449
   1189085.89549    917814.30346  23665324.185    23665331.849    23665324.804
 99  5  7 14 48  0.0010000  0  7G26G 2G19G27G15G 7G13
   -754146.03349   -578998.85547  22829798.237    22829805.768    22829798.599
   -391717.94949   -300472.33747  21427661.617    21427668.012    21427661.361
   1299022.64849   1001079.11045  24679013.211    24679022.928    24679013.146
    352562.20849    271998.97747  21049890.302    21049897.024    21049890.285
   -289023.93449   -222270.90146  23868262.178    23868269.828    23868261.834
  -1033547.15349   -795369.74947  20825212.417    20825219.633    20825212.428
   1260419.86749    973399.13546  23678898.592    23678906.484    23678899.241
 99  5  7 14 48 30.0010000  0  7G26G 2G19G27G15G 7G13
   -791462.66249   -608076.76747  22822697.216    22822704.688    22822697.546
   -412422.68049   -316605.89347  21423721.649    21423728.069    21423721.394
   1371825.23049   1057808.26145  24692867.296    24692876.869    24692867.177
    375792.82449    290100.72347  21054310.994    21054317.741    21054310.973
   -300286.90249   -231047.24446  23866118.826    23866126.564    23866118.572
  -1087052.56849   -837062.26647  20815030.643    20815037.859    20815030.661
   1331728.68549   1028964.35346  23692468.198    23692476.296    23692468.875
 99  5  7 14 49  0.0010000  0  8G26G 2G19G27G15G 7G 9G13
   -828377.69149   -636841.74447  22815672.609    22815680.056    22815672.922
   -433116.25549   -332730.76247  21419783.824    21419790.213    21419783.565
   1444693.15649   1114588.32945  24706733.716    24706743.229    24706733.634
    399392.38849    308489.95347  21058801.870    21058808.633    21058801.857
   -311090.28549   -239465.49646  23864063.047    23864070.841    23864062.778
  -1140188.54449   -878466.90547  20804919.196    20804926.406    20804919.225
  -2100456.39259   -587098.82855  25380620.132    25380626.588    25380619.621
   1403011.70749   1084509.47746  23706033.005    23706041.231    23706033.628
 99  5  7 14 49 30.0010000  0  8G26G 2G19G27G15G 7G 9G13
   -864843.92449   -665257.00247  22808733.370    22808740.808    22808733.667
   -453751.15149   -348809.90147  21415857.188    21415863.545    21415856.910
   1517655.42249   1171441.91945  24720618.019    24720627.461    24720617.915
    423396.11149    327194.13447  21063369.682    21063376.467    21063369.664
   -321393.41149   -247493.94846  23862102.390    23862110.318    23862102.162
  -1192908.42149   -919547.30447  20794886.935    20794894.161    20794886.970
  -2230053.25849   -688083.37845  25355958.105    25355965.905    25355957.744
   1474304.76449   1140062.41646  23719599.732    23719608.071    23719600.259
 99  5  7 14 50  0.0010000  0  8G26G 2G19G27G15G 7G 9G13
   -900806.52149   -693279.82447  22801889.899    22801897.392    22801890.227
   -474281.91149   -364807.89847  21411950.362    21411956.686    21411950.068
   1590740.63149   1228391.29145  24734525.516    24734535.149    24734525.510
    447842.10349    346242.93147  21068021.630    21068028.437    21068021.615
   -331149.92549   -255096.44546  23860245.966    23860253.761    23860245.613
  -1245176.26649   -960275.47847  20784940.673    20784947.957    20784940.719
  -2359696.86749   -789104.38745  25331287.286    25331296.443    25331286.960
   1545661.48449   1195664.96646  23733178.528    23733186.992    23733179.068
 99  5  7 14 50 30.0010000  0  8G26G 2G19G27G15G 7G 9G13
   -936249.93349   -720898.09047  22795145.174    22795152.735    22795145.572
   -494689.42349   -380709.85747  21408066.969    21408073.287    21408066.667
   1663933.50549   1285424.57645  24748453.459    24748463.345    24748453.629
    472732.60049    365638.09147  21072758.121    21072764.976    21072758.130
   -340356.48649   -262270.43146  23858494.131    23858501.830    23858493.741
  -1297013.07449  -1000667.78347  20775076.390    20775083.732    20775076.463
  -2489370.76148   -890148.95545  25306610.800    25306620.774    25306610.605
   1617081.44649   1251316.78546  23746769.252    23746777.931    23746769.842
 99  5  7 14 51  0.0010000  0  8G26G 2G19G27G15G 7G 9G13
   -971148.42749   -748091.74947  22788504.167    22788511.769    22788504.599
   -514961.43249   -396506.23147  21404209.359    21404215.691    21404209.062
   1737215.83449   1342527.55245  24762398.658    24762408.610    24762398.850
    498069.56249    385381.14847  21077579.611    21077586.501    21077579.624
   -349002.90749   -269007.93746  23856849.125    23856856.577    23856848.508
  -1348412.29749  -1040719.11147  20765295.372    20765302.798    20765295.475
  -2619049.30349   -991197.14945  25281933.740    25281944.358    25281933.622
   1688585.71349   1307034.31246  23760376.028    23760384.979    23760376.643
 99  5  7 14 51 30.0010000  0  8G26G 2G19G27G15G 7G 9G13
  -1005501.58549   -774860.46547  22781967.011    22781974.578    22781967.453
   -535119.44049   -412213.77447  21400373.417    21400379.781    21400373.145
   1810571.48249   1399687.66445  24776357.908    24776367.836    24776358.100
    523841.80049    405463.38147  21082483.924    21082490.862    21082483.947
   -357095.19649   -275313.66446  23855309.070    23855316.558    23855308.600
  -1399380.55449  -1080434.61847  20755596.394    20755603.847    20755596.507
  -2748719.49049  -1092238.86145  25257258.813    25257269.354    25257258.550
   1760178.53349   1362820.83246  23773999.849    23774008.841    23774000.356
 99  5  7 14 52  0.0010000  0  8G26G 2G19G27G15G 7G 9G13
  -1039307.37749   -801202.66947  22775534.002    22775541.554    22775534.445
   -555167.52049   -427835.65947  21396558.359    21396564.769    21396558.119
   1884014.77449   1456916.06645  24790333.970    24790343.847    24790334.046
    550055.54649    425889.63447  21087472.223    21087479.251    21087472.275
   -364631.65249   -281186.26346  23853874.844    23853882.552    23853874.450
  -1449935.05249  -1119827.71947  20745976.099    20745983.634    20745976.247
  -2878380.60449  -1193273.49045  25232585.852    25232595.919    25232585.296
   1831851.15549   1418669.53946  23787638.846    23787647.863    23787639.301
 99  5  7 14 52 30.0010000  0  8G26G 2G19G27G15G 7G 9G13
  -1072554.27449   -827109.36847  22769207.353    22769214.914    22769207.814
   -575080.97649   -443352.64547  21392768.964    21392775.390    21392768.728
   1957577.94349   1514237.88545  24804332.904    24804342.624    24804332.879
    576734.98149    446678.76547  21092549.139    21092556.242    21092549.208
   -371595.08349   -286612.34546  23852549.782    23852557.407    23852549.420
  -1500062.42049  -1158887.99247  20736437.148    20736444.708    20736437.293
  -3008019.66949  -1294290.94945  25207917.188    25207926.685    25207916.267
   1903614.26949   1474588.74846  23801295.058    23801304.110    23801295.459
 99  5  7 14 53  0.0000000  0  8G26G 2G19G27G15G 7G 9G13
  -1105263.74049   -852597.29447  22762983.060    22762990.496    22762983.466
   -594874.93549   -458776.51647  21389002.321    21389008.727    21389002.083
   2031272.65649   1571662.25545  24818356.968    24818366.476    24818356.748
    603869.33249    467822.37147  21097712.632    21097719.788    21097712.695
   -377995.02949   -291599.34646  23851331.669    23851339.708    23851331.513
  -1549756.19349  -1197610.39947  20726980.784    20726988.325    20726980.887
  -3137648.69449  -1395300.58245  25183250.117    25183259.169    25183249.110
   1975454.76949   1530568.27346  23814966.072    23814975.051    23814966.394
 99  5  7 14 53 30.0000000  0  8G26G 2G19G27G15G 7G 9G13
  -1137461.80149   -877686.71447  22756856.144    22756863.439    22756856.491
   -614534.02349   -474095.29347  21385261.354    21385267.757    21385261.094
   2105125.20849   1629209.58245  24832410.960    24832420.394    24832410.631
    631464.10949    489324.75147  21102963.802    21102970.933    21102963.852
   -383834.62649   -296149.70646  23850220.513    23850228.444    23850220.316
  -1599018.99349  -1235996.98147  20717606.433    20717613.945    20717606.501
  -3267294.40449  -1496323.21745  25158579.743    25158588.460    25158578.696
   2047375.13449   1586610.01946  23828652.291    23828661.208    23828652.537
 99  5  7 14 54  0.0000000  0  8G26G 2G19G27G15G 7G 9G13
  -1169037.96449   -902291.54147  22750847.492    22750854.726    22750847.812
   -633922.65049   -489203.31447  21381571.851    21381578.262    21381571.602
   2179258.99649   1686976.06045  24846518.435    24846527.829    24846518.007
    659642.85449    511282.18247  21108326.115    21108333.199    21108326.145
   -388998.66749   -300173.65646  23849238.030    23849245.906    23849237.707
  -1647725.22849  -1273949.87547  20708338.023    20708345.458    20708338.046
  -3396842.38549  -1597269.68745  25133927.780    25133936.361    25133926.703
   2119481.65149   1642796.82346  23842373.942    23842382.722    23842374.122
 99  5  7 14 54 30.0000000  0  8G26G 2G19G27G15G 7G 9G13
  -1199875.14949   -926320.53947  22744979.330    22744986.686    22744979.696
   -652913.93349   -504001.72247  21377957.962    21377964.360    21377957.702
   2253782.24549   1745046.02245  24860699.770    24860709.297    24860699.424
    688513.90749    533779.06347  21113820.141    21113827.209    21113820.144
   -393359.77549   -303571.94146  23848408.152    23848415.983    23848407.809
  -1695715.43749  -1311344.82347  20699205.828    20699213.224    20699205.825
  -3526146.91149  -1698026.43745  25109321.965    25109330.411    25109321.005
   2191907.02649   1699232.07846  23856156.250    23856164.916    23856156.402
 99  5  7 14 55  0.0000000  0  8G26G 2G19G27G15G 7G 9G13
  -1230181.16849   -949935.65047  22739212.332    22739219.749    22739212.698
   -671723.88949   -518658.83447  21374378.544    21374384.955    21374378.300
   2328474.77549   1803247.90845  24874913.263    24874922.737    24874912.973
    717856.79049    556643.61847  21119403.903    21119411.016    21119403.928
   -397122.29049   -306503.79346  23847692.265    23847700.100    23847691.863
  -1743183.76549  -1348333.11647  20690172.924    20690180.326    20690172.910
  -3655403.69849  -1798745.98445  25084725.127    25084733.334    25084724.276
   2264443.79449   1755754.15946  23869959.665    23869968.310    23869959.805
 99  5  7 14 55 30.0000000  0  8G26G 2G19G27G15G 7G 9G13
  -1260010.89149   -973179.61247  22733535.955    22733543.435    22733536.329
   -690412.06749   -533221.05447  21370822.321    21370828.728    21370822.075
   2403260.12349   1861522.09245  24889144.576    24889153.943    24889144.238
    747609.14249    579827.24547  21125065.569    21125072.746    21125065.626
   -400349.01049   -309018.16246  23847078.136    23847086.205    23847077.815
  -1790201.43349  -1384970.24047  20681225.786    20681233.166    20681225.761
  -3784675.00148  -1899476.83845  25060125.451    25060133.297    25060124.768
   2337033.10849   1812317.18046  23883773.113    23883781.716    23883773.267
 99  5  7 14 56  0.0000000  0  8G26G 2G19G27G15G 7G 9G13
  -1289343.04349   -996035.85347  22727954.223    22727961.749    22727954.603
   -708989.60349   -547697.06147  21367287.132    21367293.549    21367286.894
   2478139.99349   1919870.00345  24903393.781    24903403.063    24903393.393
    777774.06549    603332.35147  21130805.809    21130812.967    21130805.841
   -403030.16249   -311107.39246  23846568.044    23846575.924    23846567.643
  -1836769.96849  -1421257.39947  20672364.083    20672371.498    20672364.072
  -3913945.57849  -2000207.14045  25035525.571    25035533.625    25035525.334
   2409678.49449   1868923.89946  23897597.178    23897605.749    23897597.352
 99  5  7 14 56 30.0000000  0  8G26G 2G19G27G15G 7G 9G13
  -1318169.35349  -1018497.93547  22722468.744    22722476.331    22722469.158
   -727468.55949   -562096.25247  21363770.747    21363777.156    21363770.488
   2553111.79349   1978289.51245  24917660.296    24917669.951    24917660.071
    808350.30849    627157.96047  21136624.308    21136631.453    21136624.338
   -405159.65349   -312766.77546  23846162.804    23846170.723    23846162.413
  -1882898.68249  -1457201.83447  20663586.059    20663593.487    20663586.064
  -4043211.67649  -2100933.94545  25010926.717    25010934.794    25010926.573
   2482383.03949   1925576.70446  23911432.479    23911440.995    23911432.699
 99  5  7 14 57  0.0000000  0  9G26G 2G19G27G15G 4G 7G 9G13
  -1346499.27349  -1040573.22147  22717077.750    22717085.364    22717078.167
   -745854.27949   -576422.79647  21360272.103    21360278.476    21360271.831
   2628176.52949   2036781.39245  24931944.419    24931954.548    24931944.389
    839339.64049    651305.45947  21142521.472    21142528.563    21142521.462
   -406752.89849   -314008.28946  23845859.704    23845867.551    23845859.275
   -387769.62959   -272856.59855  25110072.844    25110084.443    25110075.443
  -1928624.09049  -1492832.00747  20654884.824    20654892.206    20654884.813
  -4172495.81749  -2201674.81945  24986324.282    24986332.626    24986324.467
   2555131.21649   1982263.51346  23925276.173    23925284.533    23925276.383
 99  5  7 14 57 30.0000000  0  9G26G 2G19G27G15G 4G 7G 9G13
  -1374319.53849  -1062251.37347  22711783.767    22711791.367    22711784.177
   -764128.84349   -590662.72247  21356794.593    21356800.930    21356794.305
   2703351.53749   2095359.22745  24946249.424    24946259.762    24946249.590
    870762.48249    675790.75547  21148501.122    21148508.164    21148501.078
   -407797.72049   -314822.45346  23845660.908    23845668.769    23845660.499
   -519650.06359   -375620.51345  25084977.286    25084988.126    25084977.867
  -1973939.20149  -1528142.47047  20646261.695    20646269.048    20646261.653
  -4301774.19949  -2302411.23245  24961723.104    24961731.624    24961723.472
   2627929.95549   2038989.71346  23939129.486    23939137.692    23939129.639
 99  5  7 14 58  0.0000000  0  9G26G 2G19G27G15G 4G 7G 9G13
  -1401632.61649  -1083534.31247  22706586.334    22706593.898    22706586.705
   -782298.49749   -604820.90447  21353337.068    21353343.371    21353336.757
   2778634.67249   2154021.24545  24960575.286    24960585.783    24960575.451
    902614.01149    700610.09147  21154562.362    21154569.351    21154562.289
   -408293.11849   -315208.50346  23845566.763    23845574.669    23845566.305
   -651674.35949   -478496.54945  25059854.315    25059864.925    25059854.839
  -2018840.43249  -1563130.43247  20637717.312    20637724.639    20637717.248
  -4431040.40349  -2403138.14645  24937124.275    24937133.080    24937124.756
   2700759.75349   2095740.11545  23952988.564    23952996.753    23952988.783
 99  5  7 14 58 30.0000000  0  9G26G 2G19G27G15G 4G 7G 9G13
  -1428446.58949  -1104428.34047  22701483.787    22701491.425    22701484.198
   -800349.84849   -618886.89447  21349902.044    21349908.309    21349901.724
   2854017.65849   2212761.13545  24974920.391    24974930.729    24974920.441
    934894.06049    725763.33947  21160705.140    21160712.093    21160705.034
   -408244.49349   -315170.64746  23845576.019    23845583.934    23845575.594
   -783845.09749   -581486.69745  25034702.929    25034713.830    25034703.338
  -2063325.78549  -1597794.33247  20629252.014    20629259.345    20629251.971
  -4560286.06049  -2503849.05045  24912529.688    24912538.586    24912530.139
   2773611.43149   2152507.58545  23966851.840    23966860.003    23966852.069
 99  5  7 14 59  0.0000000  0  9G26G 2G19G27G15G 4G 7G 9G13
  -1454740.42249  -1124917.06647  22696480.292    22696487.901    22696480.664
   -818246.07049   -632832.01047  21346496.520    21346502.798    21346496.199
   2929516.49449   2271591.22745  24989287.516    24989297.777    24989287.506
    967617.33049    751261.95947  21166932.274    21166939.160    21166932.137
   -407633.06049   -314694.21746  23845692.472    23845700.308    23845692.002
   -916142.07749   -684575.24045  25009527.810    25009538.556    25009528.177
  -2107371.32749  -1632115.52347  20620870.473    20620877.737    20620870.414
  -4689489.23049  -2604526.84845  24887943.327    24887952.172    24887943.670
   2846492.74849   2209298.12745  23980720.831    23980728.884    23980720.990
 99  5  7 14 59 30.0000000  0  9G26G 2G19G27G15G 4G 7G 9G13
  -1480531.90449  -1145014.34847  22691572.409    22691579.996    22691572.754
   -836010.49149   -646674.42447  21343116.087    21343122.358    21343115.781
   3005103.58649   2330490.13745  25003671.756    25003681.577    25003671.508
   1000763.48049    777090.08547  21173239.826    21173246.706    21173239.704
   -406479.80749   -313795.60446  23845912.073    23845919.815    23845911.531
  -1048593.90949   -787784.44745  24984323.283    24984333.964    24984323.476
  -2151000.36149  -1666112.16047  20612568.256    20612575.412    20612568.135
  -4818678.64049  -2705193.93145  24863359.526    24863368.473    24863359.759
   2919368.84149   2266084.60045  23994588.718    23994596.783    23994588.956
 99  5  7 15  0  0.0000000  0  9G26G 2G19G27G15G 4G 7G 9G13
  -1505818.69949  -1164718.35847  22686760.461    22686768.108    22686760.835
   -853633.58449   -660406.70847  21339762.576    21339768.841    21339762.243
   3080793.67748   2389469.25945  25018075.605    25018085.015    25018075.253
   1034342.77649    803255.72547  21179629.816    21179636.661    21179629.682
   -404783.16849   -312473.58946  23846235.038    23846242.729    23846234.439
  -1181196.73849   -891111.35745  24959089.914    24959100.376    24959090.029
  -2194206.50449  -1699779.27147  20604346.427    20604353.549    20604346.294
  -4947866.92249  -2805860.14545  24838775.863    24838785.094    24838776.040
   2992246.24249   2322872.12345  24008456.898    24008464.945    24008457.175
 99  5  7 15  0 30.0000000  0  9G26G 2G19G27G15G 4G 7G 9G13
  -1530603.94649  -1184031.55147  22682044.023    22682051.710    22682044.388
   -871114.07949   -674027.88247  21336436.194    21336442.431    21336435.846
   3156569.26749   2448514.98945  25032495.948    25032504.726    25032495.349
   1068354.22249    829758.10247  21186102.006    21186108.849    21186101.889
   -402551.00449   -310734.28746  23846659.644    23846667.518    23846659.189
  -1313953.20349   -994557.97145  24933827.128    24933837.518    24933827.242
  -2236987.44349  -1733115.06047  20596205.463    20596212.621    20596205.348
  -5077054.42849  -2906525.74645  24814192.470    24814201.768    24814192.515
   3065131.63149   2379665.86245  24022326.625    24022334.615    24022326.900
 99  5  7 15  1  0.0000000  0  9G26G 2G19G27G15G 4G 7G 9G13
  -1554882.78349  -1202950.14747  22677423.919    22677431.628    22677424.299
   -888462.49349   -687546.13147  21333134.937    21333141.128    21333134.568
   3232437.05049   2507632.58145  25046933.723    25046942.012    25046932.917
   1102803.60149    856601.73747  21192657.560    21192664.366    21192657.445
   -399781.05949   -308575.89746  23847186.837    23847194.557    23847186.349
  -1446859.95948  -1098121.67744  24908535.866    24908546.001    24908535.953
  -2279337.57049  -1766115.14847  20588146.532    20588153.665    20588146.422
  -5206250.53449  -3007198.03145  24789607.545    24789616.810    24789607.435
   3138027.98849   2436468.13845  24036198.401    24036206.434    24036198.659
 99  5  7 15  1 30.0000000  0  9G26G 2G19G27G15G 4G 7G 9G13
  -1578635.01749  -1221458.40047  22672904.120    22672911.751    22672904.453
   -905669.90649   -700954.51247  21329860.457    21329866.674    21329860.133
   3308424.00349   2566843.03645  25061393.882    25061402.097    25061393.059
   1137732.84549    883819.29547  21199304.444    21199311.205    21199304.309
   -396453.10849   -305982.70946  23847820.079    23847827.761    23847819.647
  -1579885.59148  -1201778.01244  24883221.703    24883231.952    24883221.839
  -2321230.95749  -1798759.33447  20580174.512    20580181.610    20580174.387
  -5335435.07949  -3107861.29745  24765024.630    24765034.037    24765024.521
   3210965.52049   2493302.50445  24050077.933    24050086.115    24050078.262
 99  5  7 15  2  0.0000000  0  9G26G 2G19G27G15G 4G 7G 9G13
  -1601894.86349  -1239582.97647  22668477.957    22668485.576    22668478.283
   -922771.67449   -714280.56647  21326606.124    21326612.310    21326605.779
   3384488.40349   2626113.90245  25075868.584    25075876.946    25075867.807
   1173103.60249    911380.88247  21206035.353    21206042.070    21206035.196
   -392601.02349   -302981.11746  23848553.091    23848560.907    23848552.698
  -1713052.90548  -1305544.71345  24857880.277    24857891.000    24857880.849
  -2362690.22249  -1831065.24447  20572285.051    20572292.166    20572284.937
  -5464623.64149  -3208527.68845  24740441.004    24740450.480    24740440.867
   3283914.94149   2550146.11545  24063959.846    24063968.006    24063960.132
 99  5  7 15  2 30.0000000  0  9G26G 2G19G27G15G 4G 7G 9G13
  -1624641.98649  -1257308.02947  22664149.387    22664156.987    22664149.705
   -939764.94449   -727522.08447  21323372.458    21323378.617    21323372.098
   3460624.52049   2685440.62945  25090356.909    25090365.452    25090356.213
   1208909.32049    939281.39147  21212849.019    21212855.727    21212848.866
   -388212.11749   -299561.22646  23849388.446    23849396.152    23849387.963
  -1846345.37349  -1409408.95045  24832515.094    24832526.108    24832515.883
  -2403700.52049  -1863021.31147  20564481.066    20564488.128    20564480.962
  -5593790.40849  -3309177.09945  24715861.407    24715871.016    24715861.291
   3356881.91549   2607003.41345  24077845.175    24077853.246    24077845.391
 99  5  7 15  3  0.0000000  0  9G26G 2G19G27G15G 4G 7G 9G13
  -1646868.21949  -1274627.19847  22659919.906    22659927.532    22659920.228
   -956645.59949   -740675.84347  21320160.205    21320166.353    21320159.842
   3536863.64649   2744847.64345  25104864.675    25104873.544    25104864.117
   1245151.78449    967522.22747  21219745.808    21219752.504    21219745.635
   -383274.97849   -295714.11746  23850328.040    23850335.648    23850327.526
  -1979740.35249  -1513353.09045  24807130.677    24807141.912    24807131.664
  -2444267.99449  -1894632.31547  20556761.327    20556768.375    20556761.228
  -5722929.99049  -3409805.34545  24691286.959    24691296.691    24691286.865
   3429870.31749   2663877.44445  24091734.550    24091742.568    24091734.700
 99  5  7 15  3 30.0000000  0  9G26G 2G19G27G15G 4G 7G 9G13
  -1668588.13649  -1291551.83247  22655786.774    22655794.390    22655787.076
   -973419.64949   -753746.54047  21316968.174    21316974.368    21316967.847
   3613191.47749   2804323.76745  25119389.245    25119398.464    25119388.810
   1281797.67749    996077.42547  21226719.308    21226726.059    21226719.154
   -377805.22549   -291451.99746  23851368.929    23851376.485    23851368.406
  -2113245.19849  -1617382.84345  24781725.408    24781736.695    24781726.418
  -2484412.56549  -1925913.79147  20549122.084    20549129.091    20549121.983
  -5852035.35749  -3510406.90245  24666718.912    24666728.870    24666718.906
   3502863.55849   2720755.22145  24105624.807    24105632.805    24105624.954
 99  5  7 15  4  0.0000000  0  9G26G 2G19G27G15G 4G 7G 9G13
  -1689817.91749  -1308094.54447  22651746.843    22651754.539    22651747.179
   -990084.67849   -766732.28147  21313796.971    21313803.138    21313796.621
   3689593.53849   2863857.72545  25133927.860    25133937.559    25133927.599
   1318810.40849   1024918.47847  21233762.644    21233769.417    21233762.487
   -371804.47349   -286776.11446  23852510.716    23852518.413    23852510.304
  -2246864.59149  -1721501.85945  24756298.617    24756309.843    24756299.501
  -2524139.71949  -1956870.00247  20541562.286    20541569.272    20541562.161
  -5981090.00849  -3610968.95345  24642160.527    24642170.686    24642160.621
   3575863.95049   2777638.57945  24119516.450    24119524.417    24119516.545
 99  5  7 15  4 30.0000000  0  9G26G 2G19G27G15G 4G 7G 9G13
  -1710586.84449  -1324278.14147  22647794.653    22647802.344    22647795.001
  -1006663.80549   -779651.08647  21310642.072    21310648.241    21310641.738
   3766050.91549   2923434.79645  25148477.023    25148487.086    25148476.900
   1356164.85549   1054025.78647  21240870.973    21240877.796    21240870.834
   -365295.82149   -281704.48046  23853749.239    23853757.031    23853748.874
  -2380630.76849  -1825735.26145  24730843.860    24730855.042    24730844.733
  -2563483.03549  -1987527.12447  20534075.463    20534082.448    20534075.387
  -6110123.79149  -3711514.75245  24617606.276    24617616.315    24617606.290
   3648853.43249   2834513.43445  24133405.899    24133413.929    24133406.026
 99  5  7 15  5  0.0000000  0  9G26G 2G19G27G15G 4G 7G 9G13
  -1730907.75449  -1340112.64547  22643927.792    22643935.462    22643928.113
  -1023148.29649   -792496.14847  21307505.228    21307511.372    21307504.864
   3842564.60549   2983055.74445  25163036.953    25163047.266    25163036.970
   1393882.31449   1083415.96347  21248048.405    21248055.263    21248048.274
   -358277.62149   -276235.78246  23855084.783    23855092.625    23855084.434
  -2514549.18049  -1930087.28445  24705360.274    24705371.254    24705360.984
  -2602446.93249  -2017888.59047  20526660.943    20526667.845    20526660.810
  -6239139.72349  -3812046.62045  24593055.357    24593065.340    24593055.317
   3721831.96649   2891379.74145  24147293.293    24147301.388    24147293.478
 99  5  7 15  5 30.0000000  0  9G26G 2G19G27G15G 4G 7G 9G13
  -1750820.37249  -1355629.00347  22640138.554    22640146.252    22640138.890
  -1039571.58749   -805293.52047  21304380.018    21304386.133    21304379.633
   3919076.52249   3042675.25245  25177596.647    25177606.891    25177596.635
   1431931.08949   1113064.31447  21255288.906    21255295.772    21255288.753
   -350790.75349   -270401.86146  23856509.578    23856517.366    23856509.197
  -2648668.02049  -2034595.49545  24679838.532    24679849.313    24679839.113
  -2641057.74249  -2047974.92547  20519313.608    20519320.464    20519313.464
  -6368170.77749  -3912590.28345  24568501.413    24568511.382    24568501.484
   3794759.78649   2948206.54146  24161171.138    24161179.209    24161171.304
 99  5  7 15  6  0.0000000  0  9G26G 2G19G27G15G 4G 7G 9G13
  -1770242.23649  -1370762.95047  22636442.773    22636450.405    22636443.080
  -1055859.49849   -817985.40047  21301280.534    21301286.658    21301280.165
   3995657.93549   3102348.93544  25192169.779    25192179.570    25192169.565
   1470408.79049   1143046.89047  21262611.017    21262617.900    21262610.875
   -342752.82749   -264138.55646  23858039.299    23858046.948    23858038.818
  -2782919.72049  -2139207.22145  24654291.447    24654302.260    24654291.874
  -2679232.73749  -2077721.65847  20512049.186    20512056.025    20512049.037
  -6497156.00649  -4013098.23445  24543956.206    24543966.132    24543956.383
   3867712.75049   3005052.93346  24175053.845    24175061.787    24175053.927
 99  5  7 15  6 30.0000000  0  9G26G 2G19G27G15G 4G 7G 9G13
  -1789148.41049  -1385495.05747  22632845.014    22632852.689    22632845.344
  -1071999.34649   -830561.91047  21298209.232    21298215.344    21298208.857
   4072321.61449   3162086.78444  25206758.694    25206767.773    25206758.355
   1509341.83549   1173384.28247  21270019.739    21270026.694    21270019.620
   -334162.63449   -257444.93446  23859674.074    23859681.658    23859673.533
  -2917298.78249  -2243918.19745  24628719.965    24628730.753    24628720.449
  -2716967.81549  -2107125.60447  20504868.384    20504875.278    20504868.266
  -6626108.72649  -4113580.85945  24519417.282    24519427.036    24519417.514
   3940672.83549   3061904.87145  24188937.792    24188945.705    24188937.881
 99  5  7 15  7  0.0000000  0  9G26G 2G19G27G15G 4G 7G 9G13
  -1807549.14249  -1399833.31847  22629343.517    22629351.161    22629343.822
  -1088000.57749   -843030.40347  21295164.331    21295170.427    21295163.950
   4149060.05449   3221882.85345  25221361.594    25221370.707    25221361.388
   1548710.31649   1204060.97047  21277511.362    21277518.308    21277511.219
   -325035.65449   -250333.03446  23861410.933    23861418.532    23861410.400
  -3051813.22449  -2348734.67845  24603122.733    24603133.429    24603123.350
  -2754259.57849  -2136184.11047  20497771.982    20497778.892    20497771.872
  -6755037.05349  -4214044.46045  24494883.131    24494892.575    24494883.282
   4013606.56449   3118736.27045  24202816.639    24202824.639    24202816.754
 99  5  7 15  7 30.0000000  0  8G26G 2G27G15G 4G 7G 9G13
  -1825453.65149  -1413784.91347  22625936.471    22625944.092    22625936.768
  -1103883.84949   -855406.98347  21292141.882    21292147.941    21292141.480
   1588486.09049   1235055.03147  21285080.443    21285087.430    21285080.333
   -315392.22149   -242818.70046  23863246.004    23863253.653    23863245.494
  -3186463.44749  -2453656.93245  24577499.824    24577510.411    24577500.281
  -2791117.91149  -2164904.87747  20490758.133    20490764.996    20490758.009
  -6883948.51749  -4314494.93145  24470352.174    24470361.308    24470352.246
   4086487.32949   3175526.42445  24216685.410    24216693.445    24216685.601
 99  5  7 15  8  0.0000000  0  8G26G 2G27G15G 4G 7G 9G13
  -1842844.83249  -1427336.50847  22622627.071    22622634.682    22622627.365
  -1119637.17349   -867682.29947  21289144.114    21289150.200    21289143.733
   1628683.55049   1266377.68747  21292729.773    21292736.797    21292729.677
   -305223.28649   -234894.88646  23865181.378    23865188.831    23865180.712
  -3321217.30649  -2558659.95045  24551857.052    24551867.681    24551857.480
  -2827531.14249  -2193278.81447  20483828.968    20483835.785    20483828.816
  -7012838.27649  -4414928.48245  24445825.274    24445834.198    24445825.351
   4159310.14749   3232271.41845  24230543.235    24230551.220    24230543.418
 99  5  7 15  8 30.0000000  0  8G26G 2G27G15G 4G 7G 9G13
  -1859718.01349  -1440484.46547  22619416.226    22619423.824    22619416.526
  -1135243.23049   -879842.86847  21286174.418    21286180.478    21286174.021
   1669310.21449   1298034.78147  21300460.819    21300467.854    21300460.703
   -294520.86949   -226555.35846  23867218.060    23867225.440    23867217.372
  -3456034.63749  -2663712.43145  24526202.259    24526212.871    24526202.607
  -2863486.31949  -2221295.82347  20476986.897    20476993.716    20476986.763
  -7141679.69249  -4515324.35945  24421307.569    24421316.352    24421307.649
   4232081.89949   3288976.61445  24244391.438    24244399.297    24244391.562
 99  5  7 15  9  0.0000000  0  8G26G 2G27G15G 4G 7G 9G13
  -1876067.47449  -1453224.33447  22616305.031    22616312.611    22616305.345
  -1150695.43949   -891883.55647  21283234.012    21283240.037    21283233.588
   1710382.36749   1330039.01247  21308276.642    21308283.701    21308276.523
   -283267.11149   -217786.23545  23869359.419    23869367.002    23869358.877
  -3590895.33149  -2768798.69845  24500539.122    24500549.726    24500539.522
  -2898969.18449  -2248944.79747  20470234.751    20470241.556    20470234.619
  -7270448.76749  -4615663.87445  24396803.606    24396812.259    24396803.718
   4304835.81849   3345667.90545  24258236.166    24258244.015    24258236.268
 99  5  7 15  9 30.0000000  0  8G26G 2G27G15G 4G 7G 9G13
  -1891911.08849  -1465570.03547  22613290.160    22613297.695    22613290.448
  -1166011.93449   -903818.48447  21280319.383    21280325.421    21280318.977
   1751891.40849   1362383.68347  21316175.620    21316182.676    21316175.471
   -271483.44549   -208604.21045  23871601.642    23871609.389    23871601.210
  -3725809.70149  -2873926.81645  24474865.667    24474876.290    24474866.140
  -2934026.84049  -2276262.44047  20463563.505    20463570.296    20463563.379
  -7399169.82249  -4715965.96945  24372308.853    24372317.435    24372308.936
   4377562.89249   3402338.27045  24272075.636    24272083.616    24272075.806
 99  5  7 15 10  0.0000000  0  8G26G 2G27G15G 4G 7G 9G13
  -1907269.13949  -1477537.36347  22610367.638    22610375.165    22610367.916
  -1181196.77249   -915650.82947  21277429.816    21277435.856    21277429.421
   1793814.22649   1395050.77247  21324153.300    21324160.400    21324153.145
   -259180.66349   -199017.66645  23873942.666    23873950.550    23873942.373
  -3860803.44449  -2979116.75845  24449177.177    24449187.822    24449177.640
  -2968683.16749  -2303267.35447  20456968.651    20456975.440    20456968.523
  -7527853.05849  -4816238.59245  24347821.227    24347829.810    24347821.342
   4450262.49049   3458987.23845  24285909.817    24285917.981    24285910.054
 99  5  7 15 10 30.0000000  0  8G26G 2G27G15G 4G 7G 9G13
  -1922174.27349  -1489151.78847  22607531.298    22607538.844    22607531.580
  -1196266.50149   -927393.47047  21274562.109    21274568.184    21274561.727
   1836132.22749   1428025.79347  21332206.193    21332213.308    21332206.038
   -246365.93249   -189032.20245  23876381.324    23876389.172    23876380.967
  -3995908.54049  -3084393.48245  24423467.547    24423478.200    24423468.053
  -3002952.33149  -2329970.59047  20450447.418    20450454.210    20450447.304
  -7656481.66349  -4916468.63745  24323343.997    24323352.684    24323344.142
   4522942.69849   3515621.09345  24299740.349    24299748.610    24299740.700
 99  5  7 15 11  0.0000000  0  8G26G 2G27G15G 4G 7G 9G13
  -1936629.59149  -1500415.68947  22604780.516    22604788.101    22604780.835
  -1211222.42549   -939047.43847  21271716.093    21271722.197    21271715.722
   1878843.28049   1461307.09247  21340333.929    21340341.001    21340333.725
   -233035.85649   -178645.15945  23878918.052    23878925.817    23878917.648
  -4131136.85349  -3189766.20945  24397734.365    24397745.162    24397734.899
  -3036835.63649  -2356373.15147  20443999.667    20444006.417    20443999.547
  -7785047.55849  -5016649.82245  24298878.591    24298887.454    24298878.828
   4595612.57949   3572246.91445  24313569.066    24313577.316    24313569.398
 99  5  7 15 11 30.0000000  0  8G26G 2G27G15G 4G 7G 9G13
  -1950611.24449  -1511310.51347  22602119.980    22602127.488    22602120.251
  -1226029.89349   -950585.72447  21268898.317    21268904.464    21268897.947
   1921959.71849   1494904.27447  21348538.790    21348545.845    21348538.572
   -219164.84049   -167836.62945  23881557.657    23881565.415    23881557.245
  -4266454.41949  -3295208.47645  24371984.181    24371995.135    24371984.799
  -3070308.67249  -2382456.02147  20437630.019    20437636.721    20437629.858
  -7913518.22249  -5116756.80045  24274431.339    24274440.404    24274431.602
   4668280.49749   3628871.20945  24327397.472    24327405.609    24327397.724
 99  5  7 15 12  0.0000000  0  8G26G 2G27G15G 4G 7G 9G13
  -1964156.86349  -1521865.56647  22599542.355    22599549.839    22599542.631
  -1240724.12649   -962035.78247  21266102.081    21266108.246    21266101.723
   1965440.15949   1528785.09747  21356812.944    21356819.948    21356812.701
   -204780.02649   -156627.72846  23884294.968    23884302.749    23884294.610
  -4401891.11449  -3400743.55245  24346211.379    24346222.425    24346211.944
  -3103385.61149  -2408230.24447  20431335.660    20431342.414    20431335.532
  -8041916.94349  -5216807.72345  24249997.740    24250006.966    24249998.062
   4740913.49849   3685468.27545  24341219.194    24341227.225    24341219.402
 99  5  7 15 12 30.0000000  0  8G26G 2G27G15G 4G 7G 9G13
  -1977247.28549  -1532065.92147  22597051.303    22597058.850    22597051.615
  -1255295.81049   -973390.34047  21263329.218    21263335.362    21263328.840
   2009296.19249   1562958.58947  21365158.507    21365165.512    21365158.277
   -189875.29649   -145013.71245  23887131.099    23887139.111    23887130.843
  -4537415.92349  -3506347.30045  24320421.852    24320432.980    24320422.408
  -3136055.39849  -2433687.20647  20425118.794    20425125.542    20425118.677
  -8170244.66149  -5316803.30645  24225577.665    24225587.003    24225578.001
   4813509.91149   3742036.84545  24355033.859    24355041.853    24355034.013
 99  5  7 15 13  0.0000000  0  8G26G 2G27G15G 4G 7G 9G13
  -1989854.08049  -1541889.42147  22594652.282    22594659.887    22594652.628
  -1269730.87049   -984638.44347  21260582.311    21260588.462    21260581.964
   2053533.01149   1597428.79447  21373576.479    21373583.516    21373576.289
   -174450.00849   -132994.06245  23890066.610    23890074.519    23890066.257
  -4673000.51449  -3611997.61445  24294620.860    24294632.125    24294621.497
  -3168322.81249  -2458830.62947  20418978.489    20418985.245    20418978.383
  -8298524.75049  -5416761.80245  24201166.723    24201176.140    24201167.015
   4886057.78749   3798567.57145  24368839.224    24368847.258    24368839.402
 99  5  7 15 13 30.0000000  0  8G26G 2G27G15G 4G 7G 9G13
  -2001951.76049  -1551316.21247  22592350.228    22592357.818    22592350.564
  -1284019.39749   -995772.35847  21257863.337    21257869.482    21257862.964
   2098170.06449   1632210.87347  21382070.573    21382077.683    21382070.445
   -158494.12249   -120560.96245  23893103.174    23893110.887    23893102.659
  -4808614.98149  -3717671.20045  24268814.260    24268825.546    24268814.923
  -3200166.07149  -2483643.54447  20412918.954    20412925.669    20412918.842
  -8426744.91049  -5516673.56245  24176767.149    24176776.660    24176767.415
   4958558.55749   3855061.61045  24382635.673    24382643.773    24382635.905
 99  5  7 15 14  0.0000000  0  8G26G 2G27G15G 4G 7G 9G13
  -2013543.85749  -1560349.04047  22590144.373    22590151.930    22590144.694
  -1298170.92349  -1006799.52947  21255170.399    21255176.548    21255170.036
   2143212.61549   1667308.92447  21390641.914    21390649.020    21390641.791
   -142017.62249   -107722.18545  23896238.657    23896246.283    23896238.090
  -4944259.36449  -3823368.08645  24243002.154    24243013.340    24243002.712
  -3231576.78449  -2508119.41147  20406941.721    20406948.424    20406941.595
  -8554897.32449  -5616532.54745  24152380.390    24152390.032    24152380.687
   5031004.54849   3911512.96245  24396421.710    24396429.859    24396421.941
 99  5  7 15 14 30.0000000  0  8G26G 2G27G15G 4G 7G 9G13
  -2024601.68649  -1568965.55247  22588040.115    22588047.727    22588040.472
  -1312160.83749  -1017700.76547  21252508.247    21252514.377    21252507.866
   2188706.26049   1702758.48247  21399299.105    21399306.205    21399298.979
   -125000.29849    -94461.98945  23899476.825    23899484.623    23899476.348
  -5079900.42649  -3929062.40645  24217190.551    24217201.802    24217191.102
  -3262536.09149  -2532243.53247  20401050.367    20401057.072    20401050.230
  -8682949.96349  -5716313.77945  24128012.624    24128022.447    24128012.955
   5103410.09349   3967932.80845  24410200.110    24410208.306    24410200.344
 99  5  7 15 15  0.0000000  0  8G26G 2G27G15G 4G 7G 9G13
  -2035157.81949  -1577191.13847  22586031.378    22586038.984    22586031.718
  -1326018.84249  -1028499.21747  21249871.185    21249877.290    21249870.791
   2234649.90249   1738558.67747  21408041.967    21408049.041    21408041.815
   -107468.53549    -80800.94245  23902813.009    23902820.823    23902812.532
  -5215575.45649  -4034783.20245  24191372.448    24191383.641    24191373.016
  -3293063.57849  -2556031.17047  20395241.184    20395247.889    20395241.053
  -8810916.09249  -5816027.59845  24103661.388    24103671.308    24103661.771
   5175743.82149   4024296.67945  24423964.935    24423973.060    24423965.124
 99  5  7 15 15 30.0000000  0  8G26G 2G27G15G 4G 7G 9G13
  -2045195.09149  -1585012.41447  22584121.429    22584128.957    22584121.714
  -1339710.25849  -1039167.85747  21247265.821    21247271.915    21247265.418
   2281067.17449   1774727.93847  21416874.945    21416881.995    21416874.796
    -89392.55849    -66715.82645  23906252.766    23906260.600    23906252.282
  -5351261.59649  -4140512.64545  24165552.360    24165563.364    24165552.819
  -3323119.95849  -2579451.71147  20389521.673    20389528.361    20389521.539
  -8938752.30749  -5915640.18545  24079335.000    24079344.860    24079335.351
   5248035.19149   4080627.55345  24437721.633    24437729.750    24437721.758
 99  5  7 15 16  0.0000000  0  8G26G 2G27G15G 4G 7G 9G13
  -2054757.82149  -1592463.92047  22582301.734    22582309.238    22582302.020
  -1353259.32949  -1049725.57547  21244687.550    21244693.622    21244687.139
   2327917.75449   1811234.84347  21425790.358    21425797.407    21425790.209
    -70809.36149    -52235.48045  23909789.268    23909796.891    23909788.682
  -5487009.06749  -4246289.87745  24139720.499    24139731.415    24139720.975
  -3352761.50349  -2602549.00247  20383881.063    20383887.727    20383880.938
  -9066505.38949  -6015188.00946  24055024.453    24055034.242    24055024.731
   5320244.11649   4136894.17745  24451462.446    24451470.738    24451462.681
 99  5  7 15 16 30.0000000  0  8G26G 2G27G15G 4G 7G 9G13
  -2063815.67849  -1599522.01447  22580578.063    22580585.604    22580578.384
  -1366645.05349  -1060156.01547  21242140.353    21242146.418    21242139.936
   2375218.82649   1848092.78147  21434791.488    21434798.550    21434791.345
    -51686.73249    -37334.78845  23913428.188    23913435.856    23913427.663
  -5622808.28149  -4352107.42145  24113878.912    24113889.674    24113879.319
  -3381981.84649  -2625318.08447  20378320.634    20378327.290    20378320.504
  -9194160.71549  -6114659.63846  24030732.528    24030742.253    24030732.734
   5392409.37949   4193126.76945  24465194.819    24465203.460    24465195.236
 99  5  7 15 17  0.0000000  0  8G26G 2G27G15G 4G 7G 9G13
  -2072403.78849  -1606214.07547  22578943.848    22578951.421    22578944.142
  -1379894.75449  -1070480.46047  21239619.089    21239625.111    21239618.640
   2422893.88749   1885242.13847  21443863.829    21443870.867    21443863.660
    -32058.20049    -22039.91145  23917163.328    23917171.061    23917162.895
  -5758699.95949  -4457997.00845  24088019.668    24088030.313    24088020.075
  -3410810.15649  -2647781.68947  20372834.797    20372841.427    20372834.659
  -9321758.00249  -6214086.03746  24006451.646    24006461.307    24006451.788
   5464501.50949   4249302.37845  24478913.492    24478922.214    24478913.996
 99  5  7 15 17 30.0000000  0  8G26G 2G27G15G 4G 7G 9G13
  -2080519.26049  -1612537.84547  22577399.591    22577407.141    22577399.863
  -1393011.96349  -1080701.66247  21237122.975    21237129.014    21237122.542
   2470915.49249   1922661.52047  21453002.056    21453009.114    21453001.900
    -11923.96649     -6350.95145  23920994.712    23921002.565    23920994.335
  -5894670.06849  -4563947.70445  24062145.487    24062156.065    24062145.843
  -3439249.64749  -2669942.31547  20367422.953    20367429.560    20367422.810
  -9449287.70149  -6313459.77846  23982183.596    23982193.205    23982183.683
   5536526.30849   4305425.52145  24492619.518    24492628.142    24492620.002
 99  5  7 15 18  0.0000000  0  8G26G 2G27G15G 4G 7G 9G13
  -2088131.34649  -1618469.36547  22575951.048    22575958.646    22575951.356
  -1405971.49049  -1090799.99447  21234656.863    21234662.923    21234656.434
   2519319.86849   1960379.16847  21462213.138    21462220.226    21462212.980
      8746.28449      9755.65445  23924928.161    23924936.003    23924927.759
  -6030682.31849  -4669931.24145  24036263.342    24036273.839    24036263.584
  -3467276.22549  -2691781.19147  20362089.654    20362096.263    20362089.526
  -9576706.87449  -6412747.41246  23957936.617    23957946.083    23957936.666
   5608523.80749   4361527.39545  24506320.374    24506328.912    24506320.751
 99  5  7 15 18 30.0000000  0  8G26G 2G27G15G 4G 7G 9G13
  -2095132.69949  -1623924.98947  22574618.756    22574626.343    22574619.071
  -1418666.75549  -1100692.41747  21232241.044    21232247.122    21232240.619
   2568205.50649   1998471.81847  21471515.831    21471522.920    21471515.643
     30060.27049     26363.92145  23928984.202    23928991.940    23928983.716
  -6166606.42049  -4775846.09245  24010397.946    24010408.331    24010398.160
  -3494768.01149  -2713203.34547  20356858.130    20356864.727    20356858.018
  -9703893.66549  -6511853.94946  23933733.868    23933743.217    23933733.856
   5680610.76249   4417698.97445  24520038.120    24520046.802    24520038.484
 99  5  7 15 19  0.0000000  0  8G26G 2G27G15G 4G 7G 9G13
  -2101637.14049  -1628993.40647  22573380.991    22573388.619    22573381.320
  -1431184.57649  -1110446.56947  21229858.963    21229865.081    21229858.561
   2617478.43049   2036866.26447  21480892.177    21480899.319    21480892.006
     51908.26149     43388.26545  23933141.903    23933149.580    23933141.349
  -6302523.72849  -4881755.66145  23984533.885    23984544.107    23984533.996
  -3521813.46049  -2734277.70547  20351711.521    20351718.105    20351711.408
  -9830942.46149  -6610852.96346  23909557.363    23909566.593    23909557.291
   5752663.03449   4473843.52645  24533749.222    24533758.048    24533749.631
 99  5  7 15 19 30.0000000  0  8G26G 2G27G15G 4G 7G 9G13
  -2107679.68449  -1633701.90547  22572231.152    22572238.773    22572231.476
  -1443553.21749  -1120084.46747  21227505.282    21227511.420    21227504.882
   2667142.57049   2075565.55047  21490342.944    21490350.148    21490342.801
     74259.04049     60804.39945  23937395.142    23937402.860    23937394.582
  -6438459.71149  -4987679.76445  23958666.151    23958676.298    23958666.286
  -3548451.24849  -2755034.41147  20346642.526    20346649.100    20346642.413
  -9957868.78549  -6709756.55346  23885404.109    23885413.279    23885404.058
   5824639.04549   4529928.65745  24547445.849    24547454.754    24547446.224
 99  5  7 15 19 59.9990000  0  8G26G 2G27G15G 4G 7G 9G13
  -2113281.13149  -1638066.69647  22571165.266    22571172.895    22571165.595
  -1455786.15549  -1129616.61847  21225177.423    21225183.566    21225177.040
   2717174.61449   2114551.51747  21499863.774    21499870.979    21499863.620
     97092.72649     78596.83345  23941740.326    23941748.038    23941739.792
  -6574441.42049  -5093639.48045  23932789.553    23932799.760    23932789.869
  -3574702.25449  -2775489.72447  20341647.145    20341653.695    20341647.025
 -10084692.76349  -6808580.38946  23861270.289    23861279.430    23861270.279
   5896504.71749   4585927.79245  24561121.539    24561130.378    24561121.893
 99  5  7 15 20 29.9990000  0  8G26G 2G27G15G 4G 7G 9G13
  -2118417.30149  -1642068.93847  22570187.944    22570195.530    22570188.252
  -1467872.08149  -1139034.22847  21222877.585    21222883.702    21222877.177
   2767593.15449   2153838.65547  21509458.144    21509465.353    21509457.979
    120428.34749     96780.37645  23946180.775    23946188.736    23946180.398
  -6710463.12149  -5199630.35945  23906905.388    23906915.581    23906905.834
  -3600539.18149  -2795622.38147  20336730.572    20336737.074    20336730.436
 -10211402.41449  -6907315.14546  23837158.219    23837167.332    23837158.226
   5968262.42849   4641842.77745  24574776.659    24574785.488    24574776.937
 99  5  7 15 20 59.9990000  0  8G26G 2G27G15G 4G 7G 9G13
  -2123086.79749  -1645707.53747  22569299.420    22569306.975    22569299.712
  -1479823.88949  -1148347.32547  21220603.239    21220609.369    21220602.857
   2818402.64249   2193430.41647  21519126.945    21519134.135    21519126.757
    144259.93449    115350.38745  23950715.771    23950723.868    23950715.431
  -6846534.68649  -5305660.08845  23881011.656    23881021.896    23881012.265
  -3625969.99749  -2815438.58747  20331891.276    20331897.746    20331891.120
 -10337997.90649  -7005960.94846  23813067.834    23813076.964    23813067.938
   6039904.65049   4697667.79245  24588409.804    24588418.616    24588410.091
 99  5  7 15 21 29.9990000  0  8G26G 2G27G15G 4G 7G 9G13
  -2127283.27549  -1648977.54347  22568500.845    22568508.439    22568501.155
  -1491648.10849  -1157561.00947  21218353.211    21218359.292    21218352.798
   2869586.71449   2233314.05747  21528867.088    21528874.177    21528866.831
    168590.25049    134309.01645  23955345.722    23955353.795    23955345.340
  -6982649.06249  -5411723.18245  23855110.036    23855120.129    23855110.575
  -3650995.75249  -2834939.16147  20327129.110    20327135.498    20327128.913
 -10464490.37049  -7104526.47546  23788997.087    23789006.167    23788997.204
   6111451.51149   4753418.51145  24602024.818    24602033.582    24602025.097
 99  5  7 15 21 59.9990000  0  8G26G 2G27G15G 4G 7G 9G13
  -2130983.89149  -1651861.17847  22567796.673    22567804.249    22567796.983
  -1503317.98149  -1166654.41947  21216132.503    21216138.589    21216132.096
   2921161.69849   2273502.30447  21538681.537    21538688.624    21538681.272
    193442.74649    153674.55545  23960075.083    23960083.132    23960074.667
  -7118759.58049  -5517783.26645  23829209.081    23829219.135    23829209.580
  -3675576.40849  -2854092.91247  20322451.570    20322457.942    20322451.378
 -10590868.69149  -7203003.05446  23764948.069    23764957.120    23764948.180
   6182939.72849   4809123.51945  24615628.514    24615637.314    24615628.864
 99  5  7 15 22 29.9990000  0  8G26G 2G27G15G 4G 7G 9G13
  -2134219.71649  -1654382.63447  22567180.976    22567188.503    22567181.275
  -1514847.71649  -1175638.62647  21213938.487    21213944.551    21213938.087
   2973125.70849   2313993.70447  21548569.991    21548577.117    21548569.733
    218788.07249    173424.10045  23964898.388    23964906.197    23964897.807
  -7254862.51649  -5623837.43845  23803309.516    23803319.614    23803309.994
  -3699742.42149  -2872923.56147  20317852.937    20317859.280    20317852.744
 -10717167.37449  -7301417.59546  23740914.256    23740923.189    23740914.349
   6254352.40949   4864769.66445  24629217.834    24629226.807    24629218.240
 99  5  7 15 22 59.9990000  0  8G26G 2G27G15G 4G 7G 9G13
  -2137023.94849  -1656567.77947  22566647.427    22566654.917    22566647.664
  -1526236.05149  -1184512.65547  21211771.375    21211777.444    21211770.964
   3025452.99349   2354768.17247  21558527.566    21558534.741    21558527.316
    244605.51549    193541.52445  23969811.475    23969819.239    23969810.790
  -7390962.77949  -5729889.53745  23777410.451    23777420.593    23777410.912
  -3723519.76149  -2891451.34547  20313328.263    20313334.572    20313328.065
 -10843411.83449  -7399789.87245  23716890.685    23716899.621    23716890.816
   6325673.29849   4920344.28045  24642789.581    24642798.815    24642790.189
 99  5  7 15 23 29.9990000  0  8G26G 2G27G15G 4G 7G 9G13
  -2139406.90349  -1658424.65547  22566193.985    22566201.480    22566194.229
  -1537462.51349  -1193260.54747  21209635.054    21209641.137    21209634.654
   3078143.47549   2395825.64247  21568554.280    21568561.496    21568554.033
    270903.41349    214033.32945  23974815.936    23974823.672    23974815.152
  -7527043.61049  -5835926.50045  23751515.104    23751525.287    23751515.566
  -3746904.77749  -2909673.42447  20308878.249    20308884.533    20308878.044
 -10969585.12049  -7498106.70245  23692880.670    23692889.575    23692880.790
   6396894.19149   4975840.98945  24656342.297    24656351.771    24656342.931
 99  5  7 15 23 59.9990000  0  8G26G 2G27G15G 4G 7G 9G13
  -2141377.45749  -1659960.18547  22565818.984    22565826.537    22565819.251
  -1548540.61849  -1201892.83647  21207526.943    21207533.052    21207526.563
   3131196.56349   2437165.65947  21578649.980    21578657.234    21578649.745
    297667.43349    234888.35945  23979908.859    23979916.831    23979908.229
  -7663128.50149  -5941966.61645  23725618.990    23725629.221    23725619.498
  -3769922.61149  -2927609.38747  20304498.075    20304504.380    20304497.903
 -11095674.49749  -7596358.12945  23668886.572    23668895.482    23668886.715
   6467985.77649   5031236.95245  24669870.634    24669880.076    24669871.250
 99  5  7 15 24 29.9990000  0  8G26G 2G27G15G 4G 7G 9G13
  -2142926.40849  -1661167.19047  22565524.304    22565531.813    22565524.536
  -1559469.54549  -1210408.88447  21205447.263    21205453.350    21205446.868
   3184609.01549   2478785.70047  21588814.079    21588821.332    21588813.843
    324903.09649    256110.91045  23985091.511    23985099.632    23985090.997
  -7799233.55649  -6048022.43845  23699719.096    23699729.328    23699719.537
  -3792583.76949  -2945267.42147  20300185.775    20300192.100    20300185.606
 -11221663.34649  -7694531.23945  23644911.607    23644920.551    23644911.752
   6538942.99349   5086528.20445  24683373.537    24683382.941    24683374.003
 99  5  7 15 24 59.9990000  0  8G26G 2G27G15G 4G 7G 9G13
  -2144056.21649  -1662047.59547  22565309.364    22565316.842    22565309.591
  -1570265.02649  -1218820.95647  21203392.996    21203399.056    21203392.586
   3238354.37649   2520665.15047  21599041.547    21599048.782    21599041.306
    352610.05549    277700.70145  23990363.999    23990372.048    23990363.494
  -7935379.06249  -6154109.77745  23673811.505    23673821.702    23673811.932
  -3814886.51549  -2962646.17847  20295941.674    20295948.039    20295941.521
 -11347533.65749  -7792611.96846  23620959.258    23620968.119    23620959.388
   6609761.37949   5141711.28945  24696850.038    24696859.274    24696850.291
 99  5  7 15 25 29.9990000  0  8G26G 2G27G15G 4G 7G 9G13
  -2144746.07449  -1662585.18247  22565178.106    22565185.555    22565178.340
  -1580931.78849  -1227132.72147  21201363.206    21201369.249    21201362.769
   3292456.64549   2562822.70547  21609336.914    21609344.113    21609336.670
    380797.21849    299664.66745  23995727.768    23995735.826    23995727.352
  -8071555.08349  -6260220.89845  23647898.173    23647908.248    23647898.513
  -3836824.26349  -2979740.51447  20291767.081    20291773.433    20291766.909
 -11473265.66849  -7890584.91946  23597033.216    23597042.015    23597033.369
   6680458.69649   5196800.04345  24710303.424    24710312.419    24710303.520
 99  5  7 15 25 59.9990000  0  8G26G 2G27G15G 4G 7G 9G13
  -2144968.21849  -1662758.32147  22565135.833    22565143.330    22565136.087
  -1591467.64149  -1235342.48447  21199358.287    21199364.356    21199357.866
   3346927.08949   2605267.15947  21619702.369    21619709.521    21619702.109
    409463.36649    322001.85745  24001182.982    24001190.720    24001182.489
  -8207757.11849  -6366352.28345  23621979.751    23621989.843    23621980.130
  -3858382.38049  -2996539.03847  20287664.708    20287671.054    20287664.538
 -11598864.17149  -7988453.83946  23573132.530    23573141.301    23573132.703
   6751046.79549   5251803.68645  24723735.900    24723745.018    24723736.073
 99  5  7 15 26 29.9990000  0  8G26G 2G27G15G 4G 7G 9G13
  -2144723.84849  -1662567.93247  22565182.387    22565189.875    22565182.620
  -1601863.32249  -1243443.01547  21197380.071    21197386.146    21197379.653
   3401765.47249   2647998.31847  21630137.834    21630144.950    21630137.546
    438614.18049    344716.75545  24006730.237    24006737.825    24006729.768
  -8343960.80149  -6472484.95445  23596060.996    23596071.061    23596061.436
  -3879544.03549  -3013028.63047  20283637.813    20283644.113    20283637.622
 -11724329.22449  -8086218.77646  23549257.258    23549265.985    23549257.403
   6821532.94849   5306727.87845  24737149.015    24737158.211    24737149.274
 99  5  7 15 26 59.9990000  0  8G26G 2G27G15G 4G 7G 9G13
  -2144032.36949  -1662029.14947  22565313.994    22565321.535    22565314.233
  -1612133.61949  -1251445.84847  21195425.745    21195431.798    21195425.306
   3456952.87749   2691001.44747  21640639.664    21640646.818    21640639.401
    468230.75949    367794.54745  24012366.087    24012373.730    24012365.612
  -8480158.61149  -6578613.05946  23570143.437    23570153.395    23570143.882
  -3900317.69449  -3029215.89247  20279684.658    20279690.992    20279684.497
 -11849671.02649  -8183887.67146  23525405.436    23525414.093    23525405.610
   6891905.71449   5361563.74045  24750540.794    24750549.874    24750540.816
 99  5  7 15 27 29.9990000  0  8G26G 2G27G15G 4G 7G 9G13
  -2142905.80249  -1661151.33747  22565528.459    22565535.984    22565528.653
  -1622281.84649  -1259353.56647  21193494.634    21193500.688    21193494.180
   3512488.73749   2734276.09947  21651207.788    21651214.985    21651207.538
    498296.12849    391222.03645  24018087.473    24018095.070    24018086.916
  -8616352.60849  -6684738.17746  23544226.555    23544236.509    23544227.026
  -3920709.36349  -3045105.49547  20275804.260    20275810.593    20275804.084
 -11974907.23649  -8281474.27546  23501573.725    23501582.329    23501573.930
   6962144.13649   5416294.90945  24763907.117    24763915.904    24763906.887
 99  5  7 15 27 59.9990000  0  8G26G 2G27G15G 4G 7G 9G13
  -2141358.33749  -1659945.55047  22565822.992    22565830.490    22565823.184
  -1632305.78049  -1267164.42947  21191587.187    21191593.225    21191586.714
   3568362.01249   2777813.66547  21661840.083    21661847.377    21661839.876
    528809.70549    414998.79945  24023894.038    24023901.763    24023893.433
  -8752532.58849  -6790852.38645  23518312.368    23518322.272    23518312.843
  -3940718.88149  -3060697.31647  20271996.607    20272002.898    20271996.414
 -12100039.37949  -8378979.79246  23477761.826    23477770.376    23477761.983
   7032236.17249   5470911.99945  24777245.374    24777254.136    24777245.118
 99  5  7 15 28 29.9990000  0  8G26G 2G27G15G 4G 7G 9G13
  -2139400.53449  -1658420.02347  22566195.583    22566203.026    22566195.774
  -1642190.40749  -1274866.74047  21189706.214    21189712.281    21189705.755
   3624580.72549   2821620.39947  21672538.222    21672545.499    21672537.996
    559786.95549    439136.82945  24029788.911    24029796.703    24029788.270
  -8888679.36049  -6896940.70845  23492404.549    23492414.343    23492404.964
  -3960342.82049  -3075988.69047  20268262.258    20268268.579    20268262.093
 -12225039.29249  -8476382.26346  23453975.088    23453983.590    23453975.223
   7102192.69249   5525423.48245  24790557.717    24790566.594    24790557.551
 99  5  7 15 28 59.9990000  0  8G26G 2G27G15G 4G 7G 9G13
  -2137042.15449  -1656582.36547  22566644.402    22566651.844    22566644.586
  -1651944.21049  -1282467.10647  21187850.140    21187856.205    21187849.682
   3681147.59449   2865698.41947  21683302.617    21683309.862    21683302.372
    591211.49049    463623.42745  24035768.904    24035776.677    24035768.277
  -9024812.32749  -7003018.28345  23466499.294    23466509.082    23466499.678
  -3979592.22449  -3090988.21847  20264599.212    20264605.561    20264599.041
 -12349921.37449  -8573692.91646  23430210.748    23430219.252    23430210.891
   7172003.77249   5579821.64445  24803842.543    24803851.384    24803842.320
 99  5  7 15 29 29.9990000  0  8G26G 2G27G15G 4G 7G 9G13
  -2134275.40949  -1654426.49447  22567170.894    22567178.372    22567171.126
  -1661566.90349  -1289965.30447  21186019.005    21186025.069    21186018.555
   3738078.81049   2910060.35247  21694136.365    21694143.548    21694136.093
    623086.23549    488460.86645  24041834.440    24041842.248    24041833.878
  -9160939.67449  -7109091.47045  23440594.991    23440604.938    23440595.461
  -3998466.60849  -3105695.52147  20261007.597    20261013.903    20261007.396
 -12474684.29049  -8670910.70646  23406469.074    23406477.635    23406469.227
   7241659.41249   5634098.68145  24817097.653    24817106.488    24817097.469
 99  5  7 15 29 59.9990000  0  8G26G 2G27G15G 4G 7G 9G13
  -2131091.53349  -1651945.59347  22567776.846    22567784.313    22567777.036
  -1671061.33949  -1297363.56947  21184212.241    21184218.352    21184211.812
   3795362.21249   2954696.71147  21705037.095    21705044.272    21705036.818
    655412.70049    513650.24545  24047985.871    24047993.761    24047985.390
  -9297059.87949  -7215159.08145  23414692.086    23414702.147    23414692.608
  -4016977.12149  -3120119.29247  20257485.196    20257491.455    20257484.972
 -12599319.62649  -8768029.09346  23382751.680    23382760.254    23382751.854
   7311161.41549   5688255.99245  24830323.424    24830332.269    24830323.383
 99  5  7 15 30 29.9990000  0  8G26G 2G27G15G 4G 7G 9G13
  -2127487.86349  -1649137.56347  22568462.647    22568470.133    22568462.833
  -1680424.85849  -1304659.81947  21182430.405    21182436.535    21182429.998
   3852977.16849   2999591.43447  21716000.903    21716008.082    21716000.621
    688180.54449    539183.57645  24054221.189    24054229.316    24054220.870
  -9433186.66249  -7321231.84145  23388787.821    23388798.083    23388788.424
  -4035128.78049  -3134263.43047  20254030.955    20254037.299    20254030.789
 -12723827.07749  -8865047.82046  23359058.642    23359067.227    23359058.856
   7380503.57549   5742288.74845  24843518.660    24843527.763    24843518.762
 99  5  7 15 30 59.9990000  0  8G26G 2G27G15G 4G 7G 9G13
  -2123477.03649  -1646012.27547  22569225.877    22569233.390    22569226.080
  -1689678.82949  -1311870.71647  21180669.434    21180675.582    21180669.019
   3910895.00149   3044722.15247  21727022.330    21727029.544    21727022.069
    721371.76449    565046.75245  24060537.462    24060545.459    24060536.995
  -9569330.40249  -7427317.80545  23362880.366    23362890.762    23362881.006
  -4052942.97449  -3148144.61347  20250641.015    20250647.342    20250640.857
 -12848228.42249  -8961983.87146  23335385.812    23335394.399    23335386.020
   7449660.78948   5796177.37645  24856678.395    24856687.980    24856678.963
 99  5  7 15 31 29.9990000  0  8G26G 2G27G15G 4G 7G 9G13
  -2119051.86949  -1642564.12147  22570067.933    22570075.480    22570068.173
  -1698812.28349  -1318987.70447  21178931.400    21178937.540    21178930.973
   3969105.01349   3090080.56347  21738099.382    21738106.632    21738099.097
    755001.65149    591251.78045  24066937.315    24066945.119    24066936.682
  -9705461.01849  -7533393.53845  23336975.518    23336985.916    23336976.103
  -4070419.15049  -3161762.40347  20247315.450    20247321.754    20247315.266
 -12972497.13949  -9058816.56046  23311738.219    23311746.851    23311738.478
   7518644.77948   5849931.01445  24869805.277    24869815.178    24869806.060
 99  5  7 15 31 59.9990000  0  8G26G 2G27G15G 4G 7G 9G13
  -2114216.46449  -1638796.30147  22570988.102    22570995.649    22570988.345
  -1707810.18549  -1325999.06347  21177219.167    21177225.307    21177218.743
   4027593.47549   3135655.93747  21749229.387    21749236.673    21749229.112
    789069.04949    617797.74645  24073420.300    24073428.002    24073419.621
  -9841560.98949  -7639445.38845  23311076.485    23311086.883    23311077.053
  -4087562.72249  -3175121.02347  20244053.124    20244059.451    20244052.938
 -13096622.12049  -9155537.25146  23288117.965    23288126.669    23288118.210
   7587462.28248   5903554.92545  24882900.707    24882910.763    24882901.633
 99  5  7 15 32 29.9990000  0  8G26G 2G27G15G 4G 7G 9G13
  -2109002.55649  -1634733.54947  22571980.362    22571987.843    22571980.566
  -1716692.57149  -1332920.41947  21175528.871    21175535.038    21175528.467
   4086345.14349   3181436.39647  21760409.486    21760416.791    21760409.217
    823551.52849    644667.12245  24079982.340    24079989.900    24079981.568
  -9977641.46049  -7745482.05645  23285181.129    23285191.489    23285181.723
  -4104386.86549  -3188230.73747  20240851.571    20240857.917    20240851.404
 -13220627.85049  -9252165.01046  23264520.439    23264529.160    23264520.701
   7656094.54449   5957034.48745  24895961.198    24895971.119    24895962.071
 99  5  7 15 32 59.9990000  0  8G26G 2G27G15G 4G 7G 9G13
  -2103393.14449  -1630362.61347  22573047.920    22573055.335    22573048.064
  -1725452.57849  -1339746.41147  21173861.873    21173868.062    21173861.490
   4145394.64049   3227448.93547  21771646.309    21771653.574    21771646.016
    858464.41649    671871.89645  24086625.905    24086633.588    24086625.207
 -10113680.21549  -7851486.20645  23259293.744    23259304.046    23259294.363
  -4120874.31449  -3201078.09447  20237714.106    20237720.440    20237713.935
 -13344502.83049  -9348690.89346  23240947.791    23240956.534    23240948.036
   7724562.31049   6010385.88845  24908990.655    24909000.144    24908991.122
 99  5  7 15 33 29.9990000  0  8G26G 2G27G15G 4G 7G 9G13
  -2097392.96049  -1625687.17047  22574189.742    22574197.196    22574189.893
  -1734093.70649  -1346479.76047  21172217.540    21172223.694    21172217.147
   4204738.18149   3273690.58647  21782939.114    21782946.319    21782938.800
    893792.47749    699400.18845  24093348.592    24093356.370    24093347.936
 -10249689.50849  -7957467.38745  23233412.019    23233422.188    23233412.586
  -4137026.54649  -3213664.23947  20234640.454    20234646.748    20234640.272
 -13468258.40449  -9445123.73246  23217397.889    23217406.601    23217398.088
   7792854.91349   6063600.78245  24921986.758    24921995.864    24921986.876
 99  5  7 15 33 59.9990000  0  8G26G 2G27G15G 4G 7G 9G13
  -2091014.92449  -1620717.31447  22575403.393    22575410.965    22575403.600
  -1742612.69349  -1353117.92847  21170596.467    21170602.570    21170596.035
   4264382.74649   3320166.81647  21794289.115    21794296.354    21794288.842
    929527.43849    727245.53045  24100148.749    24100156.625    24100148.042
 -10385685.36049  -8063438.09245  23207532.877    23207542.962    23207533.396
  -4152846.44449  -3225991.42647  20231629.932    20231636.277    20231629.787
 -13591909.65949  -9541475.27446  23193867.785    23193876.579    23193867.983
   7860956.70049   6116666.97845  24934946.470    24934955.309    24934946.321
 99  5  7 15 34 29.9990000  0  8G26G 2G27G15G 4G 7G 9G13
  -2084254.31749  -1615449.34247  22576689.944    22576697.511    22576690.139
  -1751004.91949  -1359657.33347  21168999.483    21169005.587    21168999.063
   4324351.93749   3366895.98847  21805700.938    21805708.139    21805700.627
    965679.50449    755415.89645  24107028.275    24107036.125    24107027.637
 -10521665.45049  -8169396.52545  23181656.766    23181666.707    23181657.199
  -4168319.12349  -3238048.05647  20228685.554    20228691.907    20228685.416
 -13715458.25749  -9637746.83946  23170357.219    23170366.072    23170357.450
   7928870.38849   6169586.59645  24947869.982    24947878.903    24947869.931
 99  5  7 15 34 59.9990000  0  8G26G 2G27G15G 4G 7G 9G13
  -2077105.55649  -1609878.91747  22578050.399    22578057.915    22578050.556
  -1759255.56549  -1366086.42047  21167429.428    21167435.544    21167429.015
   4384662.44249   3413891.11547  21817177.587    21817184.898    21817177.363
   1002254.95349    783916.20045  24113988.481    24113996.336    24113987.838
 -10657624.47949  -8275338.55946  23155784.627    23155794.437    23155785.033
  -4183444.85249  -3249834.33347  20225807.251    20225813.590    20225807.095
 -13838885.21649  -9733923.61746  23146869.832    23146878.679    23146870.040
   7996596.87049   6222360.36645  24960757.725    24960766.878    24960757.883
 99  5  7 15 35 29.9990000  0  8G26G 2G27G15G 4G 7G 9G13
  -2069574.21649  -1604010.37747  22579483.640    22579491.095    22579483.782
  -1767349.03849  -1372393.03847  21165889.289    21165895.397    21165888.896
   4445313.85549   3461151.89446  21828719.219    21828726.531    21828718.977
   1039253.34349    812746.00345  24121029.044    24121036.997    24121028.423
 -10793559.35049  -8381261.75346  23129917.105    23129926.813    23129917.444
  -4198230.83549  -3261355.87147  20222993.541    20222999.907    20222993.408
 -13962172.87849  -9829991.86046  23123409.016    23123417.788    23123409.191
   8064127.38349   6274981.41145  24973608.428    24973617.590    24973608.582
 99  5  7 15 35 59.9990000  0  8G26G 2G27G15G 4G 7G 9G13
  -2061686.97549  -1597864.51047  22580984.532    22580992.006    22580984.702
  -1775311.07249  -1378597.22947  21164374.151    21164380.265    21164373.768
   4506281.35149   3508658.96546  21840321.021    21840328.333    21840320.760
   1076651.37449    841887.26645  24128145.739    24128153.740    24128145.133
 -10929492.85349  -8487183.87946  23104049.823    23104059.476    23104050.106
  -4212706.50249  -3272635.60847  20220238.931    20220245.270    20220238.764
 -14085332.24749  -9925960.13646  23099972.555    23099981.276    23099972.716
   8131446.22449   6327437.53845  24986418.852    24986427.978    24986419.096
 99  5  7 15 36 29.9990000  0  8G26G 2G27G15G 4G 7G 9G13
  -2053436.26749  -1591435.42247  22582554.611    22582562.100    22582554.794
  -1783164.98449  -1384717.17947  21162879.626    21162885.712    21162879.218
   4567547.26449   3556398.57346  21851979.682    21851986.913    21851979.369
   1114443.90049    871335.90245  24135337.461    24135345.594    24135336.908
 -11065420.96449  -8593101.80946  23078183.465    23078193.153    23078183.824
  -4226863.78249  -3283667.24947  20217544.862    20217551.200    20217544.697
 -14208347.19549 -10021815.87146  23076563.595    23076572.267    23076563.765
   8198558.94849   6379733.04145  24999190.248    24999199.186    24999190.430
 99  5  7 15 36 59.9990000  0  8G26G 2G27G15G 4G 7G 9G13
  -2044823.52149  -1584724.22647  22584193.577    22584201.124    22584193.783
  -1790910.15649  -1390752.38647  21161405.780    21161411.854    21161405.361
   4629084.65849   3604349.71446  21863690.053    21863697.178    21863689.637
   1152625.94149    901088.02745  24142603.328    24142611.446    24142602.698
 -11201330.48749  -8699005.23946  23052320.743    23052330.383    23052321.108
  -4240704.54649  -3294452.25347  20214911.005    20214917.392    20214910.868
 -14331207.45349 -10117551.08046  23053184.093    23053192.667    23053184.222
   8265466.39149   6431868.57345  25011922.717    25011931.339    25011922.670
 99  5  7 15 37 29.9990000  0  8G26G 2G27G15G 4G 7G 9G13
  -2035854.43749  -1577735.37047  22585900.385    22585907.893    22585900.586
  -1798555.25349  -1396709.61547  21159950.948    21159957.044    21159950.547
   4690871.29149   3652495.06846  21875447.685    21875454.869    21875447.320
   1191194.13049    931141.08645  24149942.734    24149950.749    24149942.048
 -11337213.36849  -8804887.90546  23026463.066    23026472.672    23026463.439
  -4254222.90149  -3304986.02847  20212338.568    20212344.960    20212338.401
 -14453926.09949 -10213175.94846  23029831.529    23029840.049    23029831.666
   8332166.65349   6483842.66945  25024615.784    25024624.161    25024615.560
 99  5  7 15 37 59.9990000  0  8G26G 2G27G15G 4G 7G 9G13
  -2026521.45449  -1570462.95347  22587676.491    22587683.944    22587676.643
  -1806107.56849  -1402594.53847  21158513.814    21158519.889    21158513.389
   4752905.02749   3700832.97446  21887252.325    21887259.589    21887251.975
   1230151.02049    961497.00145  24157356.029    24157364.133    24157355.321
 -11473052.09549  -8910736.17946  23000613.862    23000623.312    23000614.128
  -4267405.05749  -3315257.83547  20209830.078    20209836.472    20209829.910
 -14576513.87749 -10308698.82646  23006503.902    23006512.356    23006503.975
   8398661.72649   6535656.90145  25037269.521    25037277.909    25037269.368
 99  5  7 15 38 29.9990000  0  7G26G 2G27G15G 4G 7G 9
  -2016825.76049  -1562907.90747  22589521.500    22589529.027    22589521.698
  -1813559.60449  -1408401.33247  21157095.793    21157101.818    21157095.346
   4815190.44849   3749366.99846  21899104.815    21899112.211    21899104.528
   1269492.80149    992152.86645  24164842.721    24164850.678    24164841.972
 -11608835.12149  -9016541.03646  22974775.183    22974784.603    22974775.466
  -4280244.88349  -3325262.89047  20207386.774    20207393.154    20207386.578
 -14698971.26049 -10404120.10246  22983201.081    22983209.467    22983201.115
 99  5  7 15 38 59.9990000  0  7G26G 2G27G15G 4G 7G 9
  -2006763.91849  -1555067.55947  22591436.201    22591443.753    22591436.414
  -1820875.02349  -1414101.66447  21155703.773    21155709.744    21155703.294
   4877755.39449   3798118.82146  21911010.559    21911017.990    21911010.280
   1309224.64649   1023112.67545  24172403.464    24172411.491    24172402.741
 -11744554.63849  -9122296.42346  22948948.564    22948957.924    22948948.860
  -4292746.12849  -3335004.11747  20205007.849    20205014.264    20205007.651
 -14821303.46049 -10499443.83246  22959922.032    22959930.364    22959922.044
 99  5  7 15 39 29.9990000  0  7G26G 2G27G15G 4G 7G 9
  -1996309.68449  -1546921.44747  22593425.609    22593433.143    22593425.821
  -1828034.76149  -1419680.69447  21154341.341    21154347.308    21154340.855
   4940637.47449   3847117.77046  21922976.701    21922984.114    21922976.393
   1349360.83649   1054387.53045  24180041.096    24180049.267    24180040.423
 -11880207.28649  -9227999.67546  22923134.675    22923144.038    22923134.986
  -4304891.77849  -3344468.25347  20202696.543    20202703.021    20202696.380
 -14943480.25849 -10594646.47446  22936672.517    22936680.830    22936672.550
 99  5  7 15 39 59.9990000  0  7G26G 2G27G15G 4G 7G 9
  -1985472.32349  -1538476.79747  22595488.002    22595495.465    22595488.163
  -1835050.35049  -1425147.40147  21153006.386    21153012.283    21153005.860
   5003823.33249   3896353.42846  21935000.626    21935008.017    21935000.309
   1389880.90849   1085961.51945  24187751.794    24187759.979    24187751.157
 -12015804.66149  -9333659.87146  22897331.246    22897340.628    22897331.572
  -4316703.58749  -3353672.26147  20200448.821    20200455.337    20200448.652
 -15065492.37349 -10689720.78046  22913454.368    22913462.674    22913454.393
 99  5  7 15 40 29.9990000  0  7G26G 2G27G15G 4G 7G 9
  -1974263.07749  -1529742.35947  22597621.074    22597628.589    22597621.232
  -1841913.26849  -1430495.13247  21151700.444    21151706.327    21151699.914
   5067311.48049   3945824.62346  21947082.085    21947089.455    21947081.768
   1430786.37749   1117835.78945  24195535.758    24195544.181    24195535.286
 -12151349.28649  -9439278.95846  22871537.811    22871547.280    22871538.191
  -4328195.05149  -3362626.64247  20198262.037    20198268.562    20198261.874
 -15187314.46549 -10784647.02046  22890272.362    22890280.650    22890272.381
 99  5  7 15 40 59.9990000  0  7G26G 2G27G15G 4G 7G 9
  -1962675.33549  -1520712.99247  22599826.133    22599833.728    22599826.306
  -1848615.85149  -1435717.93747  21150424.964    21150430.843    21150424.469
   5131094.42649   3995525.52746  21959219.677    21959226.991    21959219.336
   1472088.58249   1150019.19945  24203395.274    24203403.943    24203394.841
 -12286830.37349  -9544848.54246  22845756.533    22845766.077    22845756.970
  -4339366.70949  -3371331.82847  20196136.147    20196142.676    20196135.980
 -15308944.90849 -10879423.92146  22867126.833    22867135.121    22867126.851
 99  5  7 15 41 29.9990000  0  7G26G 2G27G15G 4G 7G 9
  -1950747.58549  -1511418.68246  22602095.892    22602103.563    22602096.105
  -1855210.69749  -1440856.78347  21149170.007    21149175.884    21149169.520
   5195114.48549   4045411.20146  21971402.400    21971409.662    21971402.000
   1513750.46749   1182482.94945  24211323.552    24211332.005    24211322.993
 -12422264.20349  -9650381.30346  22819984.231    22819993.879    22819984.678
  -4350253.69549  -3379815.18847  20194064.412    20194070.935    20194064.241
 -15430417.72649 -10974078.00446  22844011.296    22844019.557    22844011.319
 99  5  7 15 41 59.9990000  0  7G26G 2G27G15G 4G 7G 9
  -1938490.99549  -1501868.13647  22604428.330    22604436.007    22604428.504
  -1861699.53949  -1445913.03447  21147935.203    21147941.109    21147934.742
   5259368.32149   4095479.05046  21983629.532    21983636.834    21983629.155
   1555778.56349   1215232.01045  24219321.304    24219329.772    24219320.735
 -12557625.17249  -9755857.27746  22794225.702    22794235.489    22794226.233
  -4360867.47649  -3388085.66247  20192044.666    20192051.215    20192044.485
 -15551741.89349 -11068616.24346  22820924.023    22820932.273    22820924.074
 99  5  7 15 42 29.9990000  0  7G26G 2G27G15G 4G 7G 9
  -1925899.50849  -1492056.63747  22606824.409    22606832.110    22606824.603
  -1868077.04349  -1450882.52447  21146721.640    21146727.508    21146721.159
   5323865.52049   4145736.53646  21995903.031    21995910.333    21995902.638
   1598180.88649   1248272.68245  24227390.528    24227398.768    24227389.774
 -12692906.99049  -9861271.60446  22768482.378    22768492.148    22768482.858
  -4371208.60749  -3396143.68347  20190076.794    20190083.369    20190076.617
 -15672936.89849 -11163053.84246  22797861.325    22797869.557    22797861.417
 99  5  7 15 42 59.9990000  0  7G26G 2G27G15G 4G 7G 9
  -1912952.58849  -1481968.16547  22609288.184    22609295.843    22609288.365
  -1874331.53149  -1455756.16047  21145531.465    21145537.303    21145530.989
   5388619.26149   4196193.91046  22008225.362    22008232.663    22008224.936
   1640967.84549   1281613.04345  24235532.964    24235540.891    24235532.100
 -12828082.49849  -9966603.06646  22742759.248    22742769.053    22742759.746
  -4381250.51449  -3403968.54747  20188165.839    20188172.442    20188165.689
 -15793999.31249 -11257388.12146  22774823.875    22774832.063    22774823.947
 99  5  7 15 43 29.9990000  0  7G26G 2G27G15G 4G 7G 9
  -1899688.16749  -1471632.29847  22611812.367    22611820.006    22611812.533
  -1880494.97949  -1460558.84947  21144358.622    21144364.454    21144358.132
   5453622.55449   4246845.74146  22020595.102    22020602.476    22020594.719
   1684108.93049   1315229.37845  24243742.436    24243750.307    24243741.620
 -12963170.92649 -10071866.68246  22717052.723    22717062.475    22717053.231
  -4391026.21149  -3411585.97147  20186305.577    20186312.188    20186305.419
 -15914928.70949 -11351618.75546  22751811.697    22751819.925    22751811.782
 99  5  7 15 43 59.9990000  0  7G26G 2G27G15G 4G 7G 9
  -1886092.89349  -1461038.62046  22614399.481    22614407.142    22614399.649
  -1886546.48249  -1465274.31047  21143207.079    21143212.894    21143206.595
   5518910.04749   4297719.02846  22033018.933    22033026.377    22033018.578
   1727621.34549   1349135.03545  24252022.557    24252030.471    24252021.768
 -13098162.99849 -10177055.22046  22691364.600    22691374.234    22691365.038
  -4400521.43049  -3418984.84247  20184498.714    20184505.329    20184498.537
 -16035693.39649 -11445721.03946  22728830.826    22728839.121    22728830.943
 99  5  7 15 44 29.9990000  0  7G26G 2G27G15G 4G 7G 9
  -1872174.07849  -1450192.83346  22617048.172    22617055.876    22617048.347
  -1892484.50749  -1469901.35547  21142077.142    21142082.934    21142076.645
   5584467.57449   4348802.73546  22045494.165    22045501.648    22045493.809
   1771488.46849   1383317.04445  24260370.084    24260378.278    24260369.380
 -13233069.28749 -10282176.90246  22665692.710    22665702.280    22665693.191
  -4409726.47249  -3426157.60147  20182747.053    20182753.656    20182746.876
 -16156292.28649 -11539694.13346  22705881.439    22705889.883    22705881.664
 99  5  7 15 44 59.9990000  0  7G26G 2G27G15G 4G 7G 9
  -1857954.31549  -1439112.54046  22619754.014    22619761.873    22619754.262
  -1898315.55549  -1474445.03947  21140967.575    21140973.343    21140967.064
   5650282.10549   4400086.69746  22058018.263    22058025.796    22058017.956
   1815694.21349   1417762.97245  24268782.213    24268790.400    24268781.549
 -13367904.25349 -10387243.02046  22640034.304    22640043.910    22640034.904
  -4418647.62349  -3433109.14747  20181049.412    20181055.998    20181049.224
 -16276707.76649 -11633524.30946  22682966.988    22682975.496    22682967.234
 99  5  7 15 45 29.9980000  0  7G26G 2G27G15G 4G 7G 9
  -1843411.59149  -1427780.58046  22622521.373    22622529.309    22622521.651
  -1904009.25049  -1478881.69247  21139884.102    21139889.887    21139883.608
   5716370.22349   4451583.84446  22070594.516    22070602.023    22070594.191
   1860258.90449   1452488.65545  24277262.538    24277270.819    24277261.934
 -13502652.14749 -10492241.27746  22614392.517    22614402.093    22614393.144
  -4427265.68949  -3439824.51947  20179409.471    20179416.021    20179409.265
 -16396906.80749 -11727185.83646  22660093.780    22660102.302    22660094.045
 99  5  7 15 45 59.9980000  0  7G26G 2G27G15G 4G 7G 9
  -1828543.87449  -1416195.39547  22625350.645    22625358.581    22625350.901
  -1909558.63549  -1483205.89747  21138828.103    21138833.902    21138827.612
   5782706.34749   4503274.24346  22083217.957    22083225.439    22083217.623
   1905176.85149   1487489.48445  24285809.901    24285818.644    24285809.409
 -13637340.22349 -10597192.93946  22588762.169    22588771.699    22588762.776
  -4435565.67549  -3446292.04347  20177830.022    20177836.582    20177829.824
 -16516922.00249 -11820704.10446  22637255.632    22637264.119    22637255.862
 99  5  7 15 46 29.9980000  0  7G26G 2G27G15G 4G 7G 9
  -1813365.25149  -1404367.93647  22628239.122    22628247.007    22628239.338
  -1914957.22349  -1487412.59347  21137800.815    21137806.579    21137800.324
   5849265.13249   4555138.14346  22095883.850    22095891.227    22095883.448
   1950441.82349   1522760.80045  24294423.493    24294432.340    24294423.038
 -13771967.25949 -10702097.02246  22563143.525    22563152.955    22563144.062
  -4443545.95349  -3452510.44347  20176311.423    20176317.975    20176311.207
 -16636751.77149 -11914077.88246  22614452.763    22614461.261    22614452.980
 99  5  7 15 46 59.9980000  0  7G26G 2G27G15G 4G 7G 9
  -1797873.05249  -1392296.13946  22631187.245    22631195.108    22631187.453
  -1920202.35449  -1491499.71447  21136802.779    21136808.478    21136802.249
   5916059.08649   4607185.29346  22108594.470    22108601.763    22108593.990
   1996064.44549   1558310.79745  24303105.136    24303114.240    24303104.872
 -13906534.15349 -10806954.23346  22537536.203    22537545.705    22537536.785
  -4451205.29349  -3458478.76047  20174853.848    20174860.429    20174853.650
 -16756385.49449 -12007298.90446  22591687.207    22591695.686    22591687.402
 99  5  7 15 47 29.9980000  0  7G26G 2G27G15G 4G 7G 9
  -1782088.42749  -1379996.46946  22634190.987    22634198.859    22634191.198
  -1925321.65349  -1495488.79247  21135828.674    21135834.348    21135828.125
   5983059.36649   4659393.21446  22121344.283    22121351.594    22121343.806
   2042017.00449   1594117.84545  24311849.772    24311858.855    24311849.431
 -14041056.16049 -10911776.49346  22511937.519    22511946.952    22511938.043
  -4458572.72549  -3464219.61647  20173451.918    20173458.423    20173451.703
 -16875864.42549 -12100399.30646  22568951.165    22568959.552    22568951.305
 99  5  7 15 47 59.9980000  0  7G26G 2G27G15G 4G 7G 9
  -1766006.04449  -1367464.78246  22637251.361    22637259.235    22637251.583
  -1930313.00749  -1499378.17047  21134878.879    21134884.559    21134878.324
   6050281.04949   4711773.65746  22134136.242    22134143.544    22134135.763
   2088306.19949   1630187.25745  24320658.421    24320667.468    24320657.987
 -14175505.63649 -11016542.20746  22486352.671    22486362.029    22486353.130
  -4465645.79549  -3469731.10247  20172105.999    20172112.455    20172105.747
 -16995178.39149 -12193371.16446  22546246.440    22546254.846    22546246.587
 99  5  7 15 48 29.9980000  0  7G26G 2G27G15G 4G 7G 9
  -1749617.24249  -1354694.33146  22640370.098    22640377.950    22640370.284
  -1935188.19349  -1503177.02547  21133951.153    21133956.906    21133950.632
   6117733.41149   4764333.85646  22146972.020    22146979.428    22146971.577
   2134933.47549   1666520.08145  24329531.543    24329540.503    24329530.952
 -14309857.54749 -11121231.90146  22460786.333    22460795.627    22460786.762
  -4472442.01649  -3475026.85747  20170812.731    20170819.166    20170812.479
 -17114319.44749 -12286208.29046  22523574.606    22523583.016    22523574.746
 99  5  7 15 48 59.9980000  0  7G26G 2G27G15G 4G 7G 9
  -1732902.43749  -1341669.85446  22643550.916    22643558.717    22643551.076
  -1939949.11049  -1506886.83747  21133045.207    21133050.965    21133044.686
   6185427.47249   4817082.38346  22159853.787    22159861.311    22159853.380
   2181898.22449   1703115.88045  24338468.923    24338477.743    24338468.193
 -14444091.48549 -11225829.66546  22435242.460    22435251.689    22435242.847
  -4478958.79949  -3480104.86947  20169572.613    20169579.077    20169572.377
 -17233292.97849 -12378914.87946  22500934.670    22500943.062    22500934.803
 99  5  7 15 49 29.9980000  0  7G26G 2G27G15G 4G 7G 9
  -1715864.99349  -1328393.96946  22646793.088    22646800.885    22646793.248
  -1944597.20649  -1510508.73947  21132160.777    21132166.491    21132160.226
   6253349.06749   4870008.21446  22172778.940    22172786.485    22172778.504
   2229191.16249   1739967.43645  24347468.580    24347477.410    24347467.866
 -14578187.64049 -11330320.08146  22409724.678    22409733.939    22409725.142
  -4485206.83249  -3484973.47047  20168383.693    20168390.109    20168383.428
 -17352104.40449 -12471495.14346  22478325.547    22478333.942    22478325.675
 99  5  7 15 49 59.9980000  0  7G26G 2G27G15G 4G 7G 9
  -1698515.65749  -1314875.05046  22650094.583    22650102.399    22650094.737
  -1949130.23549  -1514040.97547  21131298.227    21131303.900    21131297.650
   6321491.88749   4923106.41546  22185746.148    22185753.763    22185745.728
   2276811.71549   1777074.25845  24356530.679    24356539.429    24356529.928
 -14712148.76149 -11434705.26746  22384232.549    22384241.902    22384233.075
  -4491185.15549  -3489631.90947  20167246.080    20167252.486    20167245.808
 -17470748.16849 -12563944.77546  22455748.396    22455756.756    22455748.491
 99  5  7 15 50 29.9980000  0  7G26G 2G27G15G 4G 7G 9
  -1680838.10549  -1301100.37746  22653458.518    22653466.386    22653458.692
  -1953520.11649  -1517461.66547  21130462.858    21130468.564    21130462.291
   6389871.65949   4976389.28146  22198758.465    22198766.108    22198758.032
   2324777.09149   1814449.73945  24365658.444    24365667.085    24365657.599
 -14845964.03849 -11538976.80646  22358768.188    22358777.602    22358768.757
  -4496869.91949  -3494061.59447  20166164.341    20166170.736    20166164.059
 -17589198.53849 -12656243.69646  22433208.009    22433216.340    22433208.111
 99  5  7 15 50 59.9980000  0  7G26G 2G27G15G 4G 7G 9
  -1662848.26749  -1287082.37346  22656881.914    22656889.776    22656882.077
  -1957752.96649  -1520759.99947  21129657.346    21129663.119    21129656.823
   6458494.88849   5029861.82846  22211817.123    22211824.776    22211816.673
   2373088.92049   1852095.23845  24374851.766    24374860.612    24374851.039
 -14979637.72249 -11643138.02446  22333330.820    22333340.243    22333331.399
  -4502250.19849  -3498254.02047  20165140.542    20165146.925    20165140.242
 -17707435.49649 -12748376.32646  22410708.166    22410716.522    22410708.307
 99  5  7 15 51 29.9980000  0  7G26G 2G27G15G 4G 7G 9
  -1644562.37249  -1272833.67946  22660361.654    22660369.448    22660361.813
  -1961830.47049  -1523937.28347  21128881.435    21128887.221    21128880.905
   6527345.77649   5083511.77946  22224919.033    22224926.707    22224918.608
   2421739.24249   1890004.48945  24384109.663    24384118.453    24384108.913
 -15113178.92349 -11747196.01446  22307918.635    22307928.069    22307919.245
  -4507333.06449  -3502214.70047  20164173.317    20164179.701    20164173.028
 -17825451.55249 -12840336.82546  22388250.472    22388258.735    22388250.589
 99  5  7 15 51 59.9980000  0  7G26G 2G27G15G 4G 7G 9
  -1625978.65849  -1258352.91046  22663898.083    22663905.802    22663898.232
  -1965747.55049  -1526989.56247  21128136.037    21128141.869    21128135.512
   6596429.72949   5137343.32546  22238065.354    22238073.023    22238064.891
   2470728.85749   1928178.09445  24393432.137    24393441.080    24393431.386
 -15246588.37449 -11851151.33946  22282531.669    22282541.000    22282532.227
  -4512112.21149  -3505938.71247  20163263.923    20163270.282    20163263.614
 -17943232.31149 -12932113.97946  22365837.537    22365845.715    22365837.638
 99  5  7 15 52 29.9980000  0  7G26G 2G27G15G 4G 7G 9
  -1607098.83049  -1243641.40546  22667490.860    22667498.554    22667490.986
  -1969516.13749  -1529926.14047  21127418.899    21127424.758    21127418.387
   6665736.47049   5191348.48146  22251254.008    22251261.698    22251253.580
   2520042.66549   1966604.27245  24402816.443    24402825.229    24402815.649
 -15379864.84349 -11955003.03846  22257169.992    22257179.238    22257170.501
  -4516606.22649  -3509440.54847  20162408.784    20162415.096    20162408.460
 -18060776.92349 -13023707.12346  22343469.558    22343477.620    22343469.629
 99  5  7 15 52 59.9980000  0  7G26G 2G27G15G 4G 7G 9
  -1587896.87849  -1228678.89546  22671144.916    22671152.641    22671145.039
  -1973117.61649  -1532732.50047  21126733.539    21126739.439    21126733.045
   6735269.46849   5245529.93846  22264485.819    22264493.459    22264485.328
   2569697.13849   2005295.96845  24412265.475    24412274.254    24412264.702
 -15512977.58649 -12058727.16846  22231839.407    22231848.630    22231839.926
  -4520791.83749  -3512702.07247  20161612.311    20161618.604    20161611.966
 -18178063.60149 -13115099.27746  22321150.650    22321158.603    22321150.702
 99  5  7 15 53 29.9980000  0  7G26G 2G27G15G 4G 7G 9
  -1568378.23649  -1213469.60646  22674859.220    22674866.983    22674859.359
  -1976569.01949  -1535421.91847  21126076.757    21126082.674    21126076.278
   6805006.18849   5299870.13546  22277756.396    22277764.000    22277755.879
   2619673.18749   2044238.22645  24421775.784    24421784.451    24421774.924
 -15645941.45249 -12162335.29346  22206537.127    22206546.383    22206537.675
  -4524704.08549  -3515750.58247  20160867.832    20160874.139    20160867.501
 -18295120.04049 -13206312.02246  22298875.533    22298883.405    22298875.599
 99  5  7 15 53 59.9980000  0  6G26G 2G27G 4G 7G 9
  -1548542.44449  -1198013.19246  22678633.938    22678641.637    22678634.024
  -1979886.20349  -1538006.75647  21125445.526    21125451.454    21125445.053
   6874951.97849   5354373.24446  22291066.693    22291074.330    22291066.209
 -15778765.83849 -12265834.72746  22181261.452    22181270.668    22181261.978
  -4528366.02749  -3518604.05347  20160170.991    20160177.282    20160170.665
 -18411954.41249 -13297351.73246  22276642.717    22276650.512    22276642.750
 99  5  7 15 54 29.9980000  0  6G26G 2G27G 4G 7G 9
  -1528381.50549  -1182303.42546  22682470.488    22682478.203    22682470.588
  -1983067.13349  -1540485.42947  21124840.269    21124846.191    21124839.761
   6945114.63049   5409045.33746  22304418.328    22304425.950    22304417.815
 -15911438.31349 -12369215.78446  22156014.702    22156023.864    22156015.185
  -4531768.80349  -3521255.57547  20159523.484    20159529.762    20159523.143
 -18528562.57649 -13388215.17946  22254452.914    22254460.655    22254452.926
 99  5  7 15 54 59.9980000  0  6G26G 2G27G 4G 7G 9
  -1507924.13749  -1166362.66746  22686363.443    22686371.132    22686363.516
  -1986124.67049  -1542867.94947  21124258.451    21124264.411    21124257.934
   7015487.81549   5463881.47246  22317810.081    22317817.596    22317809.499
 -16043970.93849 -12472487.88546  22130794.548    22130803.669    22130795.022
  -4534923.20349  -3523713.55447  20158923.270    20158929.489    20158922.918
 -18644965.71349 -13478918.86246  22232302.144    22232309.794    22232302.112
 99  5  7 15 55 29.9980000  0  6G26G 2G27G 4G 7G 9
  -1487171.00649  -1150191.44146  22690312.643    22690320.329    22690312.749
  -1989048.07349  -1545145.93847  21123702.101    21123708.117    21123701.618
   7086107.25449   5518909.50346  22331248.555    22331256.055    22331248.027
 -16176348.60149 -12575639.21446  22105603.970    22105612.959    22105604.360
  -4537828.89249  -3525977.73547  20158370.354    20158376.538    20158369.988
 -18761149.47249 -13569451.60646  22210193.107    22210200.709    22210193.049
 99  5  7 15 55 59.9980000  0  6G26G 2G27G 4G 7G 9
  -1466136.17749  -1133800.71246  22694315.510    22694323.180    22694315.616
  -1991837.99149  -1547319.92347  21123171.165    21123177.246    21123170.693
   7156966.50149   5574124.39146  22344732.686    22344740.180    22344732.182
 -16308569.38549 -12678668.31246  22080443.146    22080452.065    22080443.544
  -4540465.08049  -3528031.91647  20157868.717    20157874.895    20157868.360
 -18877109.77849 -13659810.23047  22188126.522    22188134.154    22188126.485
 99  5  7 15 56 29.9980000  0  6G26G 2G27G 4G 7G 9
  -1444830.78749  -1117199.15846  22698369.808    22698377.480    22698369.922
  -1994466.15049  -1549367.85947  21122671.055    21122677.142    21122670.575
   7228067.58749   5629527.72846  22358262.973    22358270.322    22358262.373
 -16440616.48649 -12781562.07946  22055315.372    22055324.229    22055315.761
  -4542797.95749  -3529849.74847  20157424.795    20157430.960    20157424.448
 -18992833.90749 -13749984.82147  22166104.873    22166112.563    22166104.865
 99  5  7 15 56 59.9980000  0  6G26G 2G27G 4G 7G 9
  -1423277.50249  -1100404.43346  22702471.362    22702478.994    22702471.430
  -1996924.32249  -1551283.34547  21122203.323    21122209.393    21122202.822
   7299399.69049   5685111.08346  22371837.120    22371844.437    22371836.522
 -16572504.70349 -12884332.03346  22030217.817    22030226.659    22030218.219
  -4544839.33049  -3531440.43447  20157036.353    20157042.511    20157036.014
 -19108327.76149 -13839979.97247  22144126.948    22144134.787    22144127.018
 99  5  7 15 57 29.9980000  0  6G26G 2G27G 4G 7G 9
  -1401467.64649  -1083409.79146  22706621.673    22706629.338    22706621.774
  -1999196.40949  -1553053.82247  21121770.993    21121777.052    21121770.472
   7370959.10649   5740871.56146  22385454.463    22385461.840    22385453.909
 -16704231.33949 -12986976.08946  22005151.013    22005159.807    22005151.433
  -4546588.91849  -3532803.75747  20156703.440    20156709.555    20156703.085
 -19223578.72649 -13929785.86447  22122195.202    22122203.209    22122195.373
 99  5  7 15 57 59.9980000  0  6G26G 2G27G 4G 7G 9
  -1379406.01949  -1066218.95846  22710819.858    22710827.560    22710819.986
  -2001286.97849  -1554682.87247  21121373.193    21121379.260    21121372.657
   7442714.38849   5796784.68046  22399109.201    22399116.485    22399108.559
 -16835799.02949 -13089496.28046  21980114.471    21980123.239    21980114.896
  -4548054.30349  -3533945.62547  20156424.664    20156430.698    20156424.258
 -19338596.87949 -14019410.35247  22100307.889    22100315.944    22100308.072
 99  5  7 15 58 29.9980000  0  6G26G 2G27G 4G 7G 9
  -1357086.66649  -1048827.30846  22715067.112    22715074.851    22715067.239
  -2003192.43649  -1556167.66947  21121010.600    21121016.679    21121010.069
   7514671.08949   5852854.73046  22412802.102    22412809.535    22412801.526
 -16967184.21649 -13191874.25846  21955112.651    21955121.366    21955113.062
  -4549247.88249  -3534875.69347  20156197.573    20156203.553    20156197.125
 -19453375.25949 -14108847.99547  22078466.197    22078474.320    22078466.402
 99  5  7 15 58 59.9980000  0  6G26G 2G27G 4G 7G 9
  -1334476.15149  -1031208.77346  22719369.818    22719377.541    22719369.921
  -2004908.73549  -1557505.06847  21120683.990    21120690.106    21120683.456
   7586836.25849   5909087.22046  22426534.656    22426542.222    22426534.144
 -17098358.31749 -13294087.76346  21930150.977    21930159.640    21930151.396
  -4550172.29449  -3535596.02547  20156021.745    20156027.630    20156021.246
 -19567888.77249 -14198079.25847  22056674.996    22056683.125    22056675.157
 99  5  7 15 59 29.9980000  0  6G26G 2G27G 4G 7G 9
  -1311589.58949  -1013375.14146  22723725.011    22723732.747    22723725.121
  -2006484.62249  -1558733.05247  21120384.116    21120390.255    21120383.587
   7659161.40049   5965444.35446  22440297.715    22440305.352    22440297.244
 -17229338.20449 -13396149.93046  21905226.227    21905234.888    21905226.667
  -4550857.36049  -3536129.85247  20155891.402    20155897.280    20155890.899
 -19682161.87949 -14287123.18847  22034929.609    22034937.684    22034929.698
 99  5  7 15 59 59.9980000  0  6G26G 2G27G 4G 7G 9
  -1288394.04149   -995300.73846  22728138.929    22728146.722    22728139.079
  -2007905.10149  -1559839.95447  21120113.771    21120119.966    21120113.274
   7731670.29049   6021944.68046  22454095.790    22454103.483    22454095.290
 -17360091.57649 -13498035.60546  21880344.584    21880353.241    21880345.068
  -4551270.94449  -3536452.13647  20155812.735    20155818.584    20155812.216
 -19796165.04349 -14375956.78147  22013235.513    22013243.561    22013235.597
 99  5  7 16  0 29.9980000  0  6G26G 2G27G 4G 7G 9
  -1264924.33749   -977012.71646  22732605.082    22732612.882    22732605.233
  -2009205.89249  -1560853.59147  21119866.276    21119872.457    21119865.781
   7804342.73849   6078572.44946  22467924.901    22467932.707    22467924.466
 -17490657.13049 -13599774.90946  21855498.672    21855507.341    21855499.177
  -4551439.29949  -3536583.33147  20155780.756    20155786.561    20155780.210
 -19909917.54349 -14464595.04047  21991589.135    21991597.152    21991589.199
 99  5  7 16  0 59.9980000  0  6G26G 2G27G 4G 7G 9
  -1241168.79649   -958501.95646  22737125.662    22737133.442    22737125.797
  -2010376.65949  -1561765.90747  21119643.544    21119649.665    21119643.010
   7877189.87049   6135336.31946  22481787.308    22481795.208    22481786.871
 -17621044.83649 -13701375.62946  21830686.643    21830695.294    21830687.143
  -4551350.87749  -3536514.43947  20155797.631    20155803.390    20155797.081
 -20023402.55249 -14553024.86347  21969993.599    21970001.606    21969993.669
 99  5  7 16  1 29.9980000  0  6G26G 2G27G 4G 7G 9
  -1217155.28249   -939790.17346  22741695.409    22741703.122    22741695.480
  -2011430.02749  -1562586.74047  21119443.156    21119449.240    21119442.588
   7950199.62749   6192226.92946  22495680.723    22495688.613    22495680.273
 -17751283.67249 -13802860.35346  21805902.976    21805911.573    21805903.476
  -4551021.23449  -3536257.58647  20155860.367    20155866.140    20155859.822
 -20136639.68449 -14641261.53647  21948445.263    21948453.227    21948445.329
 99  5  7 16  1 59.9980000  0  6G26G 2G27G 4G 7G 9
  -1192894.78549   -920885.93946  22746312.070    22746319.816    22746312.150
  -2012356.38149  -1563308.60447  21119266.870    21119272.990    21119266.321
   8023398.24149   6249264.69346  22509610.017    22509617.972    22509609.572
 -17881369.88449 -13904226.14846  21781148.362    21781156.918    21781148.840
  -4550448.48749  -3535811.29647  20155969.350    20155975.147    20155968.813
 -20249626.09849 -14729302.84647  21926944.639    21926952.522    21926944.687
 99  5  7 16  2 29.9980000  0  6G26G 2G27G 4G 7G 9
  -1168402.60549   -901801.16946  22750972.765    22750980.607    22750972.874
  -2013149.36349  -1563926.54047  21119115.946    21119122.125    21119115.419
   8096778.35549   6306443.88646  22523573.905    22523581.884    22523573.414
 -18011294.39949 -14005465.94146  21756424.533    21756433.026    21756424.983
  -4549638.36849  -3535180.04347  20156123.516    20156129.292    20156122.979
 -20362350.72849 -14817140.15947  21905493.768    21905501.629    21905493.854
 99  5  7 16  2 59.9980000  0  7G26G 2G24G27G 4G 7G 9
  -1143681.49049   -882538.02246  22755677.008    22755685.005    22755677.170
  -2013795.52749  -1564430.07947  21118992.955    21118999.193    21118992.460
  -1903700.70859  -1447491.15255  24388855.373    24388867.264    24388855.031
   8170323.36549   6363751.56646  22537569.244    22537577.177    22537568.642
 -18141044.14949 -14106569.56746  21731733.937    21731742.397    21731734.386
  -4548592.22349  -3534364.87647  20156322.615    20156328.387    20156322.066
 -20474815.41849 -14904774.93147  21884092.459    21884100.203    21884092.509
 99  5  7 16  3 29.9980000  0  7G26G 2G24G27G 4G 7G 9
  -1118715.71349   -863084.22846  22760427.867    22760435.911    22760428.014
  -2014267.65349  -1564798.00147  21118903.186    21118909.398    21118902.651
  -2046933.15649  -1559100.79245  24361598.849    24361610.925    24361598.729
   8244052.49549   6421202.70746  22551599.480    22551607.486    22551598.931
 -18270577.89949 -14207504.87546  21707084.400    21707092.878    21707084.880
  -4547280.99249  -3533343.15247  20156572.119    20156577.924    20156571.585
 -20587000.01349 -14992191.44147  21862744.425    21862752.098    21862744.460
 99  5  7 16  3 59.9980000  0  7G26G 2G24G27G 4G 7G 9
  -1093494.33749   -843431.25746  22765227.423    22765235.410    22765227.526
  -2014550.75549  -1565018.63147  21118849.378    21118855.559    21118848.820
  -2190280.60649  -1670800.01945  24334320.628    24334332.773    24334320.566
   8317972.87549   6478802.88546  22565666.118    22565674.229    22565665.578
 -18399865.13849 -14308248.09346  21682481.816    21682490.279    21682482.277
  -4545695.05949  -3532107.37047  20156873.897    20156879.738    20156873.384
 -20698889.37549 -15079377.90247  21841452.567    21841460.181    21841452.590
 99  5  7 16  4 29.9980000  0  7G26G 2G24G27G 4G 7G 9
  -1068028.49049   -823587.79646  22770073.519    22770081.457    22770073.592
  -2014662.01049  -1565105.35847  21118828.229    21118834.377    21118827.664
  -2333762.76849  -1782604.23145  24307016.822    24307028.934    24307016.752
   8392043.40349   6536520.05746  22579761.344    22579769.522    22579760.821
 -18528921.61449 -14408811.49846  21657923.169    21657931.596    21657923.595
  -4543865.24249  -3530681.55447  20157222.109    20157227.945    20157221.592
 -20810499.38649 -15166346.68047  21820213.789    21820221.445    21820213.861
 99  5  7 16  4 59.9980000  0  7G26G 2G24G27G 4G 7G 9
  -1042308.31049   -803546.15346  22774967.996    22774975.893    22774968.025
  -2014604.78249  -1565060.80247  21118839.182    21118845.304    21118838.598
  -2477388.43349  -1894520.26145  24279685.627    24279697.741    24279685.596
   8466279.75949   6594366.44346  22593888.181    22593896.352    22593887.635
 -18657741.80949 -14509190.78946  21633409.461    21633417.876    21633409.886
  -4541792.20349  -3529066.20747  20157616.624    20157622.450    20157616.099
 -20921839.19749 -15253104.91847  21799026.508    21799034.159    21799026.568
 99  5  7 16  5 29.9980000  0  7G26G 2G24G27G 4G 7G 9
  -1016337.00249   -783308.82846  22779910.168    22779918.138    22779910.226
  -2014389.92849  -1564893.41947  21118880.145    21118886.226    21118879.543
  -2621132.73449  -2006528.73445  24252331.911    24252344.024    24252331.883
   8540701.91349   6652357.61846  22608050.429    22608058.500    22608049.825
 -18786313.04849 -14609376.09146  21608943.096    21608951.507    21608943.521
  -4539477.80949  -3527262.79447  20158057.071    20158062.864    20158056.521
 -21032900.47549 -15339646.11747  21777892.239    21777899.887    21777892.269
 99  5  7 16  5 59.9980000  0  7G26G 2G24G27G 4G 7G 9
   -990128.63449   -762886.77146  22784897.468    22784905.492    22784897.558
  -2014036.58249  -1564618.11747  21118947.433    21118953.504    21118946.831
  -2764990.14549  -2118625.34045  24224956.752    24224968.793    24224956.693
   8615300.85149   6710486.52546  22622246.362    22622254.273    22622245.659
 -18914649.26449 -14709378.25546  21584521.379    21584529.859    21584521.875
  -4536943.60749  -3525288.10247  20158539.292    20158545.113    20158538.768
 -21143693.99849 -15425978.67647  21756808.938    21756816.581    21756808.968
 99  5  7 16  6 29.9980000  0  7G26G 2G24G27G 4G 7G 9
   -963704.70949   -742296.74546  22789925.788    22789933.878    22789925.902
  -2013547.60549  -1564237.12747  21119040.505    21119046.574    21119039.919
  -2908960.67949  -2230810.11245  24197560.293    24197572.051    24197560.060
   8690074.27549   6768751.40046  22636475.423    22636483.216    22636474.697
 -19042757.80649 -14809203.00946  21560143.097    21560151.518    21560143.565
  -4534188.66649  -3523141.40747  20159063.534    20159069.366    20159063.017
 -21254217.46949 -15512100.80547  21735777.039    21735784.662    21735777.040
 99  5  7 16  6 59.9980000  0  7G26G 2G24G27G 4G 7G 9
   -937122.65149   -721583.51346  22794984.262    22794992.313    22794984.353
  -2012953.65049  -1563774.34947  21119153.601    21119159.619    21119152.985
  -3053060.82149  -2343095.84345  24170139.109    24170150.707    24170138.745
   8764998.04949   6827133.44446  22650733.001    22650740.804    22650732.321
 -19170675.37449 -14908878.96246  21535801.116    21535809.526    21535801.576
  -4531244.06649  -3520846.93047  20159623.914    20159629.721    20159623.390
 -21364500.40549 -15598035.51047  21714790.908    21714798.501    21714790.894
 99  5  7 16  7 29.9980000  0  7G26G 2G24G27G 4G 7G 9
   -910358.30449   -700728.22446  22800077.490    22800085.476    22800077.513
  -2012204.44549  -1563190.58747  21119296.211    21119302.217    21119295.597
  -3197252.82049  -2455453.15245  24142700.244    24142711.878    24142699.848
   8840094.00849   6885649.64446  22665023.359    22665031.120    22665022.692
 -19298375.05849 -15008385.12746  21511500.623    21511508.981    21511501.070
  -4528072.94549  -3518375.94047  20160227.419    20160233.192    20160226.866
 -21474500.21649 -15683749.59247  21693858.604    21693866.181    21693858.605
 99  5  7 16  7 59.9980000  0  7G26G 2G24G27G 4G 7G 9
   -883391.00649   -679714.81446  22805209.303    22805217.181    22805209.290
  -2011282.05149  -1562471.88147  21119471.804    21119477.749    21119471.173
  -3341544.44349  -2567888.08745  24115242.398    24115254.103    24115241.908
   8915353.96649   6944293.63646  22679344.910    22679352.686    22679344.303
 -19425851.34549 -15107717.22246  21487242.618    21487250.981    21487243.075
  -4524670.52449  -3515724.71747  20160874.904    20160880.646    20160874.349
 -21584205.24049 -15769233.98247  21672982.391    21672989.961    21672982.371
 99  5  7 16  8 29.9980000  0  7G26G 2G24G27G 4G 7G 9
   -856199.98849   -658527.06246  22810383.609    22810391.465    22810383.609
  -2010174.10349  -1561608.58047  21119682.682    21119688.601    21119682.046
  -3485931.81849  -2680397.61645  24087766.281    24087777.984    24087765.780
   8990776.75549   7003064.52445  22693697.438    22693705.251    22693696.886
 -19553089.80549 -15206863.99046  21463029.841    21463038.232    21463030.329
  -4521022.83649  -3512882.37047  20161569.064    20161574.799    20161568.496
 -21693596.61049 -15854473.95147  21652165.860    21652173.399    21652165.838
 99  5  7 16  8 59.9970000  0  7G26G 2G24G27G 4G 7G 9
   -828765.00149   -637149.20446  22815604.278    22815612.209    22815604.316
  -2008879.12649  -1560599.55247  21119929.170    21119935.043    21119928.517
  -3630404.35349  -2792973.53345  24060273.769    24060285.798    24060273.555
   9066350.34249   7061952.89946  22708078.742    22708086.528    22708078.144
 -19680083.43449 -15305819.97646  21438863.730    21438872.090    21438864.167
  -4517130.25649  -3509849.20847  20162309.816    20162315.549    20162309.243
 -21802674.69449 -15939469.81147  21631408.974    21631416.455    21631408.946
 99  5  7 16  9 29.9970000  0  7G26G 2G24G27G 4G 7G 9
   -801067.49449   -615566.79346  22820874.911    22820882.921    22820875.008
  -2007400.14949  -1559447.13847  21120210.664    21120216.516    21120210.006
  -3774979.05149  -2905629.08145  24032761.934    24032774.082    24032761.914
   9142066.68449   7120952.51545  22722487.143    22722495.022    22722486.588
 -19806827.17049 -15404581.26446  21414745.197    21414753.508    21414745.609
  -4512987.36249  -3506620.99047  20163098.200    20163103.941    20163097.624
 -21911445.78349 -16024226.44747  21610710.505    21610717.896    21610710.451
 99  5  7 16  9 59.9970000  0  7G26G 2G24G27G 4G 7G 9
   -773080.07149   -593758.46746  22826200.794    22826208.849    22826200.877
  -2005719.61049  -1558137.66747  21120530.494    21120536.336    21120529.833
  -3919625.56249  -3018340.57845  24005236.431    24005248.646    24005236.568
   9217937.36049   7180072.38445  22736924.957    22736932.831    22736924.375
 -19933284.36649 -15503119.26046  21390681.134    21390689.426    21390681.559
  -4508571.69849  -3503180.22747  20163938.513    20163944.204    20163937.915
 -22019877.81249 -16108718.88947  21590076.488    21590083.862    21590076.469
 99  5  7 16 10 29.9970000  0  7G26G 2G24G27G 4G 7G 9
   -744849.37249   -571760.57646  22831573.074    22831581.097    22831573.085
  -2003847.23049  -1556678.70947  21120886.811    21120892.654    21120886.147
  -4064369.01649  -3131127.63045  23977692.728    23977704.726    23977692.785
   9293941.02149   7239295.89945  22751388.153    22751395.981    22751387.536
 -20059481.07849 -15601454.28246  21366666.608    21366674.914    21366667.044
  -4503910.00749  -3499547.75447  20164825.620    20164831.305    20164825.027
 -22127995.64549 -16192966.50047  21569502.251    21569509.608    21569502.255
 99  5  7 16 10 59.9970000  0  7G26G 2G24G27G 4G 7G 9
   -716421.11249   -549608.75446  22836982.884    22836990.911    22836982.862
  -2001785.92849  -1555072.53447  21121279.094    21121284.924    21121278.431
  -4209235.35349  -3244010.43645  23950125.734    23950137.461    23950125.578
   9370067.19349   7298614.85545  22765874.641    22765882.483    22765873.976
 -20185427.78949 -15699594.50146  21342699.651    21342707.952    21342700.099
  -4499025.79049  -3495741.88147  20165755.105    20165760.732    20165754.493
 -22235813.94749 -16276980.71547  21548985.068    21548992.365    21548985.075
 99  5  7 16 11 29.9970000  0  7G26G 2G24G27G 4G 7G 9
   -687796.17149   -527303.65846  22842430.155    22842438.116    22842430.099
  -1999517.42349  -1553304.91347  21121710.810    21121716.649    21121710.154
  -4354215.38149  -3356981.84545  23922537.003    23922548.595    23922536.795
   9446345.00949   7358051.98445  22780389.979    22780397.845    22780389.305
 -20311110.60149 -15797529.09047  21318782.896    21318791.203    21318783.370
  -4493913.46349  -3491758.26247  20166727.976    20166733.589    20166727.359
 -22343314.08549 -16360747.01647  21528528.481    21528535.721    21528528.461
 99  5  7 16 11 59.9970000  0  8G26G 2G24G27G 4G 7G 5G 9
   -658997.51049   -504863.19246  22847910.361    22847918.315    22847910.334
  -1997047.44449  -1551380.30147  21122180.860    21122186.717    21122180.219
  -4499316.05049  -3470047.25445  23894925.376    23894936.741    23894925.044
   9522778.62349   7417610.51945  22794934.943    22794942.880    22794934.277
 -20436544.29449 -15895269.55147  21294913.626    21294921.875    21294914.083
  -4488597.25949  -3487615.78247  20167739.648    20167745.251    20167739.021
  -1250633.57959   -678637.94455  24487904.266    24487914.113    24487903.688
 -22450510.45049 -16444276.61347  21508129.711    21508136.886    21508129.659
 99  5  7 16 12 29.9970000  0  8G26G 2G24G27G 4G 7G 5G 9
   -630062.21949   -482316.27346  22853416.562    22853424.478    22853416.577
  -1994419.42249  -1549332.52647  21122681.015    21122686.863    21122680.351
  -4644541.29349  -3583209.75245  23867289.989    23867301.100    23867289.564
   9599355.17149   7477280.40945  22809507.076    22809515.090    22809506.384
 -20561738.68649 -15992823.55547  21271089.979    21271098.102    21271090.375
  -4483101.62849  -3483333.48747  20168785.444    20168791.034    20168784.832
  -1368835.33949   -770743.13945  24465411.353    24465420.966    24465410.727
 -22557431.98349 -16527592.05447  21487783.233    21487790.354    21487783.160
 99  5  7 16 12 59.9970000  0  8G26G 2G24G27G 4G 7G 5G 9
   -600952.53149   -459633.45146  22858956.027    22858963.882    22858956.021
  -1991638.62749  -1547165.71047  21123210.232    21123216.073    21123209.562
  -4789839.50149  -3696429.08645  23839640.683    23839651.666    23839640.190
   9676091.70149   7537074.95945  22824109.660    22824117.729    22824109.004
 -20686658.52749 -16090163.61747  21247318.511    21247326.620    21247318.883
  -4477390.33949  -3478883.14747  20169872.299    20169877.854    20169871.678
  -1487118.59149   -862911.86045  24442902.527    24442912.511    24442902.072
 -22664055.78449 -16610675.48947  21467493.404    21467500.466    21467493.319
 99  5  7 16 13 29.9970000  0  8G26G 2G24G27G 4G 7G 5G 9
   -571656.12649   -436805.14046  22864531.013    22864538.824    22864530.974
  -1988732.94949  -1544901.58047  21123763.190    21123769.070    21123762.527
  -4935209.23249  -3809704.16745  23811977.632    23811988.596    23811977.185
   9752957.51549   7596970.25945  22838736.892    22838745.000    22838736.224
 -20811314.29049 -16187297.91447  21223597.266    21223605.345    21223597.659
  -4471481.82849  -3474279.12647  20170996.641    20171002.193    20170996.041
  -1605501.02649   -955157.84445  24420374.768    24420385.311    24420374.457
 -22770399.85549 -16693540.95847  21447256.753    21447263.805    21447256.681
 99  5  7 16 13 59.9970000  0  8G26G 2G24G27G 4G 7G 5G 9
   -542156.78949   -413818.69646  22870144.646    22870152.401    22870144.579
  -1985692.79049  -1542532.66947  21124341.742    21124347.652    21124341.084
  -5080622.27649  -3923013.00045  23784306.232    23784317.318    23784305.881
   9829932.33949   7656950.49445  22853384.964    22853392.954    22853384.168
 -20935688.26149 -16284212.63847  21199929.620    21199937.684    21199930.019
  -4465358.54549  -3469507.75647  20172161.861    20172167.442    20172161.269
  -1723979.39449  -1047478.62545  24397828.904    24397839.773    24397828.618
 -22876451.57449 -16776178.62047  21427075.729    21427082.806    21427075.675
 99  5  7 16 14 29.9970000  0  8G26G 2G24G27G 4G 7G 5G 9
   -512425.44649   -390651.48046  22875802.370    22875810.173    22875802.308
  -1982489.80649  -1540036.88147  21124951.289    21124957.235    21124950.618
  -5226055.33349  -4036337.42945  23756631.091    23756642.261    23756630.800
   9907020.26649   7717018.85545  22868054.418    22868062.427    22868053.637
 -21059758.89449 -16380890.99347  21176319.757    21176327.776    21176320.114
  -4458990.09749  -3464545.35047  20173373.763    20173379.368    20173373.168
  -1842531.56149  -1139856.89645  24375269.157    24375279.993    24375268.917
 -22982171.11249 -16858557.44547  21406957.902    21406965.023    21406957.875
 99  5  7 16 14 59.9970000  0  8G26G 2G24G27G 4G 7G 5G 9
   -482450.11949   -367294.14546  22881506.494    22881514.388    22881506.453
  -1979083.49349  -1537382.65547  21125599.525    21125605.500    21125598.860
  -5371527.88749  -4149692.66745  23728948.349    23728959.576    23728948.347
   9984210.46849   7777166.91745  22882743.300    22882751.351    22882742.549
 -21183540.33149 -16477344.00147  21152764.812    21152772.883    21152765.219
  -4452385.47049  -3459398.90547  20174630.604    20174636.212    20174629.999
  -1961164.16349  -1232297.81145  24352694.323    24352704.852    24352693.971
 -23087541.12149 -16940663.90347  21386906.653    21386913.751    21386906.618
 99  5  7 16 15 29.9970000  0  8G26G 2G24G27G 4G 7G 5G 9
   -452264.28849   -343772.79146  22887250.644    22887258.631    22887250.648
  -1975468.77649  -1534566.03147  21126287.414    21126293.430    21126286.752
  -5517065.50149  -4263098.61744  23701253.389    23701264.554    23701253.395
  10061490.23149   7837384.78345  22897449.017    22897457.263    22897448.446
 -21307052.91549 -16573587.51847  21129261.100    21129269.144    21129261.496
  -4445574.93349  -3454092.00947  20175926.640    20175932.227    20175926.028
  -2079896.72249  -1324816.62145  24330100.574    24330110.598    24330100.029
 -23192565.03649 -17022500.68647  21366921.285    21366928.339    21366921.210
 99  5  7 16 15 59.9970000  0  8G26G 2G24G27G 4G 7G 5G 9
   -421906.76849   -320117.64246  22893027.526    22893035.569    22893027.527
  -1971650.70649  -1531590.96047  21127014.011    21127020.036    21127013.324
  -5662675.58349  -4376560.97745  23673544.543    23673555.954    23673544.630
  10138866.39049   7897677.74445  22912173.226    22912181.549    22912172.671
 -21430308.91949 -16669631.10247  21105806.281    21105814.191    21105806.632
  -4438555.42749  -3448622.27947  20177262.460    20177268.005    20177261.813
  -2198727.15849  -1417411.68945  24307487.720    24307497.832    24307487.257
 -23297235.32749 -17104061.91547  21347003.211    21347010.170    21347003.118
 99  5  7 16 16 29.9970000  0  8G26G 2G24G27G 4G 7G 5G 9
   -391385.57349   -296334.95446  22898835.516    22898843.637    22898835.578
  -1967645.58849  -1528470.13647  21127776.223    21127782.242    21127775.533
  -5808372.87349  -4490091.26645  23645819.129    23645830.695    23645819.285
  10216352.25049   7958056.19845  22926918.314    22926926.724    22926917.805
 -21553309.21949 -16765475.43347  21082400.094    21082407.916    21082400.434
  -4431340.15849  -3443000.00347  20178635.459    20178641.020    20178634.851
  -2317650.74348  -1510079.27345  24284856.793    24284867.392    24284856.469
 -23401548.59549 -17185344.94247  21327153.039    21327159.952    21327152.948
 99  5  7 16 16 59.9970000  0  8G26G 2G24G27G 4G 7G 5G 9
   -360712.66349   -272434.03546  22904672.441    22904680.581    22904672.483
  -1963457.23449  -1525206.52347  21128573.292    21128579.309    21128572.588
  -5954137.52849  -4603674.03945  23618080.947    23618092.705    23618081.056
  10293956.93449   8018527.22745  22941685.939    22941694.515    22941685.558
 -21676029.46649 -16861101.55447  21059047.210    21059054.991    21059047.541
  -4423919.02149  -3437217.31747  20180047.647    20180053.237    20180047.035
  -2436661.69849  -1602814.94645  24262209.428    24262220.546    24262209.308
 -23505511.20249 -17266354.73147  21307369.633    21307376.502    21307369.528
 99  5  7 16 17 29.9970000  0  8G26G 2G24G27G 4G 7G 5G 9
   -329890.11849   -248416.54146  22910537.824    22910546.003    22910537.885
  -1959099.28049  -1521810.75947  21129402.629    21129408.671    21129401.917
  -6099944.33049  -4717289.67345  23590334.939    23590346.546    23590334.889
  10371703.67749   8079108.95445  22956480.738    22956489.356    22956480.365
 -21798451.85249 -16956495.56647  21035750.939    21035758.729    21035751.295
  -4416277.54749  -3431262.94147  20181501.766    20181507.367    20181501.164
  -2555741.59149  -1695604.37445  24239549.238    24239560.469    24239549.118
 -23609125.98149 -17347093.48147  21287652.318    21287659.217    21287652.244
 99  5  7 16 17 59.9970000  0  8G26G 2G24G27G 4G 7G 5G 9
   -298916.53949   -224281.35446  22916431.984    22916440.120    22916432.033
  -1954589.70049  -1518296.84147  21130260.797    21130266.860    21130260.101
  -6245799.07649  -4830942.63345  23562579.799    23562591.445    23562579.633
  10449584.18949   8139794.89845  22971301.144    22971309.687    22971300.650
 -21920572.72349 -17051654.64247  21012512.058    21012519.841    21012512.407
  -4408417.12149  -3425137.94847  20182997.535    20183003.146    20182996.949
  -2674893.10849  -1788449.61245  24216875.435    24216886.590    24216875.267
 -23712409.64449 -17427574.22147  21267998.021    21268004.970    21267997.979
 99  5  7 16 18 29.9970000  0  8G26G 2G24G27G 4G 7G 5G 9
   -267749.10249   -199995.11146  22922362.988    22922371.155    22922363.054
  -1949892.54249  -1514636.76547  21131154.644    21131160.751    21131153.978
  -6391662.48549  -4944602.36145  23534823.113    23534834.577    23534822.804
  10527621.18549   8200602.79845  22986151.313    22986159.756    22986150.734
 -22042343.61649 -17146541.00647  20989339.765    20989347.576    20989340.121
  -4400314.82949  -3418824.49147  20184539.356    20184544.976    20184538.775
  -2794088.06149  -1881328.70645  24194193.531    24194204.332    24194193.253
 -23815343.36549 -17507782.27647  21248410.287    21248417.302    21248410.290
 99  5  7 16 18 59.9970000  0  8G26G 2G24G27G 4G 7G 5G 9
   -236429.60149   -175590.37646  22928322.882    22928331.108    22928322.971
  -1945028.73549  -1510846.82847  21132080.249    21132086.362    21132079.566
  -6537564.82549  -5058292.43045  23507058.979    23507070.304    23507058.523
  10605786.79649   8261510.90145  23001025.873    23001034.329    23001025.284
 -22163789.72149 -17241174.28247  20966229.323    20966237.106    20966229.657
  -4392004.60649  -3412349.01147  20186120.777    20186126.369    20186120.177
  -2913351.26249  -1974260.96445  24171498.849    24171509.041    24171498.302
 -23917953.81349 -17587738.43347  21228884.135    21228891.171    21228884.128
 99  5  7 16 19 29.9970000  0  8G26G 2G24G27G 4G 7G 5G 9
   -204968.08949   -151074.97646  22934309.808    22934318.114    22934309.930
  -1940026.30649  -1506948.87147  21133032.215    21133038.356    21133031.529
  -6683531.87649  -5172032.90345  23479282.517    23479293.692    23479281.975
  10684060.84449   8322503.53045  23015921.021    23015929.528    23015920.487
 -22284938.30549 -17335575.72747  20943175.518    20943183.247    20943175.835
  -4383526.31249  -3405742.56347  20187734.203    20187739.763    20187733.585
  -3032708.34549  -2067266.39745  24148786.025    24148795.956    24148785.424
 -24020255.16949 -17667453.73747  21209416.837    21209423.853    21209416.812
 99  5  7 16 19 59.9970000  0  8G26G 2G24G27G 4G 7G 5G 9
   -173323.22349   -126416.70746  22940331.667    22940339.996    22940331.766
  -1934847.78549  -1502913.70747  21134017.723    21134023.842    21134017.018
  -6829531.86049  -5285799.06545  23451499.638    23451510.820    23451499.113
  10762456.61549   8383590.99245  23030839.274    23030847.920    23030838.835
 -22405739.96449 -17429706.84847  20920187.712    20920195.360    20920188.017
  -4374839.86749  -3398973.92147  20189387.227    20189392.777    20189386.589
  -3152127.45749  -2160320.19045  24126061.159    24126071.376    24126060.642
 -24122193.49549 -17746886.16347  21190018.651    21190025.630    21190018.598
 99  5  7 16 20 29.9970000  0  8G26G 2G24G27G 4G 7G 5G 9
   -141506.00949   -101624.15846  22946386.342    22946394.667    22946386.439
  -1929489.98149  -1498738.85247  21135037.311    21135043.448    21135036.617
  -6975578.92749  -5399601.91845  23423707.858    23423719.011    23423707.324
  10840950.57449   8444754.97445  23045776.411    23045785.047    23045775.854
 -22526212.81149 -17523581.76347  20897262.391    20897270.057    20897262.724
  -4365965.70949  -3392059.01747  20191075.942    20191081.506    20191075.302
  -3271634.90149  -2253442.85045  24103319.502    24103330.080    24103319.049
 -24223760.69549 -17826029.40547  21170691.075    21170698.020    21170690.985
 99  5  7 16 20 59.9970000  0  8G26G 2G24G27G 4G 7G 5G 9
   -109509.30049    -76691.72346  22952475.222    22952483.446    22952475.297
  -1923941.07849  -1494415.06847  21136093.249    21136099.425    21136092.574
  -7121668.03849  -5513437.52645  23395907.949    23395919.146    23395907.523
  10919541.44249   8505994.43945  23060731.928    23060740.612    23060731.326
 -22646358.48949 -17617201.72947  20874399.322    20874407.038    20874399.682
  -4356891.25249  -3384988.02847  20192802.773    20192808.334    20192802.133
  -3391226.25349  -2346630.90745  24080561.715    24080572.805    24080561.444
 -24324939.43549 -17904869.94447  21151437.346    21151444.322    21151437.281
 99  5  7 16 21 29.9970000  0  8G26G 2G24G27G 4G 7G 5G 9
    -77327.41649    -51614.99546  22958599.319    22958607.518    22958599.371
  -1918199.35149  -1489941.03347  21137185.903    21137192.107    21137185.227
  -7267784.54349  -5627294.48145  23368102.853    23368114.005    23368102.445
  10998214.30149   8567297.80745  23075703.058    23075711.699    23075702.360
 -22766173.04449 -17710563.68147  20851599.304    20851607.057    20851599.681
  -4347606.10249  -3377752.86547  20194569.686    20194575.264    20194569.055
  -3510902.33549  -2439884.96545  24057788.063    24057799.271    24057787.724
 -24425728.65849 -17983406.96347  21132257.748    21132264.745    21132257.701
 99  5  7 16 21 59.9970000  0  8G26G 2G24G27G 4G 7G 5G 9
    -44991.93249    -26418.59546  22964752.597    22964760.803    22964752.640
  -1912270.09949  -1485320.88347  21138314.229    21138320.445    21138313.556
  -7413952.37849  -5741191.42545  23340287.930    23340299.109    23340287.589
  11076932.73949   8628636.69145  23090682.870    23090691.496    23090682.167
 -22885676.31249 -17803683.07547  20828858.589    20828866.300    20828858.929
  -4338127.22749  -3370366.74847  20196373.463    20196379.063    20196372.850
  -3630682.56749  -2533220.19545  24034994.956    24035005.681    24034994.401
 -24526139.83749 -18061649.40847  21113150.111    21113157.124    21113150.061
 99  5  7 16 22 29.9970000  0  8G26G 2G24G27G 4G 7G 5G 9
    -12495.73649     -1096.95446  22970936.512    22970944.692    22970936.497
  -1906135.35149  -1480540.59747  21139481.655    21139487.902    21139480.999
  -7560151.44849  -5855112.70945  23312467.043    23312478.267    23312466.790
  11155723.75249   8690032.12945  23105676.451    23105685.148    23105675.725
 -23004857.73349 -17896551.66347  20806179.125    20806186.793    20806179.428
  -4328461.22349  -3362834.81247  20198212.842    20198218.448    20198212.231
  -3750550.07549  -2626623.41645  24012185.179    24012195.316    24012184.507
 -24626168.78149 -18139593.99747  21094115.255    21094122.225    21094115.169
 99  5  7 16 22 59.9970000  0  8G26G 2G24G27G 4G 7G 5G 9
     20155.42449     24345.45146  22977149.957    22977158.094    22977149.907
  -1899798.94549  -1475603.18147  21140687.513    21140693.741    21140686.822
  -7706354.49749  -5969037.09845  23284645.366    23284656.615    23284645.228
  11234616.27149   8751506.68845  23120689.377    23120698.099    23120688.653
 -23123690.55949 -17989148.62647  20783566.034    20783573.633    20783566.299
  -4318604.32549  -3355154.13447  20200088.586    20200094.158    20200087.955
  -3870485.19949  -2720079.29545  23989362.361    23989372.040    23989361.687
 -24725814.49849 -18217239.97647  21075153.261    21075160.241    21075153.201
 99  5  7 16 23 29.9970000  0  8G26G 2G24G27G 4G 7G 5G 9
     52943.17749     49894.28146  22983389.350    22983397.517    22983389.314
  -1893272.42149  -1470517.62847  21141929.485    21141935.749    21141928.809
  -7852575.93849  -6082975.82145  23256820.363    23256831.471    23256820.186
  11313609.69249   8813059.84745  23135721.625    23135730.272    23135720.753
 -23242175.24049 -18081474.30747  20761019.114    20761026.724    20761019.397
  -4308574.91749  -3347339.02747  20201997.156    20202002.722    20201996.500
  -3990505.10149  -2813601.24545  23966523.139    23966532.713    23966522.537
 -24825082.45049 -18294591.59247  21056263.162    21056270.173    21056263.109
 99  5  7 16 23 59.9970000  0  8G26G 2G24G27G 4G 7G 5G 9
     85870.21949     75551.65446  22989655.138    22989663.380    22989655.165
  -1886540.96749  -1465272.38647  21143210.467    21143216.764    21143209.814
  -7998812.13749  -6196926.04445  23228992.613    23229003.506    23228992.374
  11392718.80349   8874703.14945  23150775.821    23150784.427    23150774.801
 -23360303.34249 -18173522.12747  20738540.080    20738547.667    20738540.348
  -4298373.03849  -3339389.53447  20203938.481    20203944.100    20203937.865
  -4110610.27249  -2907189.64445  23943667.605    23943677.395    23943667.207
 -24923976.93249 -18371652.19347  21037444.091    21037451.139    21037444.062
 99  5  7 16 24 29.9970000  0  8G26G 2G24G27G 4G 7G 5G 9
    118924.91549    101308.49946  22995945.207    22995953.545    22995945.261
  -1879610.89549  -1459872.36847  21144529.249    21144535.556    21144528.594
  -8145062.06749  -6310886.98445  23201162.146    23201172.903    23201161.843
  11471938.83349   8936432.88745  23165851.052    23165859.720    23165850.008
 -23478083.50949 -18265298.84147  20716127.236    20716134.786    20716127.497
  -4287999.68349  -3331306.42347  20205912.461    20205918.094    20205911.839
  -4230812.11049  -3000853.38945  23920793.903    23920803.853    23920793.492
 -25022524.28349 -18448442.30047  21018691.101    21018698.186    21018691.077
 99  5  7 16 24 59.9970000  0  8G26G 2G24G27G 4G 7G 5G 9
    152083.31949    127146.14546  23002254.999    23002263.410    23002255.123
  -1872496.54749  -1454328.75847  21145883.101    21145889.415    21145882.430
  -8291340.87049  -6424870.41345  23173326.187    23173336.833    23173325.912
  11551236.49949   8998223.11745  23180940.835    23180949.775    23180939.918
 -23595529.69649 -18356815.29747  20693777.933    20693785.468    20693778.204
  -4277450.77349  -3323086.51947  20207919.907    20207925.507    20207919.267
  -4351122.27249  -3094601.52845  23897899.807    23897909.861    23897899.306
 -25120737.78949 -18524972.26647  21000001.702    21000008.757    21000001.645
 99  5  7 16 25 29.9970000  0  9G26G 2G24G27G 4G 7G 5G 9G 8
    185379.70649    153091.31346  23008591.189    23008599.524    23008591.297
  -1865163.64049  -1448614.85447  21147278.575    21147284.866    21147277.879
  -8437627.26149  -6538859.71545  23145488.829    23145499.340    23145488.458
  11630607.37549   9060070.40245  23196044.507    23196053.673    23196043.803
 -23712624.28849 -18448057.79647  20671495.501    20671503.053    20671495.805
  -4266690.99149  -3314702.29847  20209967.476    20209973.042    20209966.819
  -4471501.43849  -3188403.46545  23874992.622    23875002.648    23874991.951
 -25218593.34149 -18601223.31647  20981380.441    20981387.457    20981380.348
  -1564571.83959   -848039.95955  23944580.253    23944590.137    23944579.800
 99  5  7 16 25 59.9970000  0  9G26G 2G24G27G 4G 7G 5G 9G 8
    218787.02349    179122.91946  23014948.443    23014956.758    23014948.539
  -1857642.23849  -1442754.05847  21148709.968    21148716.209    21148709.210
  -8583937.05749  -6652867.28245  23117647.016    23117657.403    23117646.653
  11710010.93149   9121943.13945  23211154.379    23211163.852    23211153.878
 -23829394.67049 -18539047.65547  20649274.766    20649282.332    20649275.102
  -4255749.71949  -3306176.65347  20212049.550    20212055.121    20212048.895
  -4591959.31549  -3282266.71545  23852070.115    23852080.188    23852069.478
 -25316121.50049 -18677219.24947  20962821.433    20962828.420    20962821.362
  -1711647.93849   -962644.63545  23916592.657    23916602.385    23916592.030
 99  5  7 16 26 29.9970000  0  9G26G 2G24G27G 4G 7G 5G 9G 8
    252303.41549    205239.50746  23021326.533    23021334.743    23021326.549
  -1849938.59849  -1436751.26547  21150176.011    21150182.200    21150175.236
  -8730256.19949  -6766882.13445  23089803.415    23089813.708    23089802.989
  11789446.91049   9183841.15545  23226270.450    23226280.138    23226270.032
 -23945840.41049 -18629784.54747  20627115.901    20627123.395    20627116.186
  -4244624.01449  -3297507.29647  20214166.724    20214172.280    20214166.069
  -4712485.82949  -3376183.44645  23829134.374    23829144.475    23829133.906
 -25413288.82949 -18752934.02147  20944331.158    20944338.038    20944331.032
  -1858706.23349  -1077235.43745  23888608.287    23888618.171    23888607.777
 99  5  7 16 26 59.9970000  0  9G26G 2G24G27G 4G 7G 5G 9G 8
    285934.73049    231445.65746  23027726.476    23027734.622    23027726.436
  -1842062.38749  -1430614.00647  21151674.861    21151681.015    21151674.077
  -8876573.70549  -6880895.71645  23061960.018    23061970.306    23061959.708
  11868926.99749   9245773.52345  23241394.915    23241404.834    23241394.652
 -24061941.39949 -18720252.80947  20605022.663    20605030.091    20605022.908
  -4233307.64349  -3288689.36947  20216320.220    20216325.735    20216319.536
  -4833059.93949  -3470137.26445  23806189.765    23806199.727    23806189.354
 -25510071.47649 -18828349.03847  20925914.014    20925920.866    20925913.872
  -2005726.30449  -1191796.44145  23860631.222    23860641.153    23860630.793
 99  5  7 16 27 29.9970000  0  9G26G 2G24G27G 4G 7G 5G 9G 8
    319689.32749    257747.88246  23034149.865    23034157.994    23034149.778
  -1834005.76949  -1424336.15947  21153208.020    21153214.175    21153207.238
  -9022879.55549  -6994900.20245  23034118.699    23034129.136    23034118.560
  11948480.89649   9307763.43445  23256533.573    23256543.609    23256533.292
 -24177683.38849 -18810441.33147  20582997.700    20583005.097    20582997.927
  -4221797.75649  -3279720.64747  20218510.520    20218516.003    20218509.820
  -4953679.12149  -3564126.17745  23783236.773    23783246.390    23783236.313
 -25606456.70649 -18903454.37847  20907572.410    20907579.300    20907572.311
  -2152664.54449  -1306293.72745  23832669.727    23832679.681    23832669.363
 99  5  7 16 27 59.9970000  0  9G26G 2G24G27G 4G 7G 5G 9G 8
    353544.28349    284128.29646  23040592.265    23040600.420    23040592.234
  -1825787.06849  -1417932.01847  21154771.949    21154778.165    21154771.241
  -9169183.92349  -7108903.54645  23006277.774    23006288.289    23006277.695
  12028102.72349   9369806.22245  23271685.008    23271695.280    23271684.827
 -24293078.87249 -18900359.84747  20561038.595    20561046.038    20561038.866
  -4210110.35949  -3270613.60947  20220734.595    20220740.077    20220733.890
  -5074375.54349  -3658175.28945  23760269.272    23760278.455    23760268.685
 -25702452.00049 -18978255.87047  20889305.049    20889311.953    20889304.968
  -2299512.34949  -1420720.53145  23804725.445    23804735.362    23804725.110
 99  5  7 16 28 29.9970000  0  9G26G 2G24G27G 4G 7G 5G 9G 8
    387504.67649    310590.85445  23047054.665    23047062.933    23047054.706
  -1817400.97449  -1411397.44047  21156367.794    21156374.019    21156367.091
  -9315471.89949  -7222894.13245  22978440.073    22978450.606    22978439.977
  12107798.25949   9431906.46545  23286850.777    23286861.055    23286850.484
 -24408113.97449 -18989997.55147  20539148.111    20539155.518    20539148.374
  -4198247.77849  -3261370.06847  20222991.939    20222997.472    20222991.275
  -5195159.31849  -3752292.44945  23737284.932    23737293.995    23737284.243
 -25798037.43649 -19052737.99747  20871115.671    20871122.595    20871115.618
  -2446270.91049  -1535077.77745  23776798.046    23776808.080    23776797.798
 99  5  7 16 28 59.9970000  0  9G26G 2G24G27G 4G 7G 5G 9G 8
    421557.36149    337125.34346  23053534.702    23053543.074    23053534.770
  -1808853.90849  -1404737.43047  21157994.258    21158000.494    21157993.580
  -9461769.30549  -7336892.06245  22950600.458    22950611.132    22950600.478
  12187546.59249   9494047.83245  23302026.692    23302036.811    23302026.267
 -24522782.54149 -19079349.63647  20517327.373    20517334.766    20517327.660
  -4186238.45649  -3252012.18147  20225277.271    20225282.792    20225276.599
  -5316045.29749  -3846489.26245  23714280.961    23714290.250    23714280.341
 -25893239.18349 -19126921.14747  20852999.328    20853006.249    20852999.298
  -2592960.64349  -1649381.40545  23748883.820    23748893.954    23748883.576
 99  5  7 16 29 29.9970000  0  9G26G 2G24G27G 4G 7G 5G 9G 8
    455718.70549    363744.48246  23060035.484    23060043.870    23060035.491
  -1800110.43249  -1397924.38247  21159658.111    21159664.346    21159657.428
  -9608061.95549  -7450886.26745  22922761.911    22922772.623    22922761.879
  12267350.36249   9556232.41245  23317213.405    23317223.069    23317212.660
 -24637075.12349 -19168408.75947  20495578.234    20495585.557    20495578.484
  -4174083.04249  -3242540.46047  20227590.431    20227595.922    20227589.733
  -5437041.51049  -3940771.96245  23691255.939    23691265.609    23691255.387
 -25988036.08649 -19200788.83947  20834960.066    20834966.959    20834960.009
  -2739573.84249  -1763625.38145  23720984.253    23720994.291    23720983.897
 99  5  7 16 29 59.9970000  0  9G26G 2G24G27G 4G 7G 5G 9G 8
    489986.73649    390446.77546  23066556.591    23066565.008    23066556.565
  -1791166.20949  -1390954.90147  21161360.151    21161366.419    21161359.490
  -9754346.12849  -7564873.86245  22894924.943    22894935.701    22894924.891
  12347192.58649   9618446.96945  23332407.395    23332416.638    23332406.330
 -24750993.83549 -19257176.53847  20473900.209    20473907.501    20473900.437
  -4161790.17449  -3232961.62347  20229929.746    20229935.214    20229929.034
  -5558143.63949  -4035137.20245  23668210.710    23668220.716    23668210.273
 -26082418.96749 -19274333.91247  20816999.650    20817006.468    20816999.566
  -2886131.05449  -1877825.72645  23693095.274    23693105.371    23693094.922
 99  5  7 16 30 29.9970000  0  9G26G 2G24G27G 4G 7G 5G 9G 8
    524356.21249    417228.09246  23073097.027    23073105.422    23073096.906
  -1782012.39149  -1383822.09547  21163102.169    21163108.376    21163101.451
  -9900623.34949  -7678856.04546  22867089.319    22867100.107    22867089.258
  12427083.18049   9680699.19545  23347610.447    23347619.406    23347609.302
 -24864533.81549 -19345649.20447  20452294.214    20452301.530    20452294.470
  -4149370.44949  -3223283.93847  20232293.196    20232298.646    20232292.470
  -5679333.87449  -4129571.09745  23645148.892    23645158.965    23645148.484
 -26176393.38949 -19347560.70547  20799116.936    20799123.690    20799116.826
  -3032643.41749  -1991991.13545  23665214.819    23665224.995    23665214.460
 99  5  7 16 30 59.9960000  0  9G26G 2G24G27G 4G 7G 5G 9G 8
    558824.76849    444086.62946  23079656.329    23079664.655    23079656.170
  -1772642.97549  -1376521.29847  21164885.184    21164891.344    21164884.427
 -10046883.58449  -7792824.99345  22839256.942    22839267.733    22839256.864
  12507021.86749   9742988.87945  23362822.542    23362831.382    23362821.364
 -24977694.97049 -19433826.67747  20430760.309    20430767.654    20430760.578
  -4136805.57849  -3213493.16447  20234684.222    20234689.714    20234683.501
  -5800583.41649  -4224051.21045  23622076.020    23622085.769    23622075.478
 -26269977.61249 -19420483.44647  20781308.478    20781315.171    20781308.346
  -3179092.41849  -2106107.16145  23637346.298    23637356.652    23637346.036
 99  5  7 16 31 29.9960000  0  9G26G 2G24G27G 4G 7G 5G 9G 8
    593396.21249    471025.32846  23086235.120    23086243.417    23086234.974
  -1763055.26249  -1369050.39847  21166709.719    21166715.879    21166708.951
 -10193109.20349  -7906766.97445  22811431.185    22811441.947    22811431.043
  12587021.12749   9805325.78145  23378046.220    23378054.820    23378045.041
 -25090499.32149 -19521726.12747  20409294.315    20409301.669    20409294.588
  -4124065.33349  -3203565.73747  20237108.580    20237114.142    20237107.902
  -5921887.13749  -4318573.53045  23598992.903    23599002.257    23598992.219
 -26363175.57749 -19493105.21347  20763573.499    20763580.159    20763573.342
  -3325478.44949  -2220174.11145  23609489.971    23609500.333    23609489.632
 99  5  7 16 31 59.9960000  0  9G26G 2G24G27G 4G 7G 5G 9G 8
    628065.72849    498040.45346  23092832.464    23092840.827    23092832.378
  -1753261.52049  -1361418.96347  21168573.467    21168579.620    21168572.680
 -10339284.75349  -8020669.93345  22783614.961    22783625.647    22783614.743
  12667079.17649   9867708.49545  23393281.065    23393289.512    23393279.822
 -25202939.80549 -19609342.04547  20387897.612    20387904.925    20387897.850
  -4111148.78049  -3193500.91947  20239566.503    20239572.079    20239565.832
  -6043221.29549  -4413119.55545  23575903.807    23575912.975    23575903.115
 -26455991.62449 -19565429.37947  20745911.159    20745917.820    20745911.030
  -3471788.63549  -2334181.97745  23581648.035    23581658.378    23581647.602
 99  5  7 16 32 29.9960000  0  9G26G 2G24G27G 4G 7G 5G 9G 8
    662835.86049    525133.96546  23099449.006    23099457.404    23099448.945
  -1743264.52849  -1353629.14747  21170475.896    21170482.040    21170475.103
 -10485395.36749  -8134522.30545  22755810.993    22755821.639    22755810.774
  12747191.77249   9930133.71945  23408526.002    23408534.490    23408525.029
 -25315008.13949 -19696667.97247  20366571.689    20366578.990    20366571.933
  -4098050.05249  -3183294.14647  20242059.094    20242064.673    20242058.432
  -6164589.80649  -4507692.34345  23552808.014    23552817.268    23552807.395
 -26548425.70249 -19637455.91147  20728321.488    20728328.166    20728321.372
  -3618005.79449  -2448117.35945  23553823.794    23553834.109    23553823.393
 99  5  7 16 32 59.9960000  0  9G26G 2G24G27G 4G 7G 5G 9G 8
    697674.32749    552280.76446  23106078.623    23106087.036    23106078.587
  -1733105.47749  -1345713.04447  21172409.119    21172415.275    21172408.346
 -10631472.87049  -8248348.86045  22728013.299    22728023.943    22728013.079
  12827319.69949   9992570.90045  23423773.981    23423782.371    23423773.056
 -25426725.15249 -19783720.13547  20345312.663    20345319.900    20345312.875
  -4084793.20549  -3172964.16147  20244581.815    20244587.386    20244581.152
  -6286042.56749  -4602330.79545  23529696.174    23529705.689    23529695.561
 -26640490.22349 -19709194.47247  20710802.200    20710808.834    20710802.053
  -3764132.53049  -2561982.27145  23526016.715    23526026.962    23526016.348
 99  5  7 16 33 29.9960000  0  9G26G 2G24G27G 4G 7G 5G 9G 8
    732571.93849    579473.63446  23112719.585    23112727.944    23112719.499
  -1722790.28149  -1337675.27547  21174372.060    21174378.228    21174371.307
 -10777525.39949  -8362155.95345  22700220.439    22700231.033    22700220.170
  12907466.79149  10055023.03445  23439025.495    23439033.887    23439024.755
 -25538084.35649 -19870493.49547  20324121.681    20324128.893    20324121.890
  -4071394.00349  -3162523.25047  20247131.646    20247137.201    20247130.954
  -6407599.02449  -4697050.03245  23506564.540    23506574.349    23506564.100
 -26732159.36849 -19780624.95147  20693358.143    20693364.731    20693357.978
  -3910167.14049  -2675775.40345  23498227.184    23498237.446    23498226.874
 99  5  7 16 33 59.9960000  0  9G26G 2G24G27G 4G 7G 5G 9G 8
    767531.01749    606714.39546  23119372.203    23119380.571    23119372.054
  -1712305.93249  -1329505.69847  21176367.278    21176373.392    21176366.472
 -10923561.61349  -8475950.33645  22672430.644    22672441.204    22672430.381
  12987638.49349  10117494.36945  23454281.672    23454290.116    23454281.123
 -25649063.84549 -19956970.97247  20303002.948    20303010.155    20303003.169
  -4057865.77649  -3151981.80347  20249706.060    20249711.585    20249705.332
  -6529257.82849  -4791849.04645  23483413.800    23483423.519    23483413.226
 -26823419.67149 -19851736.85247  20675991.959    20675998.448    20675991.737
  -4056098.33149  -2789487.93145  23470457.406    23470467.470    23470457.020
 99  5  7 16 34 29.9960000  0  9G26G 2G24G27G 4G 7G 5G 9G 8
    802564.84449    634013.39346  23126039.036    23126047.387    23126038.837
  -1701632.68749  -1321188.92547  21178398.416    21178404.515    21178397.592
 -11069576.49049  -8589728.08645  22644644.898    22644655.429    22644644.610
  13067855.95249  10180001.34345  23469546.645    23469555.117    23469546.110
 -25759640.84749 -20043134.82147  20281960.809    20281968.023    20281961.005
  -4044187.30749  -3141323.28347  20252309.033    20252314.545    20252308.288
  -6651005.16249  -4886717.05145  23460246.077    23460255.677    23460245.493
 -26914247.81249 -19922512.00547  20658707.946    20658714.403    20658707.709
  -4201894.21149  -2903095.04345  23442713.323    23442723.355    23442712.847
 99  5  7 16 34 59.9960000  0  9G26G 2G24G27G 4G 7G 5G 9G 8
    837662.95549    661362.48046  23132718.095    23132726.429    23132717.878
  -1690783.87049  -1312735.35247  21180462.965    21180469.040    21180462.116
 -11215592.45149  -8703506.68745  22616858.896    22616869.450    22616858.657
  13148108.47649  10242535.65645  23484818.386    23484826.821    23484817.724
 -25869823.18949 -20128991.14547  20260993.776    20261000.993    20260993.988
  -4030374.26049  -3130559.90547  20254937.599    20254943.090    20254936.837
  -6772855.25349  -4981665.12345  23437058.727    23437068.208    23437058.132
 -27004663.86249 -19992966.04747  20641502.316    20641508.776    20641502.092
  -4347571.96049  -3016610.12445  23414991.718    23415001.637    23414991.265
 99  5  7 16 35 29.9960000  0  9G26G 2G24G27G 4G 7G 5G 9G 8
    872867.42749    688794.44646  23139417.408    23139425.720    23139417.154
  -1679708.64549  -1304105.35247  21182570.586    21182576.648    21182569.719
 -11361565.94149  -8817252.18245  22589080.940    22589091.556    22589080.791
  13228421.76049  10305117.28045  23500101.617    23500110.047    23500100.857
 -25979578.34749 -20214514.59847  20240108.028    20240115.256    20240108.265
  -4016385.94749  -3119659.94847  20257599.514    20257604.999    20257598.750
  -6894758.68149  -5076654.75245  23413861.277    23413870.570    23413860.678
 -27094634.64249 -20063073.12547  20624381.368    20624387.868    20624381.180
  -4493123.00449  -3130026.44145  23387294.218    23387304.134    23387293.790
 99  5  7 16 35 59.9960000  0  9G26G 2G24G27G 4G 7G 5G 9G 8
    908170.10849    716302.94546  23146135.343    23146143.725    23146135.138
  -1668409.08749  -1295300.54947  21184720.896    21184726.943    21184720.004
 -11507504.40949  -8930970.39445  22561309.511    22561320.324    22561309.524
  13308771.15849  10367727.01145  23515391.799    23515400.279    23515391.001
 -26088907.71549 -20299706.26347  20219303.329    20219310.528    20219303.539
  -4002231.02649  -3108630.16947  20260293.138    20260298.626    20260292.375
  -7016717.78449  -5171687.74345  23390653.220    23390662.434    23390652.613
 -27184175.05949 -20132844.85447  20607342.368    20607348.883    20607342.182
  -4638558.98649  -3243353.11845  23359618.591    23359628.561    23359618.128
 99  5  7 16 36 29.9960000  0  9G26G 2G24G27G 4G 7G 5G 9G 8
    943559.97849    743879.40446  23152869.843    23152878.250    23152869.696
  -1656909.44149  -1286339.83447  21186909.195    21186915.318    21186908.330
 -11653402.84949  -9044657.39345  22533545.754    22533556.720    22533545.838
  13389140.56249  10430352.37445  23530685.887    23530694.260    23530684.875
 -26197814.57049 -20384568.69747  20198578.955    20198586.183    20198579.191
  -3987915.41549  -3097475.17447  20263017.348    20263022.834    20263016.577
  -7138746.87749  -5266775.27145  23367431.830    23367441.104    23367431.245
 -27273294.42349 -20202288.48947  20590383.481    20590390.026    20590383.299
  -4783900.29549  -3356605.97945  23331960.966    23331971.116    23331960.495
 99  5  7 16 36 59.9960000  0  9G26G 2G24G27G 4G 7G 5G 9G 8
    979043.60949    771528.90646  23159622.169    23159630.650    23159622.052
  -1645182.06349  -1277201.66347  21189140.841    21189147.024    21189140.026
 -11799222.33949  -9158282.88945  22505797.080    22505808.071    22505797.225
  13469553.27649  10493011.45845  23545987.894    23545996.530    23545987.097
 -26306269.22249 -20469078.76147  20177940.675    20177947.890    20177940.916
  -3973411.49549  -3086173.44547  20265777.366    20265782.858    20265776.605
  -7260823.20249  -5361899.61245  23344201.424    23344210.821    23344200.862
 -27361954.64549 -20271374.35347  20573511.980    20573518.551    20573511.805
  -4929143.85449  -3469782.68945  23304321.998    23304332.253    23304321.506
 99  5  7 16 37 29.9960000  0  9G26G 2G24G27G 4G 7G 5G 9G 8
   1014594.69249    799230.97146  23166387.345    23166395.833    23166387.227
  -1633221.48549  -1267881.78247  21191416.851    21191423.098    21191416.065
 -11944957.58949  -9271842.74245  22478064.571    22478075.482    22478064.677
  13549999.85249  10555696.95545  23561296.318    23561305.217    23561295.755
 -26414282.74149 -20553245.08947  20157386.424    20157393.567    20157386.605
  -3958732.28649  -3074735.13247  20268570.752    20268576.235    20268569.976
  -7382943.13049  -5457057.92845  23320962.675    23320972.217    23320962.135
 -27450151.36549 -20340099.05347  20556728.697    20556735.234    20556728.502
  -5074292.19249  -3582885.20545  23276701.309    23276711.491    23276700.699
 99  5  7 16 37 59.9960000  0  9G26G 2G24G27G 4G 7G 5G 9G 8
   1050175.63049    826956.28746  23173158.200    23173166.714    23173158.124
  -1621062.62249  -1258407.40547  21193730.647    21193736.911    21193729.869
 -12090626.42549  -9385350.83345  22450344.738    22450355.552    22450344.761
  13630451.94849  10618386.71545  23576605.694    23576614.967    23576605.304
 -26521889.10149 -20637094.15747  20136909.617    20136916.716    20136909.788
  -3943923.88349  -3063196.15347  20271388.704    20271394.195    20271387.947
  -7505134.78249  -5552272.13845  23297710.266    23297719.874    23297709.728
 -27537925.08249 -20408494.13847  20540025.892    20540032.435    20540025.713
  -5219359.80649  -3695924.82845  23249095.927    23249106.025    23249095.223
 99  5  7 16 38 29.9960000  0  9G26G 2G24G27G 4G 7G 5G 9G 8
   1085799.43049    854715.01046  23179937.349    23179945.769    23179937.227
  -1608695.50049  -1248770.73847  21196084.115    21196090.351    21196083.298
 -12236209.48549  -9498792.07846  22422641.170    22422651.930    22422641.155
  13710922.46649  10681090.84345  23591918.597    23591928.320    23591918.373
 -26629077.45149 -20720617.49847  20116512.377    20116519.443    20116512.512
  -3928966.37449  -3051540.97847  20274235.018    20274240.537    20274234.288
  -7627390.07549  -5647535.94845  23274445.716    23274455.352    23274445.203
 -27625269.77949 -20476554.92147  20523404.684    20523411.267    20523404.539
  -5364326.57549  -3808885.82945  23221509.713    23221519.755    23221508.968
 99  5  7 16 38 59.9960000  0  9G26G 2G24G27G 4G 7G 5G 9G 8
   1121466.41649    882507.39545  23186724.620    23186733.084    23186724.514
  -1596098.61749  -1238955.04747  21198481.264    21198487.508    21198480.455
 -12381706.13249  -9612166.00246  22394954.052    22394964.742    22394954.012
  13791393.19349  10743795.11345  23607231.739    23607241.584    23607231.420
 -26735851.88349 -20803818.31047  20096193.821    20096200.905    20096193.996
  -3913863.02349  -3039772.16647  20277109.058    20277114.626    20277108.347
  -7749697.28949  -5742840.18645  23251171.514    23251180.884    23251170.899
 -27712183.41349 -20544279.81447  20506865.532    20506872.119    20506865.398
  -5509169.29149  -3921750.17045  23193947.072    23193957.093    23193946.273
 99  5  7 16 39 29.9960000  0  9G26G 2G24G27G 4G 7G 5G 9G 8
   1157203.37549    910354.28045  23193525.201    23193533.723    23193525.079
  -1583273.33949  -1228961.38047  21200921.865    21200928.142    21200921.062
 -12527110.72749  -9725468.18146  22367284.443    22367295.069    22367284.371
  13871851.15148  10806489.42745  23622542.516    23622552.514    23622542.033
 -26842207.96449 -20886693.13247  20075954.864    20075961.954    20075955.052
  -3898628.50149  -3027901.13647  20280008.119    20280013.673    20280007.413
  -7872048.86349  -5838178.98245  23227888.818    23227898.031    23227888.187
 -27798678.04249 -20611678.20647  20490406.191    20490412.717    20490406.031
  -5653861.84749  -4034497.51245  23166413.025    23166422.993    23166412.171
 99  5  7 16 39 59.9960000  0  9G26G 2G24G27G 4G 7G 5G 9G 8
   1193004.88149    938251.48345  23200338.046    23200346.660    23200337.932
  -1570256.58449  -1218818.51847  21203398.876    21203405.230    21203398.109
 -12672440.70949  -9838712.23346  22339628.995    22339639.592    22339628.940
  13952270.51648  10869153.66545  23637845.939    23637856.016    23637845.314
 -26948152.59049 -20969247.34147  20055794.216    20055801.313    20055794.420
  -3883275.89749  -3015938.09947  20282929.657    20282935.209    20282928.945
  -7994473.99349  -5933575.10245  23204592.015    23204601.233    23204591.478
 -27884773.43249 -20678765.50847  20474022.800    20474029.302    20474022.621
  -5798416.28149  -4147137.22945  23138905.222    23138915.174    23138904.389
 99  5  7 16 40 29.9960000  0  9G26G 2G24G27G 4G 7G 5G 9G 8
   1228890.39249    966214.12845  23207166.871    23207175.551    23207166.778
  -1557019.28049  -1208503.78647  21205917.884    21205924.264    21205917.115
 -12817680.72249  -9951886.18046  22311990.638    22312001.232    22311990.616
  14032675.91548  10931807.03745  23653146.944    23653156.935    23653146.134
 -27053645.63849 -21051449.67547  20035719.542    20035726.601    20035719.747
  -3867777.44649  -3003861.41747  20285878.922    20285884.506    20285878.198
  -8116949.04249  -6029010.13745  23181285.598    23181294.966    23181285.154
 -27970426.30449 -20745507.98847  20457723.564    20457730.089    20457723.400
  -5942798.69149  -4259642.90145  23111430.149    23111440.066    23111429.324
 99  5  7 16 40 59.9960000  0  9G26G 2G24G27G 4G 7G 5G 9G 8
   1264829.62549    994218.62545  23214006.032    23214014.631    23214005.882
  -1543579.72549  -1198031.46347  21208475.430    21208481.803    21208474.626
 -12962840.34849 -10064997.48546  22284367.657    22284378.221    22284367.614
  14113063.37649  10994446.38245  23668444.625    23668454.496    23668443.638
 -27158711.21849 -21133318.91647  20015726.264    20015733.236    20015726.415
  -3852162.82149  -2991694.20847  20288850.301    20288855.888    20288849.587
  -8239486.37549  -6124493.73945  23157967.278    23157976.792    23157966.945
 -28055636.99349 -20811905.90747  20441508.557    20441515.054    20441508.360
  -6087033.29149  -4372033.39245  23083983.206    23083993.082    23083982.426
 99  5  7 16 41 29.9960000  0  9G26G 2G24G27G 4G 7G 5G 9G 8
   1300815.10749   1022259.17945  23220853.926    23220862.542    23220853.722
  -1529953.13649  -1187413.39947  21211068.512    21211074.909    21211067.720
 -13107913.24149 -10178041.20446  22256761.213    22256771.716    22256761.092
  14193462.39749  11057094.79045  23683744.568    23683754.082    23683743.386
 -27263353.68949 -21214858.46347  19995813.431    19995820.385    19995813.595
  -3836423.74549  -2979430.02447  20291845.392    20291850.959    20291844.669
  -8362089.24049  -6220028.40145  23134636.633    23134646.156    23134636.329
 -28140402.53849 -20877956.96447  20425378.220    20425384.712    20425378.015
  -6231135.78549  -4484320.94245  23056561.499    23056571.202    23056560.652
 99  5  7 16 41 59.9960000  0  9G26G 2G24G27G 4G 7G 5G 9G 8
   1336834.31249   1050326.01845  23227708.224    23227716.849    23227707.989
  -1516117.58249  -1176632.50247  21213701.402    21213707.792    21213700.596
 -13252892.93349 -10291012.29546  22229172.461    22229182.927    22229172.314
  14273900.65749  11119773.74945  23699051.826    23699061.223    23699050.476
 -27367561.04849 -21296058.97147  19975983.377    19975990.330    19975983.568
  -3820525.73449  -2967041.99647  20294870.732    20294876.270    20294869.999
  -8484739.34449  -6315599.84145  23111297.290    23111306.553    23111296.765
 -28224697.66049 -20943641.45747  20409337.368    20409343.877    20409337.171
  -6375100.12249  -4596500.83445  23029166.024    23029175.630    23029165.211
 99  5  7 16 42 29.9960000  0  9G26G 2G24G27G 4G 7G 5G 9G 8
   1372841.44249   1078383.43445  23234560.097    23234568.914    23234559.982
  -1502096.36149  -1165706.93047  21216369.567    21216375.995    21216368.787
 -13397803.70049 -10403929.68346  22201596.815    22201607.263    22201596.673
  14354359.03849  11182468.37145  23714362.905    23714372.140    23714361.540
 -27471366.05049 -21376945.95547  19956229.881    19956236.875    19956230.087
  -3804496.65249  -2954551.83247  20297921.044    20297926.530    20297920.275
  -8607447.85349  -6411216.76145  23087946.804    23087955.766    23087946.147
 -28308542.45649 -21008975.04847  20393382.242    20393388.708    20393382.044
  -6518960.01249  -4708599.32945  23001790.332    23001799.922    23001789.539
 99  5  7 16 42 59.9960000  0  9G26G 2G24G27G 4G 7G 5G 9G 8
   1408858.13549   1106448.31245  23241413.789    23241422.789    23241413.725
  -1487885.35549  -1154633.47347  21219073.903    21219080.337    21219073.081
 -13542606.51749 -10516762.95446  22174041.684    22174052.143    22174041.585
  14434853.87749  11245191.46145  23729680.861    23729690.003    23729679.429
 -27574752.43149 -21457506.74247  19936556.072    19936563.062    19936556.281
  -3788306.59949  -2941936.24147  20301001.986    20301007.435    20301001.195
  -8730198.41949  -6506866.44945  23064588.118    23064596.914    23064587.463
 -28391928.61849 -21073951.26547  20377514.413    20377520.789    20377514.208
  -6662694.30149  -4820599.97645  22974438.494    22974448.075    22974437.760
 99  5  7 16 43 29.9960000  0  9G26G 2G24G27G 4G 7G 5G 9G 8
   1444860.97749   1134502.37045  23248264.887    23248274.012    23248264.857
  -1473517.37649  -1143437.70147  21221808.073    21221814.553    21221807.246
 -13687342.14549 -10629543.87046  22146499.407    22146509.821    22146499.235
  14515330.00249  11307899.90445  23744995.044    23745004.329    23744993.770
 -27677731.52149 -21537750.15847  19916959.797    19916966.750    19916959.989
  -3771986.92949  -2929219.64347  20304107.609    20304113.005    20304106.777
  -8853015.02949  -6602567.60845  23041216.649    23041225.521    23041216.125
 -28474899.86649 -21138604.17047  20361725.541    20361731.848    20361725.305
  -6806315.18149  -4932512.24445  22947108.194    22947117.870    22947107.511
 99  5  7 16 43 59.9960000  0  9G26G 2G24G27G 4G 7G 5G 9G 8
   1480866.00049   1162558.13845  23255116.542    23255125.517    23255116.436
  -1458967.38849  -1132100.10347  21224576.900    21224583.392    21224576.076
 -13832002.62649 -10742266.24346  22118971.386    22118981.783    22118971.184
  14595778.09449  11370586.54645  23760303.754    23760313.292    23760302.735
 -27780266.34849 -21617647.39247  19897448.049    19897454.948    19897448.239
  -3755534.91249  -2916399.92347  20307238.366    20307243.737    20307237.536
  -8975889.45549  -6698313.85745  23017834.279    23017843.244    23017833.831
 -28557439.18049 -21202920.50247  20346018.865    20346025.119    20346018.613
  -6949796.67949  -5044315.91345  22919804.332    22919814.147    22919803.781
 99  5  7 16 44 29.9960000  0  9G26G 2G24G27G 4G 7G 5G 9G 8
   1516909.22549   1190643.67145  23261975.358    23261984.305    23261975.268
  -1444217.60449  -1120606.82347  21227383.807    21227390.259    21227382.915
 -13976557.80349 -10854906.55546  22091463.309    22091473.778    22091463.156
  14676196.30649  11433249.87045  23775606.864    23775616.567    23775605.934
 -27882332.96949 -21697179.79147  19878025.419    19878032.244    19878025.587
  -3738949.84749  -2903476.52347  20310394.454    20310399.801    20310393.609
  -9098815.30849  -6794100.18645  22994442.253    22994451.131    22994441.760
 -28639531.56649 -21266888.57547  20330397.201    20330403.485    20330396.957
  -7093102.77749  -5155982.90845  22892533.854    22892543.822    22892533.406
 99  5  7 16 44 59.9960000  0  8G26G 2G24G 4G 7G 5G 9G 8
   1553010.73149   1218774.64145  23268845.240    23268854.225    23268845.187
  -1429254.75349  -1108947.51347  21230231.176    21230237.664    21230230.308
 -14121012.75349 -10967468.76546  22063974.252    22063984.825    22063974.199
 -27983922.09049 -21776340.11047  19858693.623    19858700.415    19858693.789
  -3722241.03649  -2890456.69847  20313574.094    20313579.427    20313573.237
  -9221798.50849  -6889931.17045  22971039.384    22971048.167    22971038.839
 -28721174.04849 -21330506.06947  20314861.187    20314867.453    20314860.917
  -7236219.79349  -5267502.54945  22865299.262    22865309.455    22865298.965
 99  5  7 16 45 29.9960000  0  8G26G 2G24G 4G 7G 5G 9G 8
   1589168.30149   1246949.30445  23275725.859    23275734.809    23275725.791
  -1414062.00649  -1097109.06247  21233122.297    21233128.807    21233121.429
 -14265383.19049 -11079965.12946  22036501.322    22036511.968    22036501.365
 -28085037.03449 -21855130.94347  19839452.084    19839458.869    19839452.224
  -3705428.73849  -2877356.23547  20316773.426    20316778.733    20316772.567
  -9344834.93349  -6985803.63545  22947626.417    22947635.079    22947625.786
 -28802354.42949 -21393763.49147  20299413.093    20299419.322    20299412.802
  -7379153.26149  -5378879.16945  22838099.660    22838109.984    22838099.441
 99  5  7 16 45 59.9960000  0  8G26G 2G24G 4G 7G 5G 9G 8
   1625370.93949   1275159.07145  23282615.067    23282624.013    23282614.973
  -1398645.31749  -1085096.10847  21236056.092    21236062.552    21236055.167
 -14409661.15849 -11192389.43246  22009046.097    22009056.694    22009046.099
 -28185694.03949 -21933564.94347  19820297.628    19820304.486    19820297.804
  -3688520.05449  -2864180.66647  20319991.026    20319996.374    20319990.183
  -9467936.46949  -7081726.81945  22924200.921    22924209.554    22924200.297
 -28883068.91649 -21456657.88047  20284053.575    20284059.814    20284053.329
  -7521913.61849  -5490120.89845  22810933.172    22810943.511    22810932.922
 99  5  7 16 46 29.9960000  0  8G26G 2G24G 4G 7G 5G 9G 8
   1661621.23749   1303405.97245  23289513.325    23289522.256    23289513.231
  -1383009.37249  -1072912.30947  21239031.515    21239038.013    21239030.641
 -14553833.79749 -11304731.66646  21981611.059    21981621.455    21981610.911
 -28285903.30649 -22011650.05347  19801228.427    19801235.280    19801228.580
  -3671516.70049  -2850931.32747  20323226.648    20323232.031    20323225.838
  -9591092.39749  -7177692.39346  22900764.996    22900773.691    22900764.460
 -28963313.93549 -21519186.44747  20268783.457    20268789.651    20268783.200
  -7664494.88249  -5601223.09145  22783800.701    22783810.989    22783800.504
 99  5  7 16 46 59.9960000  0  8G26G 2G24G 4G 7G 5G 9G 8
   1697905.58649   1331679.40345  23296418.163    23296427.042    23296418.010
  -1367151.08849  -1060555.26647  21242049.301    21242055.765    21242048.411
 -14697894.97849 -11416987.05346  21954197.084    21954207.419    21954196.928
 -28385660.91549 -22089383.22847  19782245.156    19782251.996    19782245.307
  -3654406.13349  -2837598.44847  20326482.727    20326488.129    20326481.912
  -9714291.06849  -7273691.28546  22877320.884    22877329.725    22877320.449
 -29043077.33049 -21581339.73047  20253604.976    20253611.131    20253604.724
  -7806914.27149  -5712199.15345  22756699.076    22756709.305    22756698.897
 99  5  7 16 47 29.9960000  0  8G26G 2G24G 4G 7G 5G 9G 8
   1734186.63949   1359950.27045  23303322.300    23303331.166    23303322.139
  -1351075.65649  -1048029.01147  21245108.397    21245114.862    21245107.511
 -14841835.48449 -11529148.42146  21926806.064    21926816.288    21926805.948
 -28484963.59949 -22166761.90547  19763348.451    19763355.257    19763348.615
  -3637183.16149  -2824177.97847  20329760.205    20329765.597    20329759.378
  -9837539.95449  -7369729.29546  22853867.246    22853876.227    22853866.853
 -29122357.20949 -21643116.24047  20238518.492    20238524.629    20238518.249
  -7949183.28449  -5823058.05645  22729626.197    22729636.164    22729625.943
 99  5  7 16 47 59.9960000  0  8G26G 2G24G 4G 7G 5G 9G 8
   1770446.12949   1388204.33545  23310222.384    23310231.214    23310222.175
  -1334788.48349  -1035337.76247  21248207.775    21248214.241    21248206.890
 -14985652.05649 -11641213.19546  21899438.685    21899448.754    21899438.507
 -28583810.92349 -22243785.76447  19744538.458    19744545.198    19744538.601
  -3619839.07349  -2810663.13747  20333060.704    20333066.111    20333059.875
  -9960855.53349  -7465819.26346  22830401.005    22830410.050    22830400.562
 -29201160.80949 -21704521.62547  20223522.679    20223528.784    20223522.420
  -8091308.41949  -5933804.82045  22702580.674    22702590.361    22702580.363
 99  5  7 16 48 29.9960000  0  8G26G 2G24G 4G 7G 5G 9G 8
   1806702.54749   1416456.00845  23317121.826    23317130.676    23317121.617
  -1318263.46949  -1022461.19747  21251352.395    21251358.868    21251351.534
 -15129324.36449 -11753165.54946  21872098.786    21872108.735    21872098.551
 -28682177.07949 -22320434.68647  19725820.012    19725826.723    19725820.137
  -3602343.48349  -2797030.24647  20336390.041    20336395.475    20336389.207
 -10084213.92349  -7561942.60146  22806926.695    22806935.728    22806926.234
 -29279465.61849 -21765538.34447  20208621.784    20208627.850    20208621.537
  -8233274.99149  -6044428.04845  22675565.439    22675574.796    22675565.055
 99  5  7 16 48 59.9960000  0  8G26G 2G24G 4G 7G 5G 9G 8
   1842941.04549   1444693.70945  23324017.970    23324026.747    23324017.734
  -1301505.51449  -1009403.10846  21254541.343    21254547.834    21254540.501
 -15272850.31249 -11865003.86846  21844786.709    21844796.571    21844786.430
 -28780054.47749 -22396702.76147  19707194.571    19707201.268    19707194.665
  -3584691.87349  -2783275.78147  20339749.048    20339754.540    20339748.219
 -10207610.63349  -7658095.81146  22783445.152    22783454.081    22783444.625
 -29357275.71149 -21826169.57247  20193815.022    20193821.042    20193814.762
  -8375090.07649  -6154933.19945  22648578.988    22648588.137    22648578.550
 99  5  7 16 49 29.9960000  0  8G26G 2G24G 4G 7G 5G 9G 8
   1879166.10049   1472920.95745  23330911.601    23330920.268    23330911.257
  -1284529.90549   -996175.42347  21257771.777    21257778.211    21257770.912
 -15416236.28349 -11976733.11146  21817501.132    21817511.023    21817500.928
 -28877448.16149 -22472593.91547  19688661.142    19688667.853    19688661.259
  -3566904.15949  -2769415.26047  20343133.974    20343139.500    20343133.143
 -10331060.49949  -7754290.43646  22759953.484    22759962.263    22759952.878
 -29434611.34949 -21886431.09947  20179098.563    20179104.526    20179098.274
  -8516740.46949  -6265310.01245  22621623.772    22621632.853    22621623.256
 99  5  7 16 49 59.9960000  0  8G26G 2G24G 4G 7G 5G 9G 8
   1915401.11949   1501155.95845  23337807.056    23337815.637    23337806.671
  -1267350.91249   -982789.24946  21261040.935    21261047.279    21261040.043
 -15559486.64549 -12088356.69846  21790241.388    21790251.243    21790241.234
 -28974367.41349 -22548115.37047  19670218.010    19670224.714    19670218.119
  -3548996.41549  -2755461.21147  20346541.701    20346547.266    20346540.881
 -10454556.07549  -7850520.66046  22736452.986    22736461.703    22736452.435
 -29511494.09249 -21946339.71347  20164468.294    20164474.175    20164467.999
  -8658206.06649  -6375542.85945  22594703.793    22594712.743    22594703.268
 99  5  7 16 50 29.9960000  0  8G26G 2G24G 4G 7G 5G 9G 8
   1951658.74349   1529408.57345  23344706.694    23344715.259    23344706.348
  -1249967.15649   -969243.52547  21264349.077    21264355.343    21264348.132
 -15702587.35549 -12199863.66346  21763010.226    21763019.984    21763010.035
 -29070797.95449 -22623256.00947  19651867.874    19651874.589    19651867.983
  -3530980.43149  -2741422.81047  20349970.055    20349975.651    20349969.240
 -10578075.61649  -7946769.57846  22712947.882    22712956.630    22712947.369
 -29587911.90049 -22005886.04247  20149926.459    20149932.327    20149926.166
  -8799460.46749  -6485611.11245  22567823.897    22567832.908    22567823.427
 99  5  7 16 50 59.9960000  0  8G26G 2G24G 4G 7G 5G 9G 8
   1987921.67349   1557665.30845  23351607.333    23351615.918    23351607.005
  -1232377.72749   -955537.52847  21267696.288    21267702.556    21267695.349
 -15845538.24249 -12311253.87746  21735807.566    21735817.260    21735807.327
 -29166744.70049 -22698019.66847  19633609.830    19633616.512    19633609.924
  -3512873.99049  -2727313.93547  20353415.634    20353421.241    20353414.818
 -10701636.67549  -8043050.83646  22689434.830    22689443.662    22689434.390
 -29663868.95049 -22065073.34547  20135472.315    20135478.173    20135472.012
  -8940480.61149  -6595496.81645  22540988.574    22540997.664    22540988.126
 99  5  7 16 51 29.9950000  0  8G26G 2G24G 4G 7G 5G 9G 8
   2024198.48249   1585932.86245  23358510.617    23358519.206    23358510.320
  -1214565.54849   -941657.96947  21271085.833    21271092.158    21271084.945
 -15988336.55449 -12422525.19846  21708633.833    21708643.581    21708633.666
 -29262208.83849 -22772407.26747  19615443.599    19615450.284    19615443.683
  -3494671.20849  -2713129.98147  20356879.510    20356885.140    20356878.706
 -10825238.05549  -8139363.51646  22665914.183    22665923.113    22665913.743
 -29739347.91549 -22123888.10947  20121109.111    20121114.989    20121108.826
  -9081241.18449  -6705180.26645  22514202.639    22514211.818    22514202.211
 99  5  7 16 51 59.9950000  0  8G26G 2G24G 4G 7G 5G 9G 8
   2060452.37049   1614182.55345  23365409.558    23365418.246    23365409.293
  -1196540.21349   -927612.31646  21274515.952    21274522.304    21274515.091
 -16131011.24049 -12533700.18546  21681483.589    21681493.431    21681483.498
 -29357221.07749 -22846442.73747  19597363.409    19597370.028    19597363.469
  -3476379.01049  -2698876.34747  20360360.426    20360366.056    20360359.615
 -10948891.78149  -8235716.99345  22642383.566    22642392.574    22642383.172
 -29814362.63649 -22182341.13147  20106834.241    20106840.146    20106833.987
  -9221780.98049  -6814691.66945  22487458.562    22487468.035    22487458.234
 99  5  7 16 52 29.9950000  0  8G26G 2G24G 4G 7G 5G 9G 8
   2096674.39849   1642407.42845  23372302.256    23372311.210    23372302.108
  -1178287.69049   -913389.63346  21277989.339    21277995.717    21277988.477
 -16273541.17949 -12644762.38346  21654360.989    21654370.827    21654360.901
 -29451771.19849 -22920118.11447  19579371.080    19579377.705    19579371.158
  -3457973.31349  -2684534.27747  20363862.935    20363868.596    20363862.128
 -11072585.51449  -8332101.64645  22618845.417    22618854.430    22618845.000
 -29888884.55949 -22240410.15147  20092653.175    20092659.097    20092652.916
  -9362114.50349  -6924042.34145  22460753.648    22460763.453    22460753.457
 99  5  7 16 52 59.9950000  0  8G26G 2G24G 4G 7G 5G 9G 8
   2132888.32249   1670625.97345  23379193.435    23379202.583    23379193.410
  -1159790.39849   -898976.20646  21281509.320    21281515.693    21281508.455
 -16415896.99649 -12755688.89646  21627271.505    21627281.410    21627271.405
 -29545833.28349 -22993413.21347  19561471.608    19561478.255    19561471.716
  -3439404.05249  -2670064.76547  20367396.572    20367402.249    20367395.763
 -11196288.42649  -8428493.45545  22595305.497    22595314.483    22595305.073
 -29962888.88649 -22298075.85047  20078570.626    20078576.508    20078570.358
  -9502223.04849  -7033217.72145  22434091.657    22434101.606    22434091.483
 99  5  7 16 53 29.9950000  0  8G26G 2G24G 4G 7G 5G 9G 8
   2169068.82849   1698818.47045  23386078.359    23386087.624    23386078.353
  -1141097.70149   -884410.54146  21285066.543    21285072.853    21285065.615
 -16558117.42449 -12866509.90946  21600207.743    21600217.744    21600207.676
 -29639432.47649 -23066347.62347  19543660.226    19543666.902    19543660.351
  -3420709.96549  -2655497.97347  20370953.988    20370959.638    20370953.153
 -11320019.05349  -8524906.85245  22571760.322    22571769.206    22571759.813
 -30036413.32049 -22355367.60347  20064579.370    20064585.244    20064579.101
  -9642168.35949  -7142265.90146  22407460.915    22407470.851    22407460.681
 99  5  7 16 53 59.9950000  0  8G26G 2G24G 4G 7G 5G 9G 8
   2205226.17149   1726992.92945  23392959.003    23392968.214    23392958.932
  -1122191.53349   -869678.51446  21288664.247    21288670.629    21288663.382
 -16700167.05049 -12977197.82546  21573176.443    21573186.559    21573176.463
 -29732530.41149 -23138891.44447  19525944.275    19525950.944    19525944.391
  -3401887.29049  -2640830.98747  20374535.848    20374541.511    20374535.025
 -11443756.54549  -8621325.59745  22548213.775    22548222.645    22548213.289
 -30109445.96049 -22412276.14147  20050681.688    20050687.573    20050681.441
  -9781936.53249  -7251176.05646  22380863.893    22380873.749    22380863.619
 99  5  7 16 54 29.9950000  0  8G26G 2G24G 4G 7G 5G 9G 8
   2241357.04949   1755146.75645  23399834.626    23399843.701    23399834.468
  -1103084.16449   -854789.71546  21292300.260    21292306.710    21292299.443
 -16842055.97649 -13087760.53246  21546175.817    21546185.933    21546175.820
 -29825115.31449 -23211035.50047  19508325.972    19508332.585    19508326.067
  -3382959.64149  -2626082.20347  20378137.745    20378143.353    20378136.889
 -11567518.56949  -8717763.46645  22524662.570    22524671.385    22524662.080
 -30181993.54649 -22468806.71447  20036876.316    20036882.186    20036876.082
  -9921513.89749  -7359937.51946  22354303.263    22354313.006    22354302.888
 99  5  7 16 54 59.9950000  0  8G26G 2G24G 4G 7G 5G 9G 8
   2277463.24749   1783281.37645  23406705.293    23406714.599    23406705.247
  -1083765.62249   -839736.36746  21295976.483    21295982.988    21295975.699
 -16983788.12049 -13198201.05846  21519205.107    21519215.117    21519205.019
 -29917174.60649 -23282769.98747  19490807.665    19490814.252    19490807.760
  -3363945.61149  -2611266.10547  20381756.037    20381761.617    20381755.174
 -11691306.50749  -8814221.53445  22501106.372    22501115.189    22501105.963
 -30254062.72849 -22524964.51147  20023161.966    20023167.844    20023161.743
 -10060876.20749  -7468531.42446  22327783.594    22327793.142    22327783.100
 99  5  7 16 55 29.9950000  0  8G26G 2G24G 4G 7G 5G 9G 8
   2313542.16149   1811394.72645  23413570.995    23413580.313    23413570.839
  -1064214.01649   -824501.41746  21299697.095    21299703.584    21299696.305
 -17125364.53049 -13308520.23846  21492263.996    21492273.938    21492263.873
 -30008711.92449 -23354097.73247  19473388.662    19473395.259    19473388.764
  -3344865.58149  -2596398.58147  20385386.821    20385392.433    20385385.998
 -11815123.79049  -8910702.45645  22477544.732    22477553.456    22477544.286
 -30325663.03749 -22580756.95147  20009536.870    20009542.773    20009536.645
 -10200014.49649  -7576950.75946  22301306.511    22301315.895    22301305.971
 99  5  7 16 55 59.9950000  0  8G26G 2G24G 4G 7G 5G 9G 8
   2349583.88949   1839479.10945  23420429.583    23420438.893    23420429.448
  -1044423.44849   -809080.26446  21303463.168    21303469.654    21303462.359
 -17266777.44649 -13418712.03246  21465353.933    21465363.859    21465353.847
 -30099731.45249 -23425022.01347  19456068.204    19456074.787    19456068.322
  -3325698.81149  -2581463.46347  20389034.113    20389039.782    20389033.328
 -11938964.64049  -9007201.74245  22453978.475    22453987.297    22453978.077
 -30396783.39449 -22636175.40347  19996003.100    19996009.034    19996002.892
 -10338896.61349  -7685170.49746  22274878.207    22274887.377    22274877.594
